GFSNGP_sfc_thetae_000.txt.gz
Theta_e
287 289 288 291 292 291 290 291 286 288 288 292 296 294 294 297 298 299 299 300 300 298 296 295 293 290 288 286 285 285 284 283 283 283 283 283 284 284 284 283 283 282 282 281
286 292 291 291 293 294 293 291 290 291 290 297 294 294 295 297 299 299 299 300 299 298 296 294 292 289 287 285 284 285 284 283 284 284 284 284 283 283 282 282 281 281 280 280
286 294 292 289 293 294 290 291 290 287 294 294 292 294 293 296 299 299 300 300 299 297 296 293 291 288 285 284 284 284 283 283 283 284 283 283 282 282 281 280 279 280 280 279
287 291 280 288 298 298 294 296 296 294 292 293 292 291 292 293 296 297 298 299 297 295 292 290 288 286 284 284 283 283 283 283 283 284 282 282 281 280 279 279 279 279 279 279
283 282 286 288 290 294 293 293 294 292 292 292 293 293 292 293 294 294 295 294 293 292 290 288 286 285 284 283 282 282 282 282 283 283 282 280 279 278 279 279 278 278 279 278
285 280 280 286 290 292 292 287 293 293 293 292 292 289 289 292 292 290 290 290 288 287 287 285 283 284 283 282 281 281 282 282 281 281 280 279 278 278 278 278 278 279 278 277
283 284 285 292 292 292 286 287 292 294 295 292 291 290 292 290 289 289 288 287 287 286 284 282 282 283 281 280 280 281 281 281 280 280 279 278 278 278 277 277 277 276 276 276
288 282 280 293 291 287 291 292 292 292 291 290 291 291 290 289 288 288 287 286 285 283 282 282 282 282 279 279 279 280 280 280 279 278 279 280 277 277 276 276 275 275 275 275
289 288 293 292 293 294 294 292 291 291 292 292 290 289 289 288 287 286 285 284 284 282 281 280 280 280 278 278 279 279 278 277 277 277 278 277 276 276 276 275 275 275 277 277
291 291 291 292 293 295 294 293 292 293 292 293 289 289 288 288 287 286 284 283 283 281 279 278 278 278 278 278 279 278 277 276 276 276 277 276 277 277 276 275 275 277 277 277
289 289 289 291 292 292 292 292 292 292 292 291 290 288 288 287 286 286 285 283 282 280 278 277 277 277 278 278 277 276 275 275 275 276 275 275 276 276 277 276 279 278 277 277
289 293 293 291 293 292 292 291 292 291 290 290 290 289 288 287 287 286 284 283 281 279 278 276 277 277 277 277 277 275 275 276 276 276 275 276 275 275 281 282 283 283 283 281
294 293 291 292 291 291 291 292 292 291 291 289 289 290 289 287 286 288 284 283 281 279 278 277 277 277 277 277 276 275 274 275 276 277 275 275 275 275 274 277 281 281 282 282
293 293 290 291 290 291 291 291 291 289 289 289 287 287 287 286 285 283 283 282 279 278 277 276 276 276 276 276 276 275 274 280 276 275 274 274 275 275 274 274 274 274 279 280
291 291 292 290 290 288 289 289 287 285 285 285 286 285 284 282 281 281 280 279 278 277 276 276 276 275 276 276 276 275 275 276 276 275 275 277 275 275 275 274 274 274 275 277
288 289 290 289 287 287 287 286 285 284 284 283 283 282 281 280 279 278 277 277 277 275 276 275 275 275 276 276 275 275 275 279 279 275 275 275 275 275 274 274 273 273 273 274
287 282 284 284 284 284 285 286 285 285 284 283 282 281 279 278 277 276 276 277 276 276 276 276 276 277 277 277 276 275 274 275 279 275 275 275 275 274 274 273 273 273 273 275
291 290 289 288 285 284 284 284 286 286 284 283 282 280 278 278 277 276 275 275 275 275 276 276 276 277 277 277 276 275 274 274 275 274 275 274 274 273 273 273 273 272 273 275
290 288 287 286 286 285 284 283 283 283 283 282 281 280 280 278 277 276 275 274 274 273 273 275 281 278 276 278 277 275 274 273 274 274 274 275 272 272 272 272 273 273 273 274
285 285 285 284 285 285 283 283 283 282 282 281 280 279 277 277 276 275 274 273 273 274 274 276 276 275 275 276 280 274 273 273 273 273 272 273 272 272 272 274 274 274 273 273
284 284 283 283 282 283 283 283 283 281 280 281 280 278 276 275 274 274 273 273 274 276 276 278 275 275 275 277 275 273 272 271 272 271 271 272 271 272 272 272 273 273 272 272
284 284 284 283 282 279 279 279 280 279 279 278 276 275 274 272 272 272 274 274 275 279 275 274 274 278 277 277 273 272 272 270 271 271 271 271 271 272 272 272 271 271 271 270
285 284 283 282 281 278 278 277 277 277 276 275 275 274 274 274 274 273 272 275 275 277 273 273 277 279 278 273 272 271 270 270 269 270 271 271 272 272 270 269 270 270 270 270
283 282 280 279 278 277 275 273 275 274 274 274 274 274 274 273 272 273 276 278 278 275 273 275 276 278 276 270 270 270 269 269 269 270 271 273 271 269 267 268 269 270 270 270
281 279 278 277 276 274 273 273 272 272 272 272 272 272 273 273 272 271 271 272 276 272 270 275 276 276 270 270 270 270 269 269 269 267 268 267 266 265 267 268 268 268 270 268
280 279 277 277 275 275 274 274 273 272 272 271 270 271 271 272 272 270 271 272 271 272 269 269 270 271 270 270 270 269 268 268 269 268 270 267 267 266 267 267 267 267 268 268
278 278 275 274 275 275 274 274 273 273 273 272 270 270 270 270 271 271 272 270 269 269 268 269 269 270 270 269 268 268 268 268 269 269 268 267 266 266 267 267 267 268 268 267

GFSNGP_sfc_thetae_003.txt.gz
Theta_e
287 288 289 288 288 288 286 286 282 286 287 291 294 296 295 296 297 297 298 299 299 296 295 293 291 288 287 286 285 285 284 283 283 283 283 283 283 283 282 282 281 281 281 281
285 288 287 286 288 291 289 290 289 290 289 296 298 295 293 296 297 297 298 299 298 297 295 292 290 287 286 285 284 284 283 283 283 283 283 283 282 282 281 280 280 281 280 279
283 290 288 283 287 290 291 293 292 287 293 297 295 293 293 295 298 298 298 298 297 296 295 291 289 287 284 284 284 283 283 283 283 284 283 282 281 281 280 279 279 279 279 278
284 288 281 290 298 296 293 293 294 294 296 297 295 292 292 293 296 296 298 298 296 294 291 289 286 285 284 284 283 283 282 283 283 283 282 281 280 279 278 278 278 278 278 278
285 283 287 290 295 295 292 291 296 295 296 292 292 292 294 294 293 294 296 296 294 292 289 287 285 284 283 282 282 282 282 282 283 282 281 280 278 277 278 277 277 278 278 277
287 280 279 286 293 296 298 288 298 298 297 291 292 291 294 289 289 289 290 291 289 288 287 285 283 284 283 281 281 281 282 281 281 280 279 278 277 277 277 277 278 277 277 277
285 284 284 291 291 293 287 287 292 297 296 293 291 291 288 287 286 287 287 286 287 287 285 282 282 283 281 280 280 280 281 280 280 279 278 277 277 276 276 276 276 275 276 275
283 281 278 292 291 288 290 290 291 292 290 289 289 288 287 287 286 286 285 285 285 284 282 281 282 282 280 279 279 279 279 279 277 277 279 278 276 276 275 275 274 274 274 275
287 286 292 292 291 292 292 291 289 290 291 291 289 288 288 286 285 284 284 283 283 282 280 280 280 281 278 277 278 278 277 276 276 277 277 277 275 275 275 275 274 274 277 276
291 290 290 291 292 292 292 290 291 292 292 292 288 288 286 285 284 283 282 282 282 281 279 277 278 278 277 278 278 277 275 275 276 276 276 275 277 277 275 275 274 277 277 276
289 288 289 291 291 291 290 291 291 291 291 290 289 287 286 285 284 283 282 282 281 280 278 276 276 276 277 277 277 275 275 275 275 276 274 274 276 275 277 276 277 277 277 277
289 293 293 292 292 291 291 290 290 289 289 289 289 287 287 285 285 283 282 281 279 278 277 275 276 276 276 276 276 275 275 276 276 276 274 275 274 274 280 281 282 282 282 281
294 291 290 290 291 291 290 290 290 289 290 288 288 288 287 285 284 286 281 280 278 277 276 276 276 275 276 276 275 275 274 275 275 277 275 274 274 274 273 276 281 281 281 281
291 292 290 289 289 290 290 290 290 288 288 288 287 287 287 286 285 282 281 280 278 276 276 276 275 275 275 275 275 274 274 280 275 274 273 274 274 274 274 273 273 274 278 279
289 290 291 289 289 287 288 289 287 286 285 285 286 285 285 282 281 280 278 278 277 276 275 275 274 274 275 275 276 275 275 275 275 274 274 276 275 274 274 274 273 273 274 276
287 288 288 288 286 287 287 286 285 284 284 283 282 282 281 280 278 277 276 276 276 275 275 274 275 275 276 275 275 274 274 278 278 275 274 274 274 273 273 273 272 272 272 273
286 281 282 282 284 284 285 286 287 284 283 282 280 279 278 277 276 275 275 276 276 275 275 276 275 277 277 276 275 274 274 274 278 274 274 274 273 273 272 272 271 272 272 274
289 288 288 288 285 284 283 283 283 283 283 282 279 278 276 276 275 275 274 274 274 274 275 276 276 276 277 277 276 274 274 274 274 274 274 273 273 272 272 272 272 272 272 274
288 287 286 286 285 284 284 283 283 283 282 280 279 277 277 276 275 274 274 274 273 272 273 275 280 277 276 278 276 274 273 272 273 273 273 274 272 271 271 271 272 272 273 273
285 285 285 283 284 284 282 283 282 281 280 280 279 278 276 275 275 274 274 273 273 273 274 276 276 275 275 276 278 273 272 272 272 271 271 272 271 271 271 273 273 273 272 272
283 284 283 283 282 282 283 283 282 280 279 280 279 277 276 274 274 274 273 272 274 275 275 278 275 274 275 276 273 272 271 270 271 270 270 270 270 271 271 272 272 272 271 271
283 283 282 282 281 280 280 281 281 280 279 277 276 275 274 272 272 272 273 273 275 279 275 273 274 277 277 276 272 271 271 269 270 270 270 270 270 271 271 271 270 269 270 270
284 284 283 283 281 279 279 279 278 278 276 275 275 274 274 273 273 273 272 275 275 277 273 273 278 279 277 272 272 271 269 269 269 269 270 270 271 271 269 268 269 269 268 269
283 282 280 280 279 279 276 274 275 274 274 274 274 274 274 273 272 273 276 278 278 275 273 275 276 277 275 269 269 269 269 268 268 268 270 272 270 268 266 267 267 268 268 268
281 280 280 278 276 274 273 273 272 273 273 272 272 273 273 273 273 271 272 273 276 272 270 275 276 275 270 269 269 269 268 268 268 265 266 265 265 265 266 266 266 267 268 267
280 279 277 277 275 275 274 274 272 272 272 271 271 271 271 272 272 270 270 272 270 272 268 269 270 270 269 269 269 268 267 267 267 267 269 266 266 265 265 266 266 266 266 266
277 278 275 274 274 274 274 274 273 273 273 272 270 270 270 270 271 270 272 269 269 268 268 268 268 269 269 269 267 267 267 267 269 268 267 264 265 265 266 266 266 267 266 266

GFSNGP_sfc_thetae_006.txt.gz
Theta_e
286 287 287 287 287 286 284 284 280 283 284 289 291 293 296 298 297 297 298 297 296 294 292 290 288 286 285 285 284 285 284 283 283 282 282 282 282 282 281 281 280 281 280 280
284 288 287 285 288 289 288 287 286 286 285 293 295 296 297 295 296 297 298 298 297 295 292 290 288 286 285 284 284 285 284 282 282 283 283 282 281 281 281 280 280 280 279 278
281 288 288 282 286 287 289 290 288 284 288 293 294 295 293 294 297 298 298 298 296 295 293 290 287 286 284 283 284 283 283 282 283 283 282 281 280 280 280 279 278 278 277 277
282 286 281 290 294 292 289 292 292 291 294 295 294 292 291 293 295 297 298 298 296 294 290 287 286 284 283 283 283 283 282 282 283 282 281 280 279 279 278 277 277 277 277 276
283 284 287 290 294 290 288 289 294 293 295 296 291 291 291 292 293 296 297 297 294 293 289 286 285 284 283 282 282 282 281 281 282 281 280 279 278 277 277 276 276 276 276 276
286 282 277 285 295 299 297 288 296 296 296 295 292 290 292 288 290 291 292 292 290 288 286 284 283 284 283 281 281 281 281 281 280 280 279 277 277 276 276 275 277 277 277 276
285 284 284 289 290 297 288 288 291 298 297 291 291 289 287 287 286 287 288 287 287 287 284 282 283 283 281 281 280 280 280 279 278 278 277 276 276 275 274 274 275 274 275 275
283 280 278 291 291 287 291 290 290 291 290 288 286 286 286 286 286 286 286 285 285 283 281 281 282 283 280 278 278 279 278 277 277 277 279 277 275 274 274 274 274 274 274 275
286 285 291 291 291 293 292 291 289 290 290 289 287 286 287 284 284 284 284 283 283 282 280 280 280 281 278 276 278 277 276 276 276 276 276 276 274 274 275 274 274 274 276 275
289 289 290 290 291 290 290 289 290 291 290 290 287 286 284 284 283 283 282 282 282 281 279 277 278 277 277 277 277 276 275 275 275 276 274 274 276 276 275 274 274 276 276 276
289 290 290 290 290 289 289 290 290 291 291 289 288 286 285 283 282 282 281 281 281 279 278 276 277 276 276 276 276 275 274 275 275 275 273 273 275 274 277 275 276 277 276 276
289 293 292 291 290 290 289 289 290 289 289 289 289 286 285 282 282 282 280 280 279 278 277 275 276 275 275 276 275 275 274 275 276 275 274 275 274 274 279 281 282 282 282 280
294 290 289 289 290 289 289 289 289 288 289 287 287 287 285 283 282 285 280 279 278 277 276 276 275 275 275 275 275 274 274 275 275 277 274 274 274 273 272 276 280 280 280 281
290 291 289 289 289 289 289 289 289 287 287 287 286 286 285 284 282 281 279 278 277 276 275 275 274 274 274 275 275 274 275 280 274 274 273 273 274 274 273 272 272 273 277 279
288 289 291 289 288 287 288 288 286 286 286 286 286 285 284 282 280 279 278 277 277 275 275 274 274 273 274 275 276 274 275 275 274 274 274 275 274 273 273 273 272 272 273 275
287 288 288 288 286 287 287 286 286 285 284 284 283 282 281 280 278 277 276 276 276 274 274 274 274 274 275 275 275 274 274 279 278 275 274 274 273 272 272 271 271 271 271 272
286 282 283 284 286 286 286 287 286 286 284 283 280 279 279 277 276 275 275 275 275 275 275 276 275 276 276 276 274 274 273 274 278 273 273 273 272 272 272 271 270 271 271 273
290 289 289 289 286 285 284 284 284 283 282 281 279 278 277 277 275 274 273 274 274 274 275 276 276 276 277 276 275 274 273 273 273 273 273 272 272 272 271 271 271 271 271 273
288 288 287 287 287 285 284 283 282 281 281 279 279 277 276 275 274 273 274 273 273 272 272 275 280 277 275 278 276 274 272 271 272 272 272 273 271 271 270 271 271 271 272 272
285 285 285 284 285 284 282 282 281 280 279 279 278 276 274 273 274 273 274 272 272 273 274 276 275 274 275 276 277 272 271 271 271 271 270 271 270 270 271 272 272 272 271 271
283 283 283 283 282 282 282 282 281 280 279 279 278 276 275 273 273 273 273 273 273 275 275 277 274 274 275 275 273 271 270 269 270 270 269 270 270 270 270 271 271 271 270 270
282 282 281 282 282 281 281 281 281 280 279 277 276 275 274 272 272 273 273 273 274 279 275 273 274 278 276 275 271 270 270 269 269 270 269 269 270 270 270 270 269 268 269 269
283 283 282 282 281 280 280 280 279 278 277 276 275 275 274 273 273 273 273 275 275 277 273 273 278 279 276 271 271 270 269 268 268 268 269 269 270 270 268 267 267 268 266 267
282 282 281 281 281 280 277 275 276 275 275 275 274 274 274 273 272 274 277 278 279 275 274 274 276 277 274 269 268 268 268 267 267 267 269 271 268 267 266 266 266 266 266 267
281 281 281 281 279 276 274 274 273 273 273 273 273 273 273 273 274 272 273 274 276 272 270 275 276 275 269 268 268 268 267 267 267 265 265 265 264 264 264 265 265 266 268 267
281 281 279 279 277 276 275 275 273 273 273 271 271 271 271 272 273 270 271 272 270 272 268 268 269 269 268 268 268 267 266 266 267 266 268 265 265 264 265 265 265 265 266 265
277 278 275 274 275 275 274 274 274 273 273 272 270 270 270 270 271 270 271 269 269 268 267 267 267 268 268 268 267 266 266 266 268 268 265 263 263 263 264 265 265 266 266 266

GFSNGP_sfc_thetae_009.txt.gz
Theta_e
286 287 286 286 286 286 284 284 280 283 283 287 290 292 294 296 297 298 298 296 296 295 293 291 290 290 289 288 288 288 287 286 285 285 286 285 285 284 284 285 284 284 284 283
284 288 287 284 287 287 287 286 285 285 285 292 293 294 295 296 298 298 298 297 296 294 292 291 290 289 288 287 286 287 286 285 285 285 285 284 284 284 284 284 283 283 282 282
281 288 287 284 286 287 288 289 287 283 288 293 292 293 295 297 296 297 299 297 295 293 292 289 288 287 286 286 286 286 285 285 285 285 284 283 283 283 283 282 282 282 281 281
282 285 280 290 295 293 289 290 292 291 292 293 294 295 296 295 293 298 299 297 295 293 290 288 288 286 285 286 285 285 285 285 285 284 282 282 282 282 282 282 281 281 280 280
282 283 287 289 292 290 289 288 293 292 294 294 294 294 295 292 293 298 299 298 295 293 289 288 286 286 285 285 284 284 284 284 283 283 282 282 281 281 281 281 280 280 280 280
286 282 280 287 293 296 296 288 294 294 295 294 295 291 294 289 291 293 294 294 291 289 288 286 285 286 285 284 284 283 283 282 283 282 282 281 280 280 279 280 280 280 280 280
285 284 285 291 292 298 287 288 291 296 296 293 294 293 289 288 288 289 291 289 289 288 286 284 285 285 283 283 282 282 282 281 281 281 280 280 279 279 279 279 279 278 279 280
285 283 278 291 293 289 291 291 291 294 294 290 287 287 286 286 287 287 286 286 286 284 283 284 285 284 282 280 281 281 281 280 280 280 280 279 278 278 278 278 278 278 278 279
286 285 291 292 292 293 292 291 291 292 291 289 287 286 285 284 285 284 284 284 284 283 282 282 283 283 280 279 280 279 279 278 279 279 279 279 278 278 278 278 277 278 278 278
289 290 291 292 292 291 290 290 291 291 290 289 286 285 283 284 283 283 283 282 283 282 280 279 280 280 279 279 279 279 278 278 279 278 277 277 279 279 278 278 277 278 278 278
289 291 291 291 291 290 289 290 289 290 289 287 286 284 284 283 282 282 282 282 282 281 279 278 278 278 278 278 279 277 277 277 278 277 277 277 278 278 279 279 279 279 279 278
289 293 292 291 290 290 289 288 289 289 287 288 287 284 283 282 282 282 281 281 280 279 278 277 277 277 277 278 278 277 277 278 278 277 277 277 277 277 280 281 281 281 281 280
293 290 290 289 290 290 288 288 289 288 288 286 286 285 284 282 282 284 281 280 279 278 277 277 276 276 276 277 277 277 276 277 278 277 276 276 276 276 275 277 279 279 280 280
291 291 289 289 289 289 289 289 289 287 287 286 286 285 285 283 282 280 279 278 278 277 276 276 275 275 276 276 277 277 278 280 276 276 276 276 276 276 275 274 273 274 277 279
289 289 290 289 288 287 288 288 286 285 285 285 285 284 283 281 280 278 278 278 277 276 275 275 275 274 276 277 277 276 277 277 277 276 276 277 276 275 274 274 273 273 274 276
287 288 288 288 287 287 287 286 285 285 285 285 283 282 281 280 278 277 277 277 277 275 275 275 275 275 276 277 276 275 276 280 279 276 275 275 275 274 274 273 272 272 272 273
286 282 283 284 286 286 286 287 286 286 285 283 281 280 279 277 277 276 276 276 276 275 276 276 276 277 277 276 276 275 275 276 278 275 274 274 273 273 273 272 272 272 272 274
290 290 290 290 288 286 285 286 285 285 283 281 280 279 278 278 276 275 274 275 275 274 276 276 277 277 277 277 276 276 275 274 274 274 273 273 274 273 272 272 272 272 272 274
289 289 289 289 288 287 285 284 283 282 281 280 279 277 277 276 275 274 274 274 274 273 274 277 280 277 277 279 276 274 273 273 273 272 272 274 272 272 272 272 272 272 273 273
286 286 286 285 285 285 282 282 282 280 279 278 277 276 274 274 275 274 274 273 273 274 275 276 276 275 276 278 276 273 272 272 272 271 271 272 271 271 272 272 272 272 272 271
283 284 284 283 282 282 282 282 281 280 279 279 277 276 275 273 274 274 274 273 274 276 276 277 275 275 276 275 273 272 271 271 271 271 270 270 270 270 271 271 271 271 270 270
282 282 281 282 281 279 280 281 281 279 278 277 276 275 274 273 273 274 274 274 275 279 275 275 275 278 277 275 272 271 271 270 270 270 270 270 270 270 270 270 269 269 269 269
282 282 282 282 281 280 280 280 280 279 277 276 276 275 275 274 275 274 273 276 276 277 274 275 279 279 276 272 271 270 270 269 269 269 269 270 270 270 269 268 268 269 267 267
282 282 281 281 281 280 277 277 276 276 276 275 275 275 275 274 273 275 277 278 280 276 274 275 277 277 274 270 269 269 269 268 268 268 269 272 269 268 267 267 267 267 267 268
281 281 281 281 280 277 276 275 274 273 273 273 273 273 274 274 274 273 274 275 278 273 271 276 276 274 269 269 268 269 268 268 268 268 268 267 267 266 266 266 266 266 268 269
281 282 281 280 278 277 276 276 274 273 273 271 271 271 272 274 274 271 271 272 271 272 268 268 269 269 268 268 269 268 267 267 268 267 269 268 266 266 265 266 266 266 267 266
278 279 277 276 276 276 275 275 274 273 273 272 270 270 271 271 272 271 272 269 268 268 267 267 267 269 269 269 268 267 267 267 269 268 268 266 265 264 265 266 266 266 266 267

GFSNGP_sfc_thetae_012.txt.gz
Theta_e
288 289 288 287 287 288 284 286 282 286 286 290 293 294 296 298 298 299 301 304 302 303 305 306 302 297 294 292 292 294 295 295 293 292 292 291 290 290 290 290 289 289 288 288
284 289 289 286 289 288 288 288 288 288 287 295 296 297 297 298 297 298 301 303 302 301 302 299 294 292 291 290 292 292 294 292 290 290 290 290 289 289 289 288 288 288 287 287
282 289 289 285 288 289 289 290 289 285 290 294 292 293 294 295 297 300 301 302 300 299 298 295 293 291 290 291 292 293 290 290 290 289 288 288 288 288 288 288 287 286 286 286
283 287 282 292 295 295 292 292 293 292 293 294 295 297 297 300 300 299 303 301 300 296 295 294 294 293 292 292 291 290 289 289 289 288 287 288 288 287 287 287 286 286 285 285
284 284 289 292 292 294 291 291 295 294 295 296 298 298 298 295 296 300 304 302 300 297 294 293 292 292 291 290 290 289 288 288 288 287 287 287 286 286 286 286 286 285 285 284
286 282 282 292 295 297 297 289 296 295 296 296 297 292 297 293 298 300 299 297 294 292 292 291 291 291 290 289 289 288 287 287 287 287 286 286 286 285 284 285 285 285 284 284
286 284 289 295 295 300 289 291 296 297 298 298 296 296 292 294 292 295 298 295 294 293 291 290 291 290 288 288 286 287 287 286 286 286 286 285 284 284 284 284 284 283 283 284
288 284 285 296 297 293 296 298 296 297 298 297 295 291 291 291 292 291 290 290 290 289 288 289 289 289 287 285 286 286 286 285 284 284 284 284 284 283 283 283 283 282 282 283
292 293 298 299 299 300 298 296 296 297 297 296 292 290 290 289 288 288 289 289 289 287 287 288 289 287 283 284 285 285 284 283 283 283 283 283 283 283 283 283 282 281 281 281
294 298 298 299 300 298 296 295 296 297 296 294 291 290 288 287 287 286 286 286 287 286 285 285 286 285 284 284 285 284 283 283 283 282 282 283 283 283 282 282 281 281 280 280
296 299 300 299 298 296 294 294 294 295 294 292 290 289 289 287 286 286 286 286 286 284 283 283 284 283 284 284 285 283 283 282 282 282 282 282 282 282 282 282 282 281 280 280
296 299 299 298 296 295 294 293 293 291 290 291 290 288 288 286 287 286 285 285 284 283 282 282 282 282 282 283 284 283 282 282 282 282 282 281 281 281 280 280 281 281 281 281
301 298 296 295 295 295 294 293 293 292 291 288 289 288 287 286 286 286 285 284 283 282 282 281 281 281 282 282 283 283 282 282 282 281 281 280 280 279 278 280 280 279 279 280
298 296 295 294 295 294 293 292 292 290 290 289 288 288 287 285 285 284 283 283 282 281 281 281 281 280 281 282 282 282 282 281 281 281 280 280 280 279 278 277 276 277 279 279
297 295 295 295 293 292 291 291 289 288 287 287 288 286 285 284 282 281 282 282 281 281 280 280 279 279 281 282 281 281 281 281 281 281 280 280 279 278 277 277 276 276 277 278
293 293 293 293 291 290 291 290 289 288 288 286 285 285 284 283 282 281 281 281 281 280 280 280 279 280 281 281 281 281 282 281 280 279 279 278 277 277 277 276 275 275 276 276
290 287 288 288 288 289 290 291 291 289 287 286 284 283 282 281 281 280 281 282 281 280 280 280 279 280 280 280 280 280 280 279 278 278 278 277 276 276 276 275 275 275 275 276
295 295 294 294 291 290 290 289 288 288 286 284 283 282 281 282 281 280 279 280 279 279 279 280 280 280 280 280 280 280 279 278 277 277 276 276 276 276 275 275 275 275 275 276
294 293 294 293 292 290 289 288 287 286 284 283 283 282 282 281 280 279 280 279 278 278 278 280 281 280 280 280 279 279 277 277 276 276 275 275 275 275 275 275 275 275 275 274
290 291 291 290 290 289 287 286 285 284 284 283 282 280 279 279 279 279 279 278 279 280 281 281 280 280 281 280 278 277 276 276 275 275 274 275 274 274 274 274 274 274 274 274
288 288 287 287 286 287 286 285 284 282 282 283 282 280 279 278 278 278 277 277 278 281 280 279 279 279 280 278 277 276 275 275 274 274 273 273 273 274 274 274 273 273 273 272
287 286 285 285 285 284 285 285 284 282 282 281 280 279 277 277 277 277 279 279 279 281 279 279 279 279 279 276 276 275 275 274 274 274 273 273 273 273 273 273 272 272 272 272
286 286 285 284 284 282 283 283 282 281 280 279 278 278 278 278 278 277 276 279 280 279 279 280 281 279 276 275 275 274 274 273 273 273 273 273 273 273 272 272 272 272 272 272
285 285 284 283 283 282 280 280 280 280 280 279 278 278 278 277 277 279 280 280 280 279 279 280 280 277 274 274 273 273 273 273 272 273 273 273 272 272 272 271 271 271 271 271
284 283 283 282 282 281 279 279 278 278 277 277 277 277 278 279 279 278 279 279 279 278 277 278 277 274 273 273 273 273 273 272 272 273 273 272 272 271 271 271 271 271 271 272
283 283 283 283 280 280 279 280 278 277 277 275 275 276 277 278 278 276 276 275 275 274 273 273 273 273 272 272 273 272 272 272 272 272 272 272 271 271 270 270 270 270 271 271
282 281 279 279 279 280 280 278 277 277 277 276 274 275 275 275 275 274 274 273 272 272 271 271 271 272 272 272 272 272 272 272 272 272 272 272 271 270 270 270 270 270 270 270

GFSNGP_sfc_thetae_015.txt.gz
Theta_e
289 290 290 289 288 289 285 287 283 286 287 291 294 295 296 298 299 299 300 303 305 305 307 309 309 309 304 303 301 298 296 295 295 295 294 293 293 292 292 292 291 291 289 289
284 289 290 288 291 291 290 290 288 288 287 295 297 297 297 298 299 299 299 302 304 304 306 306 303 299 297 297 296 296 295 294 293 293 293 292 291 290 291 290 289 289 288 287
283 290 289 286 290 291 291 292 290 286 291 296 294 295 295 295 298 297 299 301 303 303 304 299 295 293 292 293 294 293 292 291 293 291 290 290 290 290 289 289 289 288 287 286
284 287 282 292 296 296 293 295 296 294 296 296 296 297 298 299 298 298 300 302 302 302 296 293 292 292 293 292 291 291 290 291 290 290 289 289 289 289 288 288 287 286 286 286
284 284 289 293 296 294 292 292 297 294 297 298 299 298 294 295 297 298 303 302 299 295 293 292 292 292 292 292 292 290 288 289 289 289 289 288 288 287 287 286 286 285 285 285
287 282 282 293 299 300 299 290 298 297 299 297 298 294 291 295 300 299 299 295 292 292 292 292 292 292 291 290 291 289 289 289 289 289 288 287 287 286 285 286 285 285 284 285
285 284 288 297 299 300 289 291 298 297 300 299 296 292 294 295 297 298 296 294 294 293 293 293 294 294 291 290 288 288 289 288 288 288 287 286 285 285 285 284 284 284 284 284
287 284 283 300 299 294 298 301 299 299 299 298 294 293 293 293 292 294 293 292 292 291 291 292 292 291 288 287 287 287 287 286 285 285 285 285 284 284 284 284 283 283 283 283
293 294 302 303 301 303 302 299 299 299 300 298 293 291 291 290 291 290 289 289 291 290 290 290 289 287 284 285 286 286 285 285 284 284 284 285 284 284 283 283 282 282 281 281
296 300 301 303 303 301 299 298 299 300 299 298 293 292 290 290 289 289 289 289 289 289 287 285 285 285 284 285 286 286 284 283 283 283 283 283 284 283 283 282 281 281 280 280
297 301 303 301 300 299 297 297 298 299 297 295 293 292 291 289 289 288 288 289 288 285 283 282 284 284 285 286 286 284 284 283 283 283 283 283 283 282 282 282 281 280 280 279
295 302 301 300 299 298 297 295 296 294 292 293 292 291 290 289 289 288 287 286 284 283 283 283 284 284 285 286 285 284 282 283 283 283 283 282 281 281 282 281 281 281 281 280
301 301 300 298 298 298 296 295 294 293 292 290 291 290 289 288 288 289 287 286 285 284 283 283 283 283 284 285 285 284 283 282 282 282 282 281 280 279 278 281 282 281 280 280
304 300 298 297 297 296 295 294 294 292 292 291 289 290 288 287 287 286 285 284 284 284 283 283 282 282 284 284 284 283 282 283 282 282 281 281 280 279 278 277 276 277 280 280
302 300 298 298 296 294 293 292 290 290 290 289 289 288 287 285 284 283 284 283 283 283 282 282 281 281 284 284 283 283 282 282 282 281 280 279 279 278 278 277 276 276 277 279
299 297 296 295 294 293 292 292 290 289 289 288 287 287 286 284 283 283 283 283 282 281 282 281 281 281 283 283 283 283 282 281 280 279 279 278 278 277 277 276 275 276 276 276
293 290 290 290 291 292 292 293 292 290 289 288 286 285 284 283 282 282 283 284 282 282 282 281 280 281 282 282 282 281 281 280 278 278 277 277 276 276 276 275 275 275 276 277
300 299 296 296 293 293 293 293 291 290 288 286 285 284 283 283 282 282 281 281 281 280 281 281 281 281 281 281 281 280 279 278 277 277 276 276 276 276 275 275 275 275 276 276
297 296 297 296 295 294 292 291 290 289 286 285 284 284 284 283 282 281 281 281 280 278 279 281 282 281 281 280 280 279 278 277 276 276 276 276 276 276 275 275 275 275 275 275
293 295 295 294 294 292 290 290 288 286 285 286 285 283 282 281 281 281 282 281 281 280 281 281 282 282 281 279 279 278 277 276 275 275 275 275 275 275 275 275 275 274 274 274
291 291 291 290 290 290 289 288 286 285 285 284 283 282 281 281 281 281 279 278 279 282 281 281 280 280 280 279 278 277 276 275 275 275 274 274 274 274 274 274 274 274 273 273
289 289 288 288 287 286 287 287 285 284 284 284 283 281 280 279 280 280 281 279 280 282 280 280 280 280 279 277 276 276 275 275 274 274 274 274 274 274 274 273 273 273 273 273
289 288 288 287 286 286 286 285 284 284 283 281 280 280 280 279 280 278 277 280 281 281 280 281 281 279 277 276 275 275 274 274 274 274 274 274 274 274 273 273 273 273 272 272
287 287 287 286 286 284 282 283 282 282 281 281 281 281 280 278 279 281 281 282 281 280 281 281 279 277 275 274 274 274 274 274 273 273 274 275 274 273 273 272 272 272 272 272
287 285 284 284 284 283 281 281 280 279 279 279 279 280 281 281 280 279 280 280 281 280 279 279 277 274 274 274 273 274 274 273 273 274 273 273 273 272 272 272 272 272 272 272
284 284 285 285 283 281 280 281 279 279 278 277 278 278 278 279 280 279 279 278 277 277 275 274 274 274 273 273 273 273 273 273 273 273 273 273 272 272 272 271 271 271 271 271
285 284 281 281 281 281 282 280 279 278 279 278 276 277 277 277 277 276 276 274 274 273 273 272 272 273 273 273 273 273 273 273 273 273 273 272 272 271 271 271 271 271 271 271

GFSNGP_sfc_thetae_018.txt.gz
Theta_e
287 288 288 286 286 288 286 287 283 285 286 290 293 295 296 297 298 298 297 299 300 302 302 305 304 305 303 299 297 295 295 295 294 294 293 292 291 291 291 290 288 287 287 287
284 287 287 285 288 289 290 290 290 290 289 296 298 296 295 295 295 295 297 299 301 302 302 302 299 298 299 297 296 296 295 292 292 291 291 290 290 289 289 287 286 287 286 285
280 288 287 283 288 292 292 293 292 288 292 296 295 295 295 296 296 297 298 299 299 302 297 295 294 295 294 295 295 293 292 291 291 291 290 290 289 288 286 286 286 285 284 284
282 284 276 290 296 296 293 295 296 295 296 297 296 297 295 294 294 295 298 300 300 295 292 292 292 292 292 291 291 291 290 290 290 290 289 289 287 286 286 285 284 283 283 284
283 280 285 290 296 293 291 290 295 293 296 297 298 298 294 296 297 297 297 294 293 292 291 291 291 291 291 290 291 290 289 290 289 289 288 287 286 284 284 283 283 284 284 283
286 281 277 291 296 300 296 288 296 295 296 296 296 290 289 295 294 291 291 291 291 291 292 291 292 293 291 289 289 288 288 289 289 288 287 284 284 282 284 284 283 283 282 281
285 283 285 293 296 298 286 288 296 296 297 293 289 289 292 296 294 293 292 292 292 292 290 291 293 292 290 289 288 289 289 288 286 285 284 284 284 283 282 281 280 279 279 280
286 283 279 296 295 290 294 296 296 295 296 291 292 292 291 291 292 292 292 293 293 292 292 293 292 289 286 284 285 285 285 284 284 284 284 283 280 280 280 279 279 278 278 278
288 288 296 298 297 297 297 295 295 295 295 292 290 290 290 288 288 288 288 288 289 287 285 286 285 284 282 283 284 284 284 283 281 281 281 281 280 279 278 279 278 277 277 276
292 295 296 298 298 297 295 293 295 297 296 294 290 289 288 288 287 286 287 286 285 284 283 282 283 283 283 285 285 283 281 280 280 279 280 280 280 279 277 277 276 276 276 276
293 296 296 295 295 294 294 295 295 295 295 292 290 289 288 287 286 286 286 285 285 283 281 282 284 283 285 284 283 281 280 279 279 280 278 277 278 277 277 277 278 276 276 276
291 297 296 293 294 295 294 293 293 291 290 291 291 289 288 286 286 285 283 283 282 282 282 283 284 284 283 283 282 281 279 279 278 277 277 277 276 276 282 281 281 281 281 279
297 296 296 295 294 294 293 292 292 290 290 288 288 288 287 286 285 286 283 283 282 282 282 282 282 281 282 283 281 280 277 277 278 278 276 276 276 275 274 277 283 282 282 281
299 296 294 294 293 293 293 292 292 290 289 288 288 287 287 285 285 283 282 282 282 282 281 281 280 279 280 281 279 279 279 283 277 276 276 275 275 275 274 273 273 273 278 280
298 297 295 294 293 292 291 290 288 287 287 286 287 285 285 282 282 281 282 281 281 280 280 279 279 279 280 280 279 278 277 277 276 275 275 276 275 274 274 274 273 272 273 276
294 294 293 292 291 290 290 290 287 287 286 286 285 284 282 282 281 281 280 280 279 277 277 278 277 278 279 280 279 278 278 281 279 275 275 274 274 273 273 272 272 272 272 273
290 286 286 285 287 290 290 290 289 288 286 285 283 282 281 280 280 280 279 279 278 277 277 277 277 278 279 278 278 276 276 276 279 274 274 273 273 273 273 272 272 272 272 275
296 296 293 292 291 290 290 290 289 288 286 284 283 282 281 281 280 278 278 278 277 276 277 277 278 278 278 278 277 276 275 274 274 273 273 273 273 273 272 272 272 272 272 275
296 294 294 294 293 292 291 289 288 287 284 283 282 281 281 280 279 278 277 276 275 275 275 278 283 279 277 279 277 275 273 273 274 273 273 274 272 272 272 272 272 272 272 273
292 293 294 294 293 292 289 288 286 284 284 283 282 281 279 278 278 278 277 277 276 276 277 278 278 277 277 277 278 273 273 273 273 272 272 272 272 272 272 274 274 273 272 272
289 290 290 291 289 289 288 287 285 283 283 283 281 280 279 278 278 277 276 275 276 279 278 281 277 277 277 276 274 273 272 271 272 271 271 271 271 271 272 272 272 273 272 273
288 287 287 287 287 286 285 285 285 283 282 281 280 279 279 277 277 277 277 276 277 282 277 276 276 279 277 277 273 272 272 271 271 271 271 271 271 271 271 271 271 270 270 269
288 287 287 286 285 284 284 284 283 283 281 280 280 279 278 278 278 276 275 278 277 280 276 276 280 280 278 273 272 271 271 270 270 270 271 271 271 271 269 266 267 268 267 268
286 286 285 285 285 283 281 282 280 280 280 280 280 279 279 277 276 277 279 281 282 280 278 278 278 277 276 271 270 270 270 270 269 270 270 274 271 268 266 267 267 268 268 269
283 281 281 280 280 280 279 279 279 279 278 278 278 279 279 279 277 277 277 278 282 278 277 281 278 275 271 270 270 270 270 270 270 266 267 265 265 265 267 267 267 268 268 268
281 281 281 282 280 279 279 279 278 278 278 277 277 277 277 278 279 277 277 277 276 278 273 272 271 271 270 270 270 270 270 269 269 268 269 266 266 266 267 267 267 268 268 267
279 282 278 278 279 280 280 279 278 278 278 278 276 276 277 276 277 276 276 273 272 271 270 270 270 271 270 270 270 270 270 269 271 269 267 265 266 266 267 267 267 268 268 268

GFSNGP_sfc_thetae_021.txt.gz
Theta_e
285 287 286 285 285 287 284 286 282 285 286 290 294 296 298 298 297 297 298 299 300 298 299 299 299 299 299 298 301 303 299 298 296 295 295 293 293 292 292 292 290 289 287 287
278 286 286 283 286 288 288 288 288 288 288 296 299 298 297 297 296 296 297 297 298 299 299 296 298 297 297 297 298 298 295 294 292 292 292 292 291 291 290 288 287 287 286 285
275 286 284 281 285 288 292 293 292 287 292 298 297 296 293 293 295 297 298 299 299 297 292 293 295 297 295 295 294 292 290 290 290 291 290 292 289 288 287 286 286 285 285 284
280 281 275 290 294 294 292 294 295 295 295 295 297 296 294 295 291 296 296 298 293 291 290 291 291 292 292 292 291 290 290 290 290 290 289 289 289 288 287 286 285 284 283 283
282 281 283 288 294 292 290 290 294 292 293 295 295 297 294 294 290 290 291 291 291 291 290 290 290 291 290 290 290 290 290 290 291 291 289 288 286 286 286 285 283 282 283 283
285 280 276 288 294 297 294 287 294 294 294 294 292 289 290 293 291 290 291 291 290 291 291 291 290 292 291 290 290 289 289 289 289 289 288 287 286 284 283 283 283 284 281 280
285 283 285 291 293 298 285 286 293 294 294 291 289 289 292 294 291 292 291 290 292 292 291 291 292 292 289 289 287 289 289 289 288 287 285 284 283 283 283 282 280 278 278 278
286 283 278 293 293 290 293 294 293 293 292 290 290 290 289 291 292 292 291 291 292 291 290 291 292 290 288 287 289 288 287 285 284 283 284 283 282 280 279 278 277 276 276 276
287 286 292 295 296 295 295 293 292 293 292 292 289 288 287 285 286 290 291 292 291 290 288 288 287 286 283 283 284 284 283 282 282 282 281 280 278 277 277 277 276 276 276 275
291 293 294 295 294 293 292 291 293 295 293 291 288 289 286 285 284 284 284 283 284 284 282 282 284 284 283 284 284 283 281 279 279 279 278 278 278 277 276 275 275 275 275 274
290 295 294 293 292 293 292 293 292 293 292 290 289 287 287 285 284 285 284 284 284 283 282 282 284 283 284 283 283 280 278 278 278 278 277 276 277 276 277 276 276 275 275 275
289 297 294 293 292 293 292 291 291 290 289 289 289 287 286 284 284 282 282 283 283 283 283 283 283 283 282 282 280 279 277 277 277 276 276 276 275 275 282 282 282 282 281 279
295 296 295 293 293 292 291 291 291 289 289 287 287 286 285 283 282 284 282 283 283 283 283 283 282 281 280 281 279 278 277 277 278 277 275 275 275 274 273 276 282 282 281 281
297 296 293 293 292 291 291 291 291 288 287 287 286 285 285 284 283 282 282 283 282 282 282 281 280 278 279 279 278 277 278 281 275 275 274 274 274 274 273 273 272 272 277 279
296 296 295 293 290 289 289 288 287 286 286 285 285 284 283 282 281 281 282 281 281 279 279 279 278 278 279 279 278 277 276 275 275 274 274 275 274 273 273 273 272 271 273 276
292 292 291 290 289 288 288 287 286 285 285 284 283 282 281 281 280 280 280 280 279 277 277 277 277 277 279 278 277 277 277 281 277 274 274 273 273 273 273 272 271 271 272 272
291 287 284 283 286 287 287 288 288 287 286 284 281 281 280 279 279 279 278 278 277 277 277 277 277 278 278 278 277 276 274 276 279 273 273 273 273 272 272 271 271 271 271 274
293 294 294 292 289 289 288 288 288 287 285 283 282 281 280 280 278 277 277 277 276 276 277 277 277 278 278 277 276 275 274 273 274 273 273 273 273 273 272 272 272 271 272 273
292 293 293 293 291 291 289 288 287 286 284 283 281 281 281 279 278 277 276 276 275 274 275 277 282 278 277 279 276 273 272 273 273 272 273 274 272 272 271 271 271 271 272 272
290 292 293 292 292 292 289 287 285 284 284 283 281 280 278 278 277 276 276 275 275 275 276 278 277 276 276 278 277 272 272 272 272 272 272 272 271 271 271 273 273 272 271 272
288 289 290 291 289 289 288 286 285 284 283 283 281 279 278 278 278 277 275 275 275 279 277 280 276 276 276 276 273 272 271 271 271 270 270 270 270 270 271 271 271 272 272 272
287 286 287 288 287 286 286 286 286 283 282 281 280 279 278 277 276 276 277 276 276 283 277 276 276 279 277 277 272 271 271 270 270 270 270 270 270 270 270 270 270 269 269 268
286 287 287 286 285 284 284 283 283 282 281 280 279 279 279 278 278 277 275 277 278 280 275 276 280 281 279 272 272 271 270 269 269 269 270 270 270 270 268 265 267 267 266 267
285 285 285 285 283 282 281 281 280 280 280 280 280 280 279 278 276 277 279 281 281 280 277 278 279 279 275 270 270 269 269 269 269 269 269 273 270 267 265 266 266 267 267 268
282 281 280 280 280 279 279 278 278 279 279 278 279 279 279 279 278 277 278 278 282 279 277 281 279 277 270 269 269 269 269 269 269 265 265 264 264 263 265 266 266 267 268 266
281 281 281 281 280 279 278 279 278 278 278 277 277 278 278 278 279 277 277 279 278 279 274 273 271 270 270 269 270 270 269 269 268 267 268 266 265 265 266 266 266 267 267 266
277 282 278 278 278 278 278 278 277 277 279 278 277 277 278 277 277 277 278 275 273 272 270 270 270 271 269 269 270 269 269 268 270 268 266 264 265 264 266 266 266 267 267 267

GFSNGP_sfc_thetae_024.txt.gz
Theta_e
284 285 285 284 284 285 280 284 279 283 285 288 292 295 297 297 297 298 298 297 297 298 300 298 296 294 295 297 299 299 299 299 297 296 295 294 294 293 294 293 292 290 289 288
282 284 285 282 285 286 286 287 287 286 285 293 296 299 298 295 295 294 297 299 299 298 296 295 293 294 294 294 295 295 296 295 294 293 293 292 292 290 289 289 288 288 287 286
276 284 283 279 283 286 288 290 287 286 291 296 295 295 294 294 291 290 294 297 299 294 291 292 295 295 293 292 293 293 292 292 291 291 289 289 289 289 288 287 287 286 285 285
279 281 273 287 291 291 288 292 293 293 294 296 293 295 294 292 289 289 289 290 290 290 290 291 292 291 291 291 291 290 290 290 290 290 289 290 289 287 286 286 286 285 285 286
280 280 283 287 291 291 289 289 293 292 293 293 296 294 294 291 290 290 290 289 290 290 290 291 290 291 290 289 289 289 290 290 291 291 290 289 287 286 287 286 285 285 285 284
285 279 276 285 293 296 294 285 294 294 292 293 293 290 290 291 291 290 291 291 290 290 290 290 291 292 291 290 290 289 289 290 290 290 289 288 287 286 286 285 284 284 282 282
285 282 283 290 292 296 283 285 293 293 293 291 291 290 290 292 291 291 291 291 292 292 291 291 291 291 289 287 286 289 290 289 288 288 287 286 285 284 283 282 281 280 278 277
286 283 279 293 293 289 293 293 294 293 292 290 289 289 290 292 291 291 291 291 291 289 288 290 291 290 288 286 287 287 287 287 285 285 284 283 282 281 280 277 276 275 275 275
286 286 292 293 294 295 294 293 292 292 292 291 288 287 289 289 290 291 291 291 290 288 286 286 286 287 286 285 286 285 283 282 282 282 281 280 277 276 276 276 275 275 276 275
290 292 292 294 294 293 292 291 293 294 292 291 288 287 285 285 285 283 284 286 285 283 283 282 283 283 282 282 284 283 281 280 278 278 277 277 277 277 276 275 275 275 275 274
290 293 294 293 294 292 292 292 291 292 291 290 288 285 285 285 284 284 284 284 284 282 282 282 283 283 283 282 281 279 278 278 277 277 276 275 276 276 276 275 275 275 275 275
287 294 296 295 293 293 291 291 290 290 288 288 288 286 284 283 284 284 283 283 283 283 283 282 282 282 280 280 280 279 277 277 276 276 275 275 275 275 283 282 283 282 282 279
292 294 295 295 293 292 290 290 290 289 289 287 286 285 284 282 281 284 283 283 283 283 283 282 282 279 279 279 279 278 276 276 277 277 275 274 274 274 273 275 281 281 281 281
297 297 293 292 293 292 290 290 291 287 287 286 285 284 283 282 283 282 283 284 283 282 282 281 278 277 278 278 278 277 277 281 275 275 274 273 274 273 273 272 271 271 277 279
294 296 295 291 290 289 288 287 286 285 285 284 284 283 282 281 280 282 283 282 281 281 279 278 277 277 278 278 278 276 276 275 274 273 274 274 273 273 272 272 271 271 272 275
291 293 292 290 289 287 287 286 285 284 285 284 282 281 281 281 282 281 281 281 280 277 277 277 277 277 278 277 276 276 276 279 276 273 273 273 272 272 272 271 271 271 271 271
287 286 287 283 285 287 286 286 286 286 284 283 282 281 280 279 278 277 277 278 277 277 277 277 277 278 278 278 276 275 275 276 278 273 272 272 272 272 271 271 270 270 271 273
290 291 291 292 291 288 286 286 286 286 286 284 282 280 279 279 278 276 276 276 276 276 277 277 277 277 277 277 276 274 273 273 273 272 272 272 272 272 271 271 271 271 271 273
290 290 291 292 292 290 288 287 287 287 285 283 281 280 280 279 278 277 276 276 275 274 274 276 282 278 276 277 275 273 272 272 272 272 272 274 271 271 271 271 271 271 271 272
289 290 291 292 291 291 289 288 286 284 283 283 281 280 278 278 277 277 276 275 275 275 275 278 277 276 276 277 277 272 272 272 271 271 271 271 270 270 270 272 272 271 271 271
288 288 288 290 289 288 287 286 285 283 283 283 281 280 279 278 278 277 275 275 275 278 276 280 276 275 275 276 273 271 271 270 271 270 270 270 270 270 270 270 271 271 271 271
286 287 287 288 288 286 286 286 286 285 283 282 281 280 278 277 277 276 277 277 276 283 278 276 275 278 276 277 271 271 270 270 269 270 269 269 269 269 270 270 270 268 269 267
285 285 286 286 287 287 286 286 285 284 282 281 280 279 279 278 278 277 276 277 279 281 276 276 279 282 280 272 271 270 269 269 269 269 269 269 270 270 268 265 266 266 265 266
283 283 283 284 283 282 281 282 282 282 282 281 281 281 279 278 277 278 279 281 282 281 276 278 280 281 275 270 269 269 269 268 268 268 269 273 269 266 263 265 265 266 266 268
281 280 279 278 279 280 279 279 278 279 279 279 279 279 280 280 279 278 279 279 283 279 277 283 281 279 270 269 269 269 269 268 268 265 265 263 263 263 264 265 265 266 267 267
279 280 280 280 280 279 279 278 278 278 278 277 278 279 279 279 280 279 278 280 279 280 276 275 272 270 269 269 269 269 269 268 268 266 267 265 264 264 265 265 265 266 266 266
277 283 279 278 278 278 278 278 277 277 279 278 277 278 279 279 279 278 280 278 277 275 272 271 272 271 269 269 270 269 268 268 269 267 265 263 264 263 265 266 266 267 267 267

GFSNGP_sfc_thetae_027.txt.gz
Theta_e
283 285 284 283 284 284 279 282 278 281 282 287 291 293 294 298 297 296 293 294 298 299 299 300 295 294 294 294 296 297 296 295 295 298 298 299 296 295 295 294 292 290 290 289
278 284 284 282 284 285 285 285 284 285 284 292 293 293 297 296 294 291 290 292 296 298 297 294 293 292 292 291 291 292 292 291 294 294 293 292 291 290 290 290 290 290 289 288
277 282 283 279 283 284 285 287 286 282 288 292 294 296 294 294 291 288 290 290 290 289 290 293 294 293 291 291 292 290 290 291 291 291 290 289 290 290 289 288 288 287 287 288
279 280 273 284 289 289 287 289 289 290 292 294 296 295 294 291 289 289 289 289 289 289 290 291 291 291 292 291 290 290 289 289 290 290 289 290 289 289 287 287 286 286 285 285
279 280 281 285 289 289 288 288 292 292 294 294 296 292 290 291 291 289 290 290 290 290 291 291 291 291 290 288 290 290 289 290 291 291 290 289 287 286 287 286 286 286 286 285
284 279 275 284 292 294 293 284 293 293 293 292 292 287 289 291 290 290 291 291 291 291 291 291 291 292 289 288 288 287 288 289 289 290 288 287 287 287 287 286 285 286 285 284
284 282 282 289 291 295 282 285 292 293 293 291 289 290 289 291 291 291 291 292 292 291 291 291 291 290 287 287 285 288 289 289 288 289 288 287 287 286 285 284 283 281 279 278
285 283 278 293 294 288 292 292 293 292 291 291 289 289 289 292 290 290 291 290 290 288 288 290 291 289 286 286 288 288 287 286 286 286 287 285 283 281 280 279 277 276 275 275
285 286 292 294 292 294 293 292 291 291 292 291 289 288 289 289 289 290 290 290 289 287 285 286 288 289 286 286 286 285 283 282 282 281 281 279 278 276 276 276 275 275 276 274
288 291 292 294 294 293 292 291 292 293 292 290 289 288 286 289 286 285 287 285 286 285 283 282 283 283 283 283 283 282 280 278 277 277 276 276 277 277 275 275 274 275 275 274
288 291 293 293 294 294 293 292 291 291 291 290 289 286 284 286 285 285 284 284 284 282 281 281 282 282 281 281 279 278 277 277 276 276 275 275 276 275 276 274 275 275 275 275
286 291 292 293 296 294 292 291 291 290 288 288 288 285 284 282 285 284 283 283 283 283 282 281 282 280 278 279 278 277 276 276 276 275 275 276 276 276 284 283 283 283 282 278
292 294 296 296 294 293 291 290 290 290 289 287 286 284 283 282 281 285 283 284 283 283 283 282 280 278 278 278 278 277 276 276 277 276 274 274 274 273 272 275 282 281 281 281
296 294 292 293 293 292 291 290 291 288 287 287 285 284 283 282 282 282 283 284 283 283 282 281 279 277 277 278 277 276 277 281 275 274 273 273 273 272 272 272 271 271 276 279
292 292 292 293 291 289 288 287 286 286 285 284 284 283 282 281 280 283 284 283 282 281 280 278 277 276 277 278 278 276 275 274 274 273 273 274 273 272 272 271 270 270 272 275
289 289 290 291 292 288 287 286 285 284 284 283 282 282 281 281 283 282 282 282 281 279 277 277 277 276 277 277 276 275 276 279 276 274 273 272 272 272 271 270 270 270 270 271
284 283 283 282 283 287 286 286 286 285 284 283 283 282 281 281 281 281 280 280 280 277 277 278 277 278 278 277 276 275 275 276 278 273 272 272 272 271 271 270 270 270 270 272
286 288 289 288 288 289 288 286 286 285 284 285 283 282 279 278 278 278 278 277 276 276 277 277 278 278 278 277 276 274 274 273 273 272 272 272 272 271 270 270 270 270 270 272
288 289 289 289 290 290 289 287 285 285 285 284 283 281 280 280 278 277 276 276 276 274 274 276 282 278 276 277 275 273 272 271 272 271 271 274 271 270 270 270 270 270 270 271
288 289 289 290 290 291 290 288 287 286 285 284 282 280 278 277 277 276 276 276 276 276 275 277 277 276 275 277 277 272 271 271 271 271 271 270 270 270 270 272 272 271 270 271
286 287 287 289 289 288 287 287 285 283 283 283 282 280 278 277 277 277 276 276 276 278 276 281 276 275 275 276 273 271 270 270 270 270 270 269 269 269 269 270 270 271 270 271
284 285 286 287 288 287 287 286 285 283 283 283 282 280 278 276 276 276 277 278 276 282 278 276 275 277 276 279 271 270 270 269 269 269 269 269 269 269 269 269 269 268 268 267
283 284 284 284 284 286 287 287 286 285 284 283 281 279 279 278 278 277 276 277 278 281 277 276 278 281 281 272 271 270 269 269 269 268 269 269 269 269 267 264 265 266 265 266
281 282 282 282 283 283 283 283 284 284 283 282 282 281 280 278 277 278 280 281 282 282 276 277 281 283 280 270 269 269 269 269 268 268 269 273 269 266 263 264 265 266 266 267
280 280 279 280 280 280 279 279 279 280 281 281 281 281 280 281 280 278 278 280 283 280 277 282 284 283 271 269 269 269 269 269 268 265 265 263 263 263 264 264 265 265 266 266
278 279 280 280 279 279 279 279 278 278 278 278 278 279 279 280 280 279 279 280 280 279 277 278 276 273 270 270 270 270 270 269 269 267 267 265 264 264 265 265 265 266 266 266
279 282 280 279 279 279 278 278 277 277 279 278 277 279 279 280 280 279 280 279 278 277 275 274 274 273 270 270 270 270 269 269 270 267 266 264 264 264 265 266 266 267 267 267

GFSNGP_sfc_thetae_030.txt.gz
Theta_e
282 284 283 282 283 283 279 280 276 279 280 285 289 290 293 293 297 295 291 290 290 291 293 293 292 292 292 291 293 296 296 296 296 299 300 298 297 296 295 293 292 291 291 291
276 283 283 281 283 284 284 284 284 284 284 291 292 293 296 297 293 291 291 290 290 290 290 292 293 292 292 292 291 291 290 291 293 292 293 293 292 291 291 291 291 291 291 291
273 281 282 278 282 284 285 286 285 281 287 290 291 295 295 293 289 288 289 288 288 289 290 291 291 292 291 291 292 290 289 289 290 290 289 290 290 290 290 289 290 289 290 290
273 279 272 283 288 288 286 287 288 288 289 291 292 295 293 289 286 287 289 289 289 289 290 291 291 291 291 291 290 290 290 290 290 290 290 290 289 288 288 288 288 287 287 287
274 280 281 285 287 287 287 288 290 289 291 291 293 292 289 290 288 288 290 290 290 290 291 291 291 290 289 289 289 289 289 290 291 290 289 288 287 286 286 285 286 285 286 286
282 278 274 284 292 294 292 285 292 292 292 291 290 286 289 289 289 288 289 291 290 291 291 290 290 289 288 288 288 287 288 288 289 288 287 285 285 285 286 286 285 285 285 285
283 279 282 288 291 295 283 285 291 292 292 290 289 290 289 290 289 289 291 290 291 290 290 290 290 290 288 288 285 288 289 288 288 288 287 286 285 286 285 284 283 282 281 280
284 280 278 292 292 289 292 291 292 291 290 291 290 289 289 290 288 289 289 288 289 288 288 290 290 289 287 286 288 288 287 286 286 286 287 286 283 282 281 280 278 277 276 276
284 283 290 293 293 295 294 293 290 289 290 291 289 288 289 288 288 291 288 289 288 287 286 287 289 288 286 285 285 284 283 282 281 280 279 278 276 275 276 275 275 275 276 274
287 289 290 293 293 294 293 291 291 291 291 291 289 289 288 288 287 288 286 285 286 285 283 282 283 283 283 283 283 281 279 276 276 276 275 275 277 276 275 274 274 275 275 273
288 290 291 292 295 294 294 292 292 291 291 291 290 287 287 288 287 287 285 283 283 281 282 282 282 282 280 279 278 277 276 276 275 275 274 274 275 274 275 273 275 274 274 274
285 289 290 292 294 294 293 292 292 290 288 288 289 287 285 283 286 285 284 284 283 282 281 281 281 280 278 278 278 276 276 276 275 275 275 276 276 276 285 284 284 283 281 278
292 291 293 294 294 292 292 292 291 290 290 288 287 285 284 282 283 286 284 284 283 283 282 282 280 277 277 278 277 277 275 276 276 276 274 273 274 273 272 276 282 282 282 282
292 293 293 293 291 292 291 291 291 288 288 288 287 285 283 282 283 283 283 284 284 283 282 281 279 276 277 277 277 276 276 280 274 273 273 272 272 272 272 271 270 270 276 279
290 290 290 291 291 290 288 287 286 286 285 284 284 283 282 281 280 283 284 283 283 282 280 279 276 275 277 277 278 276 275 274 273 273 273 273 272 272 271 271 270 270 271 274
286 286 286 286 288 291 289 286 285 286 284 283 282 282 282 281 282 283 282 282 281 280 279 277 277 276 277 277 276 275 276 279 276 273 272 272 272 271 271 270 270 269 270 270
282 283 281 283 284 286 288 288 286 286 284 283 282 282 283 282 282 281 281 282 282 281 279 278 277 278 278 277 276 275 275 275 278 272 272 271 271 271 270 269 269 269 269 272
285 285 286 286 286 287 288 289 287 286 284 284 284 282 281 281 281 280 280 280 279 277 278 278 278 277 277 277 276 274 274 273 272 271 271 272 271 271 270 270 270 269 270 271
288 289 289 289 289 289 290 291 289 286 284 284 283 282 282 282 280 280 279 278 277 276 276 277 282 279 276 277 275 273 272 271 272 271 271 273 270 270 270 269 270 270 270 270
286 287 288 288 290 288 288 290 288 286 285 284 283 282 281 280 279 277 278 277 278 278 276 278 279 277 276 278 277 272 271 271 271 270 271 270 269 269 269 271 271 270 270 270
285 285 286 287 288 289 287 286 286 285 284 284 283 282 280 279 278 277 276 276 276 279 277 282 277 276 276 277 274 271 271 270 270 269 269 269 269 269 269 269 270 270 270 270
283 283 284 284 285 287 287 286 284 283 283 283 282 281 279 277 277 277 278 279 277 282 280 277 277 278 277 279 272 271 270 269 269 269 269 269 269 269 269 269 269 268 268 267
282 282 283 283 282 283 286 287 286 285 284 284 282 281 280 279 278 277 277 278 279 282 278 277 279 282 282 272 271 270 269 269 268 268 269 269 269 269 267 265 265 266 265 266
281 281 281 281 282 282 280 282 284 285 285 284 283 282 281 278 278 279 280 281 282 283 277 278 281 283 282 271 270 269 269 268 268 268 268 273 269 266 263 264 265 266 265 267
278 278 278 279 279 279 279 279 279 280 282 282 282 282 282 281 280 279 279 280 283 281 277 282 283 284 272 270 269 269 269 268 268 265 265 263 263 263 265 265 265 265 266 266
278 280 279 278 278 278 278 279 278 278 278 278 280 280 281 280 280 280 279 281 281 280 276 279 279 275 271 270 269 269 269 269 269 267 267 265 264 264 265 265 265 266 266 266
273 279 277 276 277 277 278 279 278 277 279 278 277 278 279 280 280 280 281 280 280 277 277 276 277 274 270 269 269 269 269 269 270 267 266 265 265 264 265 266 266 266 267 268

GFSNGP_sfc_thetae_033.txt.gz
Theta_e
283 284 284 284 284 283 280 281 279 281 281 286 289 290 292 294 296 294 292 291 290 290 291 293 293 293 294 293 293 293 294 294 295 298 299 298 296 296 296 296 294 294 293 292
277 284 284 282 284 284 284 284 283 284 284 292 293 292 294 295 292 291 290 290 290 290 291 291 291 292 292 292 292 292 291 291 292 293 293 293 292 292 292 292 292 292 291 292
274 282 282 279 282 284 285 285 286 282 287 290 290 293 294 293 290 288 289 290 290 289 290 291 291 291 291 291 292 291 290 291 291 291 291 291 291 291 290 290 291 291 291 292
275 279 273 283 288 288 286 287 288 288 289 291 291 293 295 291 289 288 289 289 289 290 290 291 291 291 291 291 291 291 291 291 291 290 290 290 289 289 289 289 289 288 289 289
275 276 281 284 286 286 286 288 290 289 290 291 293 293 291 291 289 289 289 290 291 291 291 291 290 290 290 289 289 289 288 289 289 289 288 287 287 287 287 286 286 285 286 285
282 277 274 284 292 294 293 287 294 291 291 292 292 289 291 290 290 289 291 291 291 291 291 290 289 289 288 288 288 287 288 288 288 288 287 285 285 285 286 286 285 286 285 285
283 280 281 288 293 295 286 287 293 293 293 292 290 292 291 290 290 291 291 290 291 291 291 290 290 290 288 287 285 288 289 288 288 288 287 286 285 285 285 284 284 283 283 283
283 280 277 291 291 290 294 293 294 293 292 292 291 289 289 290 289 290 289 289 289 289 290 290 291 289 287 286 288 288 288 287 287 287 287 286 285 283 282 281 280 279 279 279
283 283 289 292 294 295 295 294 293 291 292 292 291 289 290 289 289 290 289 289 289 287 287 289 289 288 285 284 285 284 283 281 280 280 279 279 279 279 279 279 278 278 278 277
286 289 290 293 295 294 294 293 292 292 292 292 291 290 289 289 289 290 288 287 287 286 283 282 283 284 284 284 283 280 279 278 279 278 278 278 279 279 278 278 277 277 277 276
286 289 291 291 294 294 294 293 292 292 292 292 291 289 289 289 290 289 288 285 284 283 283 282 282 281 281 281 280 279 278 278 278 277 277 277 277 277 278 277 278 277 276 277
286 290 291 291 294 294 293 292 293 292 290 290 291 289 288 288 289 288 286 285 284 283 282 282 281 280 279 280 279 278 278 278 278 278 279 279 280 280 285 284 284 283 282 280
291 292 293 294 294 293 290 291 291 291 290 290 289 288 286 284 285 288 286 285 284 283 283 282 281 279 279 279 279 278 278 278 279 278 277 277 277 277 277 278 282 282 282 281
291 291 291 292 290 290 290 290 291 289 289 289 289 286 285 284 285 284 284 285 285 283 282 281 280 278 279 279 279 278 278 280 277 276 275 275 275 274 274 274 273 273 276 279
288 289 290 289 288 289 291 288 287 287 286 286 285 284 283 282 282 283 284 285 283 282 281 280 279 277 278 279 279 278 277 276 276 275 275 275 274 274 273 273 273 273 273 275
286 286 286 286 285 286 287 289 286 287 286 285 284 283 282 282 282 284 284 283 282 280 280 279 279 278 278 279 277 277 277 279 277 275 275 274 274 273 273 272 272 272 272 272
282 282 280 281 284 284 285 288 289 288 286 284 283 283 282 282 283 282 282 283 283 281 280 280 279 279 279 278 277 277 277 278 277 274 273 273 273 273 272 272 272 272 272 273
284 284 286 287 286 286 286 288 289 289 286 286 283 282 283 282 282 281 281 282 281 280 280 280 279 279 278 278 277 276 276 275 274 273 273 273 273 272 272 272 272 271 272 273
285 287 288 288 289 289 287 288 290 290 288 285 284 283 283 283 282 281 281 281 280 278 278 279 282 280 278 278 277 275 274 273 273 272 273 275 272 272 272 271 271 272 272 272
284 287 287 287 289 290 288 288 288 287 286 285 284 283 282 282 281 280 280 280 281 280 279 279 281 278 277 280 279 274 273 273 272 272 272 272 271 271 271 272 273 272 272 272
283 284 285 285 285 287 288 287 286 286 285 285 283 282 282 281 280 279 278 278 278 280 278 282 278 277 278 279 276 273 273 272 272 271 271 271 271 271 271 271 271 271 271 271
282 283 283 283 283 284 286 287 286 284 284 283 283 282 280 279 279 279 280 280 278 283 281 279 278 279 279 280 274 273 272 271 271 271 270 270 270 270 270 271 270 271 270 270
282 282 282 282 281 282 284 285 286 285 284 283 283 282 281 280 280 278 277 279 279 282 279 278 280 282 283 274 273 272 271 271 270 270 270 270 270 270 270 270 269 270 269 269
280 281 281 281 281 281 280 280 280 283 285 284 284 283 282 280 279 280 280 282 282 283 278 279 282 284 282 273 272 271 271 270 269 270 270 273 271 270 269 268 268 269 268 269
278 278 277 277 278 278 278 278 278 279 281 282 283 283 282 282 282 280 280 281 283 282 279 283 284 284 274 272 271 271 270 270 270 269 269 268 268 268 268 268 268 268 268 269
276 277 277 277 276 276 277 278 277 278 278 278 279 281 281 282 281 281 280 281 282 281 278 280 281 277 274 272 271 271 270 270 271 271 270 269 268 267 268 268 268 268 269 269
271 278 275 274 275 275 275 280 277 276 278 277 277 278 280 281 280 280 281 281 281 279 277 278 279 277 273 272 271 271 270 271 272 270 270 268 267 267 268 268 268 268 269 269

GFSNGP_sfc_thetae_036.txt.gz
Theta_e
287 287 287 287 287 287 284 287 284 286 286 291 294 296 297 300 301 299 297 296 295 295 296 295 295 296 297 297 297 296 296 297 298 300 301 301 300 300 299 298 297 296 295 294
284 286 287 285 287 288 288 288 288 288 288 295 298 298 297 299 298 297 295 294 294 294 293 293 293 293 293 294 295 296 295 294 295 297 297 295 296 296 296 295 295 293 293 293
282 285 285 283 286 288 289 290 289 285 291 296 295 296 297 299 297 294 293 293 293 293 292 292 292 292 291 293 294 294 293 292 293 294 293 292 292 292 292 292 292 292 292 293
283 284 278 288 292 292 290 291 292 292 294 295 296 297 299 297 297 294 293 293 293 292 292 292 291 291 292 292 292 292 291 291 292 292 290 290 290 289 288 288 289 289 289 290
283 282 286 288 289 289 289 291 294 292 294 296 297 298 298 296 295 294 294 294 293 292 292 291 290 291 290 290 290 289 289 290 290 290 289 288 287 287 287 286 286 285 286 286
284 279 279 289 295 296 296 289 297 295 295 296 297 294 299 296 295 295 295 295 293 293 292 290 290 291 290 289 289 288 288 289 289 289 288 286 286 285 286 286 285 286 285 285
285 281 286 293 297 299 288 291 297 298 298 297 296 298 298 296 295 296 295 294 294 294 292 292 292 291 289 288 286 289 290 289 289 289 288 287 286 287 287 286 285 285 285 285
286 282 279 295 295 291 297 298 298 297 298 297 298 296 296 296 295 294 294 294 293 294 293 293 293 292 289 288 289 289 289 289 288 289 289 289 288 286 286 286 285 283 283 283
288 288 294 297 298 300 299 298 298 297 297 297 296 295 296 295 295 295 294 294 294 294 292 291 291 292 288 287 287 287 288 286 286 286 285 285 285 284 284 284 283 282 282 281
291 295 295 297 299 298 298 298 298 298 297 297 296 297 296 296 295 295 294 293 293 292 292 290 290 290 290 289 289 287 285 284 284 284 283 284 284 284 284 283 282 281 280 280
292 295 296 298 299 300 299 299 299 299 297 297 297 297 297 296 296 295 294 291 292 292 290 290 289 289 289 287 286 285 284 283 283 283 283 282 282 283 282 282 282 281 280 280
291 297 297 297 299 299 298 296 296 296 297 296 297 297 296 297 297 295 292 290 288 291 289 288 289 287 286 285 285 284 283 283 283 283 284 284 284 284 285 285 284 283 282 282
296 298 299 300 298 298 294 295 295 296 297 295 296 296 295 295 296 294 292 289 288 287 287 286 286 285 284 284 284 283 283 283 283 282 283 283 282 282 281 282 282 282 282 281
296 296 295 296 296 294 293 294 295 295 295 295 295 294 294 293 292 293 291 289 288 286 285 284 285 284 284 284 283 283 283 282 282 282 281 281 280 279 279 278 277 278 278 280
293 292 292 292 292 292 292 293 292 293 293 292 292 292 291 290 290 291 292 290 287 285 283 283 283 283 283 283 282 282 282 282 282 281 280 280 279 278 278 277 277 277 277 278
290 290 290 290 290 290 290 291 291 292 291 290 290 290 290 290 291 290 289 287 285 282 281 281 281 283 283 282 282 282 282 281 280 280 279 278 277 277 277 277 276 276 276 276
288 288 287 287 289 290 289 291 291 292 292 290 290 290 289 288 288 288 287 286 285 283 282 281 281 282 282 282 281 281 281 281 280 278 278 277 277 277 277 276 276 276 276 276
288 288 288 288 288 288 290 291 291 292 292 292 290 289 288 286 286 286 283 283 282 281 282 281 281 282 282 281 281 281 281 280 278 277 277 277 277 276 276 276 276 275 276 276
288 288 289 288 289 289 290 289 289 290 293 291 287 285 286 286 286 284 283 283 282 281 281 281 283 282 281 281 281 280 280 278 277 276 277 277 277 276 276 275 275 275 275 275
287 287 287 287 288 288 289 288 287 288 288 287 286 285 284 284 284 282 282 282 283 283 281 281 283 281 281 281 282 279 278 277 276 276 276 276 275 275 275 275 275 275 275 275
285 286 286 286 286 287 288 289 287 286 286 286 285 285 284 284 284 282 280 280 280 282 281 283 282 281 281 282 281 278 277 277 276 276 275 276 275 275 275 275 275 274 274 274
284 284 284 284 284 285 286 288 288 287 285 284 284 284 283 281 281 281 281 282 280 284 282 283 282 281 281 283 278 277 276 276 276 275 275 275 275 275 274 275 274 275 275 275
284 284 284 283 283 283 284 283 283 286 286 285 284 283 283 283 282 280 279 281 281 283 282 282 282 283 284 280 277 276 276 275 275 275 275 275 275 275 275 276 275 275 275 275
282 282 282 282 283 283 282 282 282 282 284 285 285 285 284 282 281 282 283 283 283 284 281 282 283 284 285 277 276 276 275 275 275 275 274 275 275 275 275 275 274 275 275 274
281 281 281 280 279 279 279 281 282 282 281 282 284 284 284 284 283 283 282 282 284 284 281 283 284 285 281 277 276 275 275 274 274 275 275 275 275 275 275 274 274 274 275 275
279 279 280 279 279 278 278 280 281 281 281 280 281 282 284 283 283 282 282 283 283 283 280 282 283 284 278 276 275 275 274 274 275 276 275 275 275 274 274 274 274 274 274 275
277 279 279 278 277 277 278 280 279 279 280 280 280 281 281 283 282 281 282 282 282 282 281 281 283 282 279 277 275 275 274 274 275 275 276 275 274 274 274 274 274 274 274 274

GFSNGP_sfc_thetae_039.txt.gz
Theta_e
289 289 290 289 288 289 287 288 286 289 288 292 295 297 300 300 302 301 300 299 298 297 298 297 296 295 295 296 297 298 298 298 298 300 300 300 300 300 299 299 298 298 296 295
285 289 289 286 289 290 289 289 289 290 289 296 298 299 298 300 301 299 298 297 297 297 295 294 293 293 293 294 295 296 296 296 297 297 297 296 296 296 296 295 296 296 295 294
284 287 287 283 287 289 290 291 291 287 292 297 296 297 298 299 300 298 297 296 295 295 293 292 292 292 292 293 294 294 293 293 294 294 293 293 293 292 292 292 292 292 293 293
284 285 278 289 294 293 291 292 293 293 295 297 297 299 299 301 300 298 296 296 295 294 292 292 292 292 292 292 292 292 292 293 293 292 292 291 290 290 289 289 288 288 287 288
283 283 287 289 291 291 290 291 295 294 295 296 299 299 300 300 299 298 298 297 295 294 293 291 291 292 291 290 290 290 289 289 291 291 289 289 288 288 288 287 286 286 286 286
285 280 280 290 296 297 297 290 298 297 296 298 299 294 298 298 298 297 297 297 294 294 292 291 291 292 290 289 289 288 289 289 290 289 288 287 287 286 287 287 286 286 284 285
284 282 286 294 299 300 288 291 299 299 299 299 297 299 300 299 298 298 298 297 296 295 293 292 293 292 289 289 287 289 290 290 290 290 289 288 287 287 287 286 285 285 285 285
286 283 280 297 298 293 298 300 301 300 299 298 299 298 298 298 297 297 297 296 297 296 294 293 293 292 290 289 290 291 291 290 290 290 291 290 288 287 288 287 285 284 284 284
289 288 296 298 299 301 301 299 300 301 299 298 298 298 298 297 297 297 297 297 297 297 295 295 294 294 291 290 291 291 290 289 289 288 287 287 286 285 285 285 284 283 282 282
291 294 296 297 300 301 301 300 300 300 300 299 297 299 298 298 298 297 297 297 297 296 294 293 294 293 293 292 292 290 287 285 285 285 285 285 285 285 284 284 283 281 280 280
292 296 297 298 301 301 300 301 300 301 300 299 299 299 299 298 298 298 298 297 296 296 296 294 294 293 293 292 288 286 285 285 284 284 284 283 284 284 283 282 282 281 281 280
291 298 298 299 301 302 301 300 298 297 298 300 299 298 299 299 300 299 298 296 294 294 294 293 293 292 291 289 288 286 284 284 284 284 285 285 285 284 285 285 284 283 283 282
298 301 301 302 302 301 299 298 298 297 297 298 299 298 299 298 300 300 298 294 291 291 292 291 291 290 289 287 287 286 284 284 284 283 284 284 283 283 281 282 283 282 282 281
301 300 298 298 298 297 296 296 296 297 297 297 298 298 298 297 298 298 296 294 292 291 290 288 287 286 287 286 286 285 284 285 284 283 283 282 281 280 280 278 278 278 279 279
297 296 295 295 294 294 295 295 294 295 296 296 296 296 295 294 295 295 297 295 292 290 288 286 284 284 286 285 284 284 283 283 283 282 281 281 280 279 278 277 277 277 278 279
294 293 293 293 293 293 293 294 293 294 295 295 294 293 294 294 294 295 296 294 288 286 285 283 282 283 283 284 284 284 283 283 282 281 280 279 278 278 277 277 276 276 277 277
291 290 290 290 291 292 292 293 293 293 294 294 294 293 291 291 292 292 292 292 290 288 285 283 282 282 283 284 284 283 282 282 282 279 278 278 278 277 277 276 276 276 276 277
291 291 291 291 290 289 289 291 293 292 292 295 295 292 290 289 289 290 290 289 287 284 282 282 282 282 282 283 283 282 282 282 280 278 278 277 277 277 276 276 276 276 276 277
291 290 290 289 289 289 289 290 289 290 291 292 293 290 290 289 288 287 286 284 283 282 281 282 284 283 281 282 283 282 281 280 278 277 277 278 278 276 276 276 276 276 276 276
289 289 289 289 289 288 287 289 289 287 288 288 289 287 286 286 285 284 284 283 284 284 282 282 283 283 282 282 284 281 280 279 277 277 277 277 276 276 276 276 275 276 276 276
288 288 288 287 287 288 288 290 290 288 287 287 286 286 285 286 285 284 282 282 283 285 283 285 284 283 282 282 283 280 279 278 277 276 276 277 276 275 275 275 275 275 275 275
286 286 286 286 286 286 286 286 286 288 288 285 285 285 284 284 283 282 283 283 282 286 284 284 284 283 282 284 281 279 278 277 277 276 276 275 275 275 275 275 275 276 276 276
285 285 285 285 284 284 285 285 284 284 285 286 285 284 283 284 284 282 280 283 283 285 282 283 284 284 284 283 279 278 277 277 276 275 275 275 275 275 275 276 277 277 276 276
284 284 283 283 283 282 281 283 283 283 283 284 286 285 285 284 284 284 285 285 284 285 282 283 284 284 285 280 278 277 277 276 276 275 275 277 275 275 276 276 276 276 276 275
282 282 282 281 281 279 279 280 283 283 283 283 283 285 285 284 283 284 284 283 285 285 283 285 285 285 283 279 278 277 276 276 275 276 275 276 276 276 276 276 275 275 275 275
280 280 280 280 279 279 279 280 280 281 282 281 282 282 283 284 284 283 283 284 283 285 282 283 283 284 282 279 277 276 276 275 276 276 276 276 276 276 276 275 275 275 275 275
280 280 280 279 279 279 279 280 280 280 281 281 280 283 282 282 283 283 282 283 283 283 282 282 284 284 281 278 277 276 275 275 276 277 277 277 276 276 275 275 275 274 274 274

GFSNGP_sfc_thetae_042.txt.gz
Theta_e
286 289 288 287 287 288 283 286 280 285 285 288 291 293 296 297 299 299 298 297 295 294 293 292 293 293 294 294 295 296 294 294 295 296 295 295 295 294 295 295 295 294 292 292
280 288 287 283 287 288 288 288 287 287 286 291 292 294 295 296 298 298 296 296 295 294 292 292 292 292 292 293 294 295 294 294 295 294 294 294 294 294 292 293 294 294 294 294
277 286 284 279 285 287 288 289 289 284 288 293 293 295 295 295 298 297 295 295 293 291 290 291 291 292 291 292 293 293 293 293 293 293 291 291 291 290 290 290 290 290 291 292
276 280 272 287 291 291 289 290 291 291 292 294 294 295 296 298 297 295 295 294 292 290 290 291 291 291 292 292 291 291 291 291 291 291 290 290 289 289 288 288 287 287 287 288
280 277 284 287 290 289 288 288 293 291 292 292 294 295 294 298 297 295 294 293 291 291 290 290 290 291 291 290 290 290 289 289 289 289 288 288 287 287 287 286 286 285 286 285
284 277 275 289 292 294 294 287 295 294 293 293 294 289 292 295 296 295 294 293 291 291 291 290 291 291 290 289 289 288 289 289 289 289 288 286 287 286 287 286 285 285 284 285
283 281 282 292 294 296 285 287 295 295 296 296 294 295 296 296 296 296 295 293 293 291 292 291 292 291 289 289 287 290 290 290 290 290 288 287 287 286 286 285 283 276 281 284
284 281 276 296 295 290 294 297 297 296 296 296 296 297 296 296 295 295 294 294 293 292 292 292 293 292 289 288 290 290 290 290 290 290 290 288 286 284 280 280 279 278 279 278
285 285 292 295 294 297 297 296 297 296 296 297 297 296 296 295 294 294 294 294 294 294 293 292 293 292 290 289 290 289 287 286 286 285 285 285 281 280 279 279 278 277 277 276
288 290 291 294 297 297 296 296 297 298 297 297 296 297 296 296 295 295 295 294 294 293 291 290 291 291 289 288 288 288 282 281 280 280 280 280 280 279 278 277 276 276 276 275
288 291 293 295 296 297 297 297 297 297 297 296 296 296 297 297 296 295 295 295 295 294 292 291 291 290 289 289 287 282 281 280 280 280 279 279 280 280 278 278 279 276 276 276
286 293 292 294 297 299 297 297 295 294 293 295 296 296 296 296 298 297 295 294 295 294 294 293 292 291 288 287 283 281 279 279 279 278 279 279 279 278 285 284 284 284 283 280
292 297 296 297 298 297 297 296 294 293 293 293 295 296 295 295 296 299 295 293 293 293 293 292 291 290 289 285 284 282 279 279 279 280 279 278 278 278 277 279 283 283 282 282
297 297 294 294 293 294 293 293 294 293 293 293 294 295 295 294 295 296 295 294 292 292 291 290 289 288 287 285 282 281 280 285 278 278 277 277 277 276 275 275 274 274 280 279
294 293 291 292 292 292 292 292 291 291 292 292 293 292 293 292 292 294 295 294 291 290 290 288 287 286 286 285 282 280 279 278 278 277 277 277 276 275 275 275 274 273 274 277
292 291 290 290 290 291 290 290 289 290 291 291 291 291 291 291 291 292 293 292 288 287 287 286 284 284 284 284 282 280 280 283 281 277 277 276 275 275 275 274 273 273 273 273
288 285 284 283 287 288 288 289 290 290 290 290 290 291 289 289 291 291 292 290 288 286 284 284 283 283 283 283 282 281 279 279 282 276 276 275 275 275 275 273 273 273 273 275
290 290 289 288 287 286 288 290 291 291 288 289 290 291 288 287 287 289 289 288 286 283 282 283 282 282 282 283 282 281 279 279 278 276 276 276 275 276 275 274 273 273 273 275
290 289 288 289 289 288 289 289 289 289 289 289 287 288 287 287 287 287 287 285 283 282 281 282 285 283 282 283 282 281 279 278 277 276 276 277 276 275 274 274 273 274 273 274
288 288 288 287 287 286 286 288 289 288 288 287 287 286 284 285 284 284 283 283 283 284 283 282 283 281 282 284 285 280 279 278 276 275 275 275 275 275 274 276 275 274 274 274
286 287 286 286 285 286 285 285 285 287 288 286 285 285 283 284 285 283 282 281 283 284 282 285 282 283 283 283 284 279 278 276 276 275 275 275 274 274 274 274 274 274 274 274
285 284 284 284 284 284 284 284 283 283 285 286 286 285 283 283 282 282 282 282 282 286 283 283 284 285 283 285 282 279 278 276 276 275 274 274 274 274 273 273 273 273 273 272
284 284 284 282 282 282 284 283 283 282 282 282 283 284 284 284 283 281 280 282 282 285 283 283 285 287 287 283 281 278 277 276 275 275 275 274 274 273 272 270 272 273 270 270
283 283 283 282 281 280 278 279 279 281 281 281 281 281 282 283 283 284 284 285 286 285 283 284 285 287 287 281 279 277 276 276 274 274 274 277 274 272 270 270 271 272 271 273
281 281 281 278 277 277 277 277 278 278 280 280 280 280 280 280 282 283 283 283 285 285 282 286 287 287 284 280 278 276 275 275 274 274 274 274 274 274 273 273 273 271 270 270
279 279 278 278 276 276 276 278 277 278 279 278 278 279 279 279 279 280 282 283 283 284 279 281 284 284 282 279 277 276 275 275 276 276 275 276 276 274 273 273 271 270 269 269
277 280 276 276 276 276 276 277 277 276 278 278 278 279 279 279 279 282 282 281 282 282 280 281 282 284 281 280 278 276 275 275 276 276 276 275 273 272 273 272 271 271 270 271

GFSNGP_sfc_thetae_045.txt.gz
Theta_e
285 288 287 286 286 288 284 286 282 285 283 286 290 290 292 296 297 297 296 295 295 292 290 290 290 292 294 294 295 295 293 294 294 294 293 292 292 292 292 293 294 295 293 294
277 286 286 283 286 287 288 287 286 286 285 291 291 293 294 295 297 296 295 294 293 292 291 290 290 291 292 293 293 294 293 293 294 293 293 292 292 292 292 292 293 292 292 293
274 284 282 278 283 285 286 289 289 284 289 291 292 293 294 294 297 296 294 294 292 290 289 290 290 292 291 292 293 293 292 292 292 292 291 291 291 290 290 289 289 289 290 291
275 279 271 283 289 289 287 289 290 290 290 292 293 295 295 295 296 294 294 293 291 289 288 289 291 291 292 292 291 290 290 290 291 291 290 290 289 289 288 288 287 287 287 288
276 278 281 285 288 288 286 286 291 290 291 292 294 293 291 296 296 294 294 292 290 289 288 290 291 291 291 290 290 289 289 289 289 289 289 288 288 287 287 286 285 285 286 286
282 277 275 287 289 292 293 284 293 293 292 291 293 286 290 294 294 293 292 291 289 288 289 290 290 291 290 289 289 288 288 289 289 289 288 287 286 285 286 286 285 285 284 279
282 279 282 289 292 294 284 286 294 293 293 292 291 292 294 294 294 293 292 291 290 289 289 290 289 291 289 289 287 290 290 290 289 289 288 287 286 286 285 279 276 280 282 283
281 280 275 293 293 288 293 294 294 295 295 295 295 295 294 294 293 293 291 292 291 289 291 292 291 291 289 288 290 290 290 290 290 288 288 287 285 283 279 278 277 277 277 277
283 282 289 294 293 295 296 296 294 294 295 296 295 295 295 294 294 293 293 292 292 291 291 292 292 291 289 289 290 290 287 286 286 286 286 285 282 281 278 278 277 276 277 275
286 288 290 292 295 295 295 295 297 296 296 296 296 296 296 296 295 294 294 293 293 292 291 291 292 292 290 290 288 287 284 282 279 278 278 278 278 278 277 276 275 276 275 275
286 289 291 293 294 295 295 295 295 296 295 295 296 296 296 296 296 295 295 294 294 293 292 291 291 290 289 288 287 285 280 279 278 279 277 278 280 277 277 277 278 275 276 276
285 290 290 291 294 296 295 295 295 294 293 294 295 295 295 295 296 296 295 294 294 294 293 292 292 291 289 289 286 281 279 278 278 277 277 278 278 278 285 284 284 284 284 280
291 294 294 294 294 296 295 294 293 293 292 291 292 294 294 294 294 297 294 294 294 294 294 294 293 292 291 290 285 281 279 278 278 280 278 277 278 277 276 279 284 283 282 282
296 295 293 293 292 292 292 292 293 291 292 292 292 292 293 293 293 294 294 294 293 293 292 293 292 291 290 287 283 281 279 284 278 278 277 277 277 276 275 274 274 274 280 280
291 292 292 291 290 290 291 291 290 290 290 291 291 291 291 291 291 293 294 293 292 291 290 290 289 289 287 286 284 282 281 280 278 277 277 277 276 275 275 275 274 274 274 277
292 291 289 289 289 290 289 288 287 288 289 289 289 289 289 289 290 291 293 291 289 288 287 288 287 288 286 285 283 282 281 283 281 277 277 275 275 275 274 274 274 274 274 274
288 285 284 283 287 286 286 287 288 288 289 288 287 288 289 288 288 288 290 292 291 290 287 286 285 284 284 284 283 282 281 282 284 277 276 276 275 275 274 274 273 273 273 275
288 288 288 289 287 287 288 290 290 290 288 287 286 286 287 286 286 286 287 288 288 286 285 284 283 283 283 283 283 282 281 281 281 278 277 276 275 275 274 274 274 273 274 275
290 288 288 289 289 289 288 289 289 289 289 288 287 286 285 285 285 285 285 286 285 285 284 283 286 284 282 283 283 282 281 280 279 277 277 278 277 275 274 274 274 274 274 274
288 288 288 286 286 285 284 285 286 287 286 286 286 286 285 285 284 283 283 284 285 285 284 282 284 283 282 284 285 281 280 280 279 277 276 276 275 275 274 276 274 274 274 274
286 287 286 285 284 284 284 283 282 282 284 286 286 285 283 284 283 282 282 282 284 285 284 284 282 281 282 284 285 282 281 280 278 277 276 276 275 275 274 273 274 274 274 274
285 284 284 283 282 282 283 282 282 281 281 281 282 285 284 284 283 282 282 281 282 286 283 282 282 283 283 286 284 281 280 279 278 276 275 275 275 274 274 274 274 273 273 272
284 284 283 282 280 280 281 279 280 281 280 279 280 281 282 283 284 282 282 283 282 284 283 282 284 286 286 285 282 281 279 278 277 276 276 275 275 275 274 274 273 273 273 273
283 283 282 282 281 278 277 278 278 280 280 280 279 279 280 281 281 281 284 285 286 286 284 283 285 287 288 282 281 280 279 278 276 275 275 278 274 274 274 274 274 273 274 275
282 282 281 279 279 278 276 276 276 277 279 279 279 279 278 278 280 281 282 283 284 285 283 285 287 287 285 281 280 279 278 277 275 274 274 275 275 275 274 273 274 274 274 273
280 279 279 278 277 276 276 277 277 277 278 277 278 279 279 278 278 281 281 282 282 284 281 280 283 284 281 280 279 278 277 276 277 277 276 275 276 276 275 275 274 273 273 272
279 280 278 277 277 276 276 277 276 276 277 277 276 278 278 278 277 279 282 280 278 279 281 281 282 284 280 280 278 278 277 276 277 276 276 275 274 274 274 273 273 272 272 272

GFSNGP_sfc_thetae_048.txt.gz
Theta_e
283 286 285 284 285 288 286 288 283 287 284 287 290 291 292 294 296 297 296 295 294 292 290 289 290 291 291 293 295 295 292 293 293 293 292 292 291 292 292 291 291 292 291 291
276 284 285 283 285 287 289 289 287 285 284 290 292 291 293 295 296 295 295 294 293 292 290 289 289 289 292 293 293 294 293 293 293 293 293 292 292 292 291 291 291 292 292 292
272 282 282 278 283 284 286 289 288 283 289 289 289 291 294 295 296 296 294 293 292 290 289 289 289 291 291 292 293 293 292 292 292 292 291 291 291 290 289 289 289 289 289 291
273 278 270 283 287 288 287 288 290 289 290 292 292 293 295 295 296 295 294 293 291 289 288 289 290 291 291 292 291 291 290 290 291 291 290 290 289 289 288 287 287 287 287 288
274 273 280 284 287 286 284 285 289 289 290 291 292 293 289 295 297 295 293 292 290 289 288 289 290 292 291 290 290 290 289 289 290 290 289 289 287 286 286 285 285 285 286 286
281 277 274 283 289 291 291 283 292 291 290 290 291 287 289 295 294 293 292 291 289 288 288 289 291 291 290 289 289 288 289 289 290 289 288 287 286 285 286 285 285 282 277 274
279 278 281 287 289 293 281 284 293 291 290 290 290 290 292 293 292 292 291 290 289 289 288 288 289 291 289 289 287 289 290 290 289 289 287 287 286 286 282 281 282 282 283 283
281 278 275 290 291 287 291 293 293 292 291 292 294 293 292 293 292 291 290 290 289 288 289 289 289 290 289 287 290 290 290 290 288 288 288 287 284 283 279 276 276 276 277 276
283 283 288 290 292 295 295 295 294 293 294 295 294 293 294 293 292 291 290 290 290 289 289 290 290 289 289 289 290 290 290 289 285 284 284 283 280 279 279 278 276 276 277 275
285 287 288 291 293 294 295 295 296 295 295 296 296 296 296 295 294 293 292 291 291 290 290 290 291 290 288 290 290 288 285 284 283 282 281 279 279 278 277 276 275 276 275 275
285 287 289 291 293 295 295 295 294 294 294 295 296 295 296 295 295 295 294 294 293 292 291 291 292 290 289 289 287 285 283 281 278 278 278 276 277 276 277 276 276 275 275 275
285 290 290 290 292 295 294 294 294 294 293 293 294 294 294 295 296 296 295 295 293 293 293 293 292 292 289 289 287 285 281 278 278 277 276 278 278 278 284 284 285 284 283 279
289 293 294 293 293 294 294 294 293 292 292 291 291 292 291 293 293 296 294 293 293 294 294 294 292 292 292 290 288 285 281 278 278 279 276 277 277 277 277 279 285 284 284 283
293 293 292 293 292 292 292 292 293 291 291 291 290 291 291 291 291 293 293 294 293 293 293 293 293 292 292 291 287 284 281 284 279 279 277 277 277 277 276 275 274 274 280 283
290 292 292 292 289 290 290 291 289 289 289 290 290 289 289 289 289 290 292 293 292 291 292 291 291 291 292 290 286 284 282 282 281 279 278 279 278 276 275 274 273 273 273 277
289 290 292 291 290 290 289 288 287 287 288 287 287 287 288 288 288 289 290 290 288 288 288 289 289 291 290 288 285 284 282 284 283 280 278 278 276 275 274 274 273 273 273 273
286 287 287 286 287 288 287 287 288 287 287 287 286 286 286 287 287 287 288 289 289 290 290 289 288 286 286 286 285 284 282 283 285 280 279 278 276 275 275 274 273 273 273 275
290 289 289 289 287 287 289 290 289 289 288 289 288 285 284 285 285 285 285 286 286 286 286 287 287 285 284 285 285 284 283 282 283 279 278 278 276 276 275 275 274 273 273 275
290 289 289 289 290 289 289 288 288 289 288 287 287 286 286 284 283 283 283 284 284 284 286 286 287 285 284 284 284 282 282 281 281 279 278 279 278 276 275 274 274 273 273 274
287 288 288 286 286 285 284 283 284 285 285 286 285 285 285 284 283 283 282 281 282 285 286 285 285 284 283 284 286 282 281 281 280 280 278 277 277 276 275 277 274 274 274 274
285 285 286 285 284 284 283 282 282 281 282 283 283 284 284 285 284 283 282 280 282 284 285 285 283 282 282 284 285 282 282 281 281 280 279 279 277 277 276 275 275 274 274 274
285 284 284 283 283 282 282 281 281 281 280 280 280 280 282 283 284 283 284 282 282 285 284 282 283 283 282 285 283 283 282 281 280 280 278 278 277 276 276 274 274 274 274 273
284 284 283 282 280 279 279 278 280 280 279 278 278 278 280 280 281 282 282 284 284 285 284 282 283 285 286 284 283 282 281 281 280 279 278 277 276 275 275 275 274 274 274 273
284 284 282 282 282 278 276 276 278 279 279 279 278 276 277 278 277 280 280 284 285 285 285 284 284 286 287 284 282 281 281 280 279 279 278 280 275 275 275 275 275 275 275 275
283 281 281 281 279 279 277 276 275 275 278 278 278 279 278 276 279 278 281 281 283 284 283 285 287 287 285 282 282 281 280 279 279 278 277 276 276 276 275 274 273 273 273 273
281 280 279 279 278 277 276 277 276 276 277 276 277 278 278 278 277 277 277 282 281 283 281 280 282 284 282 281 280 279 279 279 279 280 277 276 275 275 274 274 273 274 273 273
281 282 279 277 277 276 276 276 276 275 277 276 276 277 277 277 276 277 279 277 280 280 281 280 279 282 281 280 278 277 277 277 278 276 277 276 275 275 274 274 273 272 271 271

GFSNGP_sfc_thetae_051.txt.gz
Theta_e
282 285 284 284 285 288 287 288 283 286 284 288 289 289 289 291 295 295 295 294 293 292 291 290 290 291 291 292 293 295 293 291 291 292 292 292 292 293 292 290 290 290 290 292
277 283 284 283 284 286 288 289 288 288 286 291 293 289 290 292 295 296 295 295 294 292 291 289 289 289 291 292 293 294 294 293 293 293 293 292 292 292 292 291 291 292 292 291
272 281 281 278 282 283 285 288 289 286 290 290 290 290 292 293 295 295 296 295 293 292 291 289 288 290 290 292 293 293 292 292 292 292 291 291 291 290 289 289 290 289 290 291
271 277 269 281 285 287 285 288 290 290 289 291 291 292 292 294 294 295 295 294 292 290 289 289 290 290 290 291 291 291 291 291 291 291 290 290 289 288 288 288 287 288 288 287
273 272 278 282 285 285 283 284 288 289 291 291 291 291 291 293 295 296 296 292 291 290 289 289 289 289 289 290 290 290 289 290 290 290 289 289 287 286 286 286 286 285 286 283
278 276 272 281 288 290 288 281 290 289 289 288 289 286 289 293 294 293 292 291 290 288 288 288 289 289 290 289 289 289 289 289 290 290 289 287 286 285 286 286 284 280 277 274
282 279 280 286 288 291 279 282 292 292 290 289 289 290 291 293 292 291 291 290 289 289 288 289 289 290 289 289 287 289 290 290 290 289 287 287 286 286 285 283 283 280 279 276
281 280 275 288 289 285 289 292 293 293 290 290 291 292 292 292 290 290 289 289 289 288 288 289 290 289 288 288 289 290 290 289 288 288 288 287 285 282 278 277 276 277 276 276
282 282 289 288 291 293 294 294 293 293 293 293 293 292 292 291 290 290 289 289 289 289 288 289 289 289 288 288 288 289 289 288 285 287 287 285 281 278 278 277 276 276 277 275
284 286 287 289 291 293 294 294 294 295 295 295 294 293 293 293 292 291 291 290 290 289 288 288 289 289 289 289 289 289 288 285 283 282 283 280 281 280 278 276 275 276 275 275
284 287 288 290 291 292 295 295 294 294 294 294 296 295 296 296 295 295 293 293 291 291 290 290 291 289 288 288 288 285 284 283 282 282 282 278 277 276 277 275 276 275 275 275
284 289 286 288 291 293 293 294 294 294 292 292 294 295 293 294 295 295 294 294 293 292 292 292 292 291 290 289 287 285 283 282 280 278 277 277 277 278 283 283 286 286 283 279
285 290 289 291 293 292 292 293 293 293 293 292 290 292 290 292 292 295 293 293 293 293 294 294 293 292 292 290 289 286 284 281 279 280 277 277 278 278 277 280 286 286 285 285
285 285 285 292 290 292 293 292 294 291 291 291 290 290 289 290 289 291 292 293 293 293 293 293 293 292 293 291 289 287 285 286 279 279 277 277 278 277 277 276 276 276 281 284
284 286 288 290 292 291 290 290 289 288 288 289 289 289 289 288 288 289 290 291 291 291 291 291 291 291 294 292 289 288 285 284 283 281 280 279 278 277 277 275 274 273 273 277
287 287 288 290 291 291 290 288 287 287 287 287 286 286 286 287 288 288 288 288 288 288 288 289 290 291 292 292 290 288 286 286 284 281 280 280 279 277 275 274 273 273 273 272
285 285 287 285 288 289 288 289 288 287 287 286 285 285 284 285 286 286 287 287 288 288 288 287 289 288 288 288 287 287 285 284 286 281 280 280 279 278 277 274 274 273 273 275
290 289 287 288 288 288 289 289 289 288 287 287 288 287 285 284 283 283 283 284 284 285 286 286 286 287 287 286 287 286 284 284 285 281 280 279 278 278 276 275 275 274 274 275
289 287 287 287 288 289 289 288 288 288 287 287 287 286 285 285 284 282 281 281 282 282 284 285 287 286 284 285 286 284 284 284 284 283 281 283 280 277 276 276 275 275 274 274
287 288 287 286 285 285 283 283 284 283 284 284 285 284 284 284 284 283 283 282 281 282 283 283 285 285 284 284 288 283 283 283 283 282 280 280 280 278 277 278 276 275 275 275
285 285 285 284 283 284 283 282 282 281 281 282 282 283 283 284 284 282 281 282 281 282 285 286 283 283 283 283 286 282 283 282 282 281 281 282 279 279 277 276 276 276 275 275
285 284 283 283 282 282 281 280 281 281 280 280 280 280 279 279 281 282 283 281 282 287 285 283 282 284 283 285 283 281 282 282 282 282 281 281 280 279 278 276 275 275 275 275
284 284 284 283 281 280 280 279 280 281 280 279 278 278 278 278 279 280 280 282 283 285 285 284 285 286 286 282 282 283 282 282 281 281 280 280 280 279 278 277 276 276 276 275
283 284 283 283 282 281 278 277 278 279 279 280 278 277 276 275 275 279 278 283 283 284 283 284 286 287 287 284 282 281 282 281 281 281 280 282 279 278 276 276 277 276 275 276
283 283 281 280 280 279 279 278 277 276 278 278 278 279 277 275 275 276 277 281 282 282 282 284 286 286 284 284 283 281 280 280 280 280 279 279 279 277 277 276 275 274 273 272
282 282 282 280 280 279 277 277 277 277 277 276 276 277 277 277 276 276 276 280 280 281 280 282 278 282 282 282 281 281 279 278 280 281 279 279 278 276 275 275 274 273 273 273
282 284 281 280 278 277 277 276 277 277 277 276 276 277 276 276 276 276 278 274 277 280 280 281 278 279 281 278 280 279 278 277 279 277 277 276 275 275 274 274 274 273 272 271

GFSNGP_sfc_thetae_054.txt.gz
Theta_e
282 283 284 284 285 288 287 287 283 286 286 289 291 292 288 290 292 294 294 293 293 292 292 291 290 291 291 291 292 292 292 291 290 291 291 291 293 293 291 290 290 292 292 292
279 283 283 282 284 285 287 288 289 289 287 295 291 289 288 290 292 294 295 295 293 292 291 290 289 289 290 291 292 294 294 293 294 293 293 293 292 292 292 291 292 292 292 291
272 280 280 277 282 283 284 287 288 284 289 291 292 293 291 290 292 295 296 296 294 293 291 290 289 289 289 290 292 293 292 292 292 292 291 291 291 290 290 289 290 290 290 291
271 276 268 280 284 286 285 286 288 289 291 291 292 293 292 292 292 293 295 295 294 292 290 290 289 289 290 291 290 291 291 291 292 291 291 290 289 288 288 288 288 288 287 284
272 271 278 280 284 284 283 283 286 287 290 291 291 289 290 292 293 294 295 294 293 291 290 289 289 290 290 289 289 290 290 290 291 291 290 289 288 287 287 287 286 285 283 279
277 272 271 280 287 289 287 280 289 289 289 288 287 284 290 292 293 293 294 292 290 289 288 289 288 289 289 289 289 289 289 290 290 290 289 287 286 286 286 286 284 282 277 275
279 279 280 285 287 289 279 281 290 291 292 289 286 289 290 292 291 291 290 290 289 289 288 288 289 289 288 289 288 290 290 290 290 290 288 287 286 286 285 282 277 274 274 274
279 279 274 287 287 283 288 291 292 292 292 290 289 290 290 291 290 289 288 289 288 288 288 289 290 289 288 288 289 290 290 290 289 288 288 287 285 283 282 281 280 279 277 276
281 281 287 287 290 291 292 292 293 292 293 291 292 291 291 290 289 289 289 288 288 288 288 289 290 290 288 288 288 289 289 288 287 287 287 286 282 280 278 276 276 276 277 275
283 285 286 288 289 289 291 292 294 295 296 294 293 292 292 292 291 290 289 289 289 288 288 288 288 288 289 288 288 288 288 286 286 285 285 284 281 280 279 277 276 276 276 275
283 286 287 287 288 289 289 292 293 294 294 294 295 294 294 294 293 292 292 291 291 290 290 290 290 289 289 288 288 286 286 285 283 285 286 281 281 279 280 277 277 276 275 275
280 286 284 285 287 287 291 291 293 293 293 292 294 296 296 295 294 294 292 293 292 292 292 292 291 290 289 289 288 287 284 283 283 282 281 280 278 277 283 284 285 285 284 278
281 284 284 284 287 288 289 290 292 292 293 292 290 293 293 292 292 295 293 292 291 292 293 293 292 292 291 290 289 287 286 284 283 283 278 277 277 277 277 280 287 287 286 286
286 282 282 284 285 288 289 291 293 290 289 290 289 290 289 289 289 290 291 292 292 291 292 292 293 292 293 291 290 288 287 288 283 282 278 277 278 278 278 277 277 277 283 285
285 284 285 288 288 289 290 290 290 288 288 288 288 288 288 288 287 288 288 288 289 289 290 290 291 291 292 292 290 289 288 287 285 281 280 279 279 278 278 277 276 275 274 277
288 289 289 288 288 289 290 290 289 288 288 287 286 285 285 285 285 286 287 287 287 287 287 288 289 291 291 291 289 289 289 289 287 283 281 280 279 279 278 278 276 275 274 273
284 285 287 285 286 287 289 289 289 289 288 287 286 285 284 284 285 284 285 285 285 286 287 286 286 287 288 290 289 289 288 287 289 284 282 281 280 279 279 278 277 276 275 275
289 288 287 286 284 286 288 288 288 289 287 287 286 286 285 285 283 282 282 282 283 283 284 285 285 286 286 287 287 288 287 285 286 284 282 281 281 280 278 278 277 276 275 275
287 287 287 287 286 286 286 285 286 287 287 287 286 285 285 284 283 281 283 281 281 281 282 282 287 286 284 285 286 285 285 284 285 284 282 283 283 281 279 278 277 276 275 275
285 286 287 286 285 284 282 282 282 282 282 284 284 285 285 285 284 282 282 282 281 282 284 283 283 283 283 285 288 284 284 284 284 284 283 283 282 281 279 280 278 276 276 275
284 284 284 284 283 283 281 281 281 281 281 281 281 281 281 282 283 283 282 280 280 284 285 284 282 283 283 283 284 283 282 282 283 283 282 282 281 281 280 279 279 278 276 275
284 284 282 282 282 281 281 280 281 281 280 280 280 280 280 279 279 281 283 282 282 285 285 282 282 285 284 286 283 281 281 283 283 282 281 282 281 281 280 279 278 278 277 276
283 284 284 283 282 281 281 279 279 280 280 280 279 279 278 278 278 280 277 279 282 283 283 283 286 287 287 283 282 281 281 280 281 282 282 281 281 281 280 279 278 278 277 277
283 284 284 284 282 281 280 280 279 279 279 280 280 279 278 277 276 279 277 282 283 283 283 283 285 287 288 281 278 280 281 281 279 280 281 283 281 280 280 279 279 278 277 277
282 283 283 282 281 281 281 279 278 278 278 278 278 279 278 277 277 276 276 278 282 281 281 283 284 285 283 283 283 282 281 280 278 279 279 280 280 279 279 278 278 276 276 275
281 282 283 283 282 281 280 278 277 278 278 277 277 277 277 277 277 276 275 279 279 281 280 280 281 282 282 282 282 281 281 280 279 279 279 278 278 279 278 277 275 275 275 273
279 283 283 282 282 280 278 277 276 277 278 277 276 277 277 276 276 276 278 275 274 279 279 280 280 280 281 281 280 280 279 277 278 276 276 276 276 275 276 274 274 274 272 272

GFSNGP_sfc_thetae_057.txt.gz
Theta_e
283 284 286 285 286 288 286 287 283 286 285 290 292 292 293 292 292 294 295 295 296 296 295 295 294 294 294 294 294 294 294 293 293 293 293 294 294 293 293 293 293 293 293 293
278 283 284 283 284 285 287 288 288 288 287 294 296 294 294 293 291 293 295 297 297 296 295 294 293 293 293 293 294 294 294 294 294 294 294 294 294 293 293 293 293 293 292 292
275 281 281 278 283 284 285 287 288 285 290 293 292 293 294 295 294 292 295 297 296 296 295 294 293 293 292 293 294 294 294 294 294 293 293 292 292 291 291 291 291 291 291 291
273 277 270 281 284 286 285 286 288 289 291 292 292 294 294 295 294 293 294 296 297 296 294 294 292 292 292 293 292 293 293 293 293 292 292 291 290 289 289 290 289 289 288 288
274 273 278 281 285 284 283 284 287 287 289 290 291 290 291 295 294 294 295 297 298 297 295 293 292 292 292 291 291 292 291 292 292 292 291 290 288 288 288 288 287 286 285 284
278 273 272 280 287 289 288 281 289 289 290 290 289 285 291 293 293 294 294 295 294 293 291 291 291 291 291 290 290 290 291 291 292 291 290 288 288 287 288 287 286 284 282 281
278 276 280 285 287 289 279 282 290 292 292 291 287 290 291 292 293 293 292 292 291 291 291 291 291 291 290 289 288 291 292 291 291 291 289 288 287 287 286 285 283 281 281 280
280 277 274 287 288 284 287 291 292 292 293 292 291 290 292 292 291 290 290 290 290 290 289 290 291 290 289 289 291 291 291 290 290 289 289 288 286 285 284 283 282 282 282 281
281 281 286 287 287 288 289 288 290 290 293 295 293 293 293 292 291 290 290 289 289 290 289 289 290 291 289 290 290 290 290 289 288 288 287 287 285 283 282 280 280 280 281 280
283 285 285 287 288 287 285 285 289 292 293 295 293 294 294 293 292 290 290 289 289 289 288 288 290 290 291 290 290 290 289 288 287 287 286 285 284 283 281 280 279 279 279 279
282 284 285 286 286 285 286 286 290 292 291 293 294 295 295 294 293 292 291 291 290 290 290 289 290 290 290 289 289 288 288 287 287 287 287 284 283 282 281 281 281 280 279 279
278 283 283 283 285 286 285 285 289 288 289 292 293 294 295 295 295 294 293 292 292 292 292 292 291 290 290 290 289 288 287 286 286 286 285 284 282 282 286 286 286 286 285 280
282 285 286 286 286 285 283 287 288 289 289 291 292 293 293 294 294 295 293 292 292 292 293 293 292 291 291 290 290 288 287 286 286 285 284 284 282 281 280 281 287 287 287 287
288 287 284 286 286 289 289 289 290 290 290 290 290 290 290 290 290 291 292 292 292 292 292 293 293 292 293 291 290 289 288 289 286 287 284 283 281 280 280 279 279 281 286 287
287 287 287 289 290 289 290 289 288 288 289 289 288 289 289 288 288 288 288 289 289 290 290 291 291 292 293 292 290 290 288 287 287 286 284 283 281 280 280 280 279 279 278 280
287 287 288 287 287 287 287 288 288 290 289 289 288 287 287 286 286 286 287 287 287 287 288 288 289 291 292 292 290 290 289 289 289 285 283 283 281 280 280 279 279 279 278 278
283 283 285 285 285 283 285 288 289 289 289 288 288 287 286 285 285 284 284 284 284 285 286 286 287 287 288 290 289 289 289 289 290 286 284 283 281 280 280 280 280 279 279 279
286 287 286 286 284 284 286 287 286 286 286 285 285 286 285 284 284 283 282 282 283 283 283 282 284 286 286 287 288 288 288 288 289 287 285 283 283 282 281 280 279 278 278 278
286 286 285 286 286 284 284 283 283 284 285 285 286 285 286 285 283 283 282 282 282 281 282 282 286 285 285 286 287 286 287 286 286 286 285 285 284 282 281 281 281 280 279 278
285 285 285 285 285 284 282 282 282 282 282 282 283 284 284 284 284 284 283 280 281 283 285 284 284 284 284 285 288 286 286 285 284 285 284 283 283 283 282 282 281 280 280 279
282 282 283 283 282 283 282 280 280 281 281 281 281 280 280 281 281 282 283 282 282 284 285 285 284 283 284 285 285 284 284 284 283 284 283 284 283 284 282 281 281 280 279 279
280 281 281 282 283 282 283 281 280 281 281 281 281 280 280 279 279 281 282 280 281 284 284 284 284 286 285 287 283 283 283 283 283 283 283 283 282 282 282 281 280 280 280 279
280 280 284 282 283 282 282 281 279 280 280 280 280 280 279 279 278 279 277 279 282 283 283 282 285 287 287 283 280 279 279 282 282 282 282 282 282 282 282 281 281 280 280 279
279 283 283 284 282 281 281 281 280 280 280 280 280 280 279 279 279 279 279 280 282 282 282 283 284 286 286 283 282 281 278 280 282 282 281 283 281 281 281 281 281 280 280 281
277 277 280 281 281 281 281 280 279 278 279 279 279 279 279 279 278 278 278 279 281 281 281 282 284 284 282 283 283 283 282 282 281 280 280 279 279 279 279 279 280 280 279 279
276 277 279 280 282 282 282 280 279 279 278 278 278 278 278 278 278 278 277 279 278 280 280 280 281 281 281 281 282 281 281 280 281 280 280 279 278 278 278 278 278 280 279 277
274 280 278 281 280 281 280 280 278 278 278 278 278 278 278 277 277 277 278 276 276 277 278 279 280 280 280 280 280 280 279 278 278 277 277 277 277 277 277 277 277 276 276 275

GFSNGP_sfc_thetae_060.txt.gz
Theta_e
287 289 290 289 290 291 289 290 286 289 290 294 297 298 299 301 301 300 300 302 304 305 305 305 303 303 302 302 301 301 300 299 298 299 299 298 298 298 298 298 298 297 295 295
284 287 287 286 289 291 291 291 291 291 290 297 299 300 299 300 300 300 300 301 303 305 305 304 304 303 302 301 300 300 299 299 299 298 298 298 297 295 295 295 294 294 294 294
283 284 285 282 286 288 289 292 292 287 292 297 296 296 298 299 299 299 301 302 302 303 304 304 304 303 301 300 300 299 299 299 298 297 296 295 295 293 293 293 293 293 293 293
283 283 278 285 289 290 289 290 292 293 294 296 297 299 299 300 299 300 301 302 302 304 305 305 304 302 301 299 298 298 298 298 297 296 294 294 292 291 291 291 291 291 291 292
282 282 284 287 289 289 288 290 293 293 296 298 299 298 299 300 299 299 301 304 302 304 305 305 302 300 298 297 297 296 296 296 296 295 293 291 290 290 290 290 289 289 289 289
284 279 277 287 292 294 293 286 294 295 295 296 297 292 296 299 299 299 301 301 301 303 303 302 300 299 297 296 296 295 295 295 295 294 292 290 290 288 289 289 287 288 286 287
284 282 285 290 292 293 284 286 293 294 295 295 294 297 300 299 299 299 298 298 298 300 300 300 298 298 296 295 293 295 296 295 294 293 292 290 289 288 288 287 286 286 286 285
285 282 279 292 293 288 289 291 291 291 292 293 296 298 299 298 298 297 297 295 296 297 297 297 297 297 295 294 295 295 295 294 293 292 291 289 288 287 287 286 286 286 285 286
287 287 291 292 292 292 289 288 289 288 291 293 293 296 299 298 298 297 295 295 296 297 295 296 296 296 294 295 294 294 292 291 291 290 289 288 287 286 285 286 286 285 284 284
288 289 288 289 292 291 291 289 290 290 291 293 290 292 297 299 298 297 295 294 295 295 295 294 295 295 295 295 294 292 292 291 290 289 288 287 287 286 286 285 285 284 284 283
286 288 288 290 292 290 290 290 289 290 292 291 291 291 294 298 298 297 296 295 295 295 294 294 294 294 294 294 293 292 292 290 288 288 288 286 286 286 286 286 286 284 283 283
282 287 285 287 289 291 289 289 290 290 290 292 293 292 294 297 299 297 297 294 294 294 294 294 292 293 292 292 291 291 289 289 289 288 289 287 286 286 288 287 287 287 286 284
285 288 287 289 290 290 288 289 290 290 291 290 292 293 295 297 299 299 298 296 296 296 297 297 295 294 292 291 290 289 289 289 289 289 288 287 285 286 284 286 288 288 288 288
289 288 285 287 286 289 290 291 291 290 290 291 292 294 294 295 296 295 295 296 298 298 297 297 297 296 295 292 291 290 289 290 289 289 288 288 287 286 285 284 282 284 287 288
288 288 287 288 289 289 289 289 287 288 290 292 294 292 293 293 293 293 292 293 292 293 295 296 296 297 298 295 291 290 289 289 288 289 289 289 288 286 284 283 282 282 282 285
288 287 287 287 287 287 286 286 287 288 289 291 292 291 289 289 289 290 291 291 291 292 293 292 294 296 297 296 294 292 291 290 290 287 286 286 285 284 284 283 282 282 282 281
283 283 284 284 285 285 284 285 287 287 287 287 287 288 287 286 287 288 288 288 288 288 289 288 289 291 292 295 295 293 293 292 291 288 286 286 284 283 282 281 281 281 281 282
287 286 286 285 284 284 284 285 285 284 285 286 286 286 286 285 285 285 285 286 287 286 286 286 287 289 290 291 293 292 291 290 290 289 287 285 285 284 283 282 282 281 280 280
288 286 286 285 285 285 284 284 283 284 285 284 284 285 285 285 285 285 286 285 285 285 286 286 286 287 288 289 290 291 289 289 288 288 287 287 286 284 283 282 283 282 282 281
285 286 286 286 286 286 284 285 282 283 284 284 283 283 283 283 284 285 285 283 283 284 286 286 286 285 285 286 288 289 288 287 286 286 286 285 285 284 284 284 283 283 282 282
283 283 283 285 285 286 285 284 282 282 283 283 282 281 281 282 282 283 284 284 282 284 285 285 286 286 287 287 286 287 287 287 286 286 286 286 285 285 285 285 284 284 283 283
282 282 282 283 284 284 286 285 283 281 282 282 282 282 281 281 281 282 282 281 283 284 284 284 284 286 287 287 287 286 287 286 285 285 285 285 285 285 285 285 284 284 284 283
282 282 282 284 284 285 285 285 283 281 281 281 281 281 281 282 281 281 280 282 283 283 283 283 285 287 287 285 285 286 285 285 285 285 285 284 284 284 284 284 284 284 284 283
281 281 281 284 285 284 283 284 283 282 281 281 281 281 281 280 281 282 282 281 282 283 282 283 284 285 285 285 284 284 283 284 285 285 284 284 284 284 283 283 283 284 283 283
279 279 279 280 281 282 284 284 283 281 280 280 281 281 281 281 280 281 281 280 281 282 282 282 283 283 283 283 283 283 283 283 283 283 283 283 283 283 283 283 283 283 283 283
278 279 280 281 282 282 283 284 282 282 281 280 280 281 280 280 280 280 280 280 280 281 281 281 282 282 281 282 282 282 282 282 282 282 282 282 282 282 282 282 282 282 282 283
279 281 280 281 282 283 283 283 282 281 282 280 279 281 281 279 279 279 279 278 279 279 280 280 280 280 281 281 281 281 280 281 280 281 281 281 281 281 281 281 281 281 281 279

GFSNGP_sfc_thetae_063.txt.gz
Theta_e
289 291 292 291 291 292 290 291 287 290 290 294 297 299 300 301 301 301 302 303 303 306 307 308 307 307 306 305 304 304 302 301 301 301 301 301 300 300 300 300 300 299 297 297
286 289 289 287 291 292 292 292 292 292 291 298 300 300 299 299 300 300 301 302 304 305 307 308 307 306 306 305 304 304 302 302 302 300 300 299 299 298 297 297 296 296 295 295
285 287 286 283 288 289 291 293 292 288 293 297 296 297 299 301 301 300 301 303 303 305 306 308 308 308 306 305 304 302 302 301 301 300 299 298 298 296 295 294 294 294 294 294
285 285 278 286 291 291 289 291 293 293 295 297 298 300 301 303 300 299 300 301 304 304 306 307 309 308 307 305 303 301 301 300 300 299 297 296 295 293 293 293 292 292 292 293
284 283 286 288 290 290 289 289 295 294 295 296 299 300 299 303 303 300 300 301 303 306 305 307 307 308 305 302 301 300 299 299 299 298 296 295 293 292 291 291 290 289 291 291
285 280 278 288 292 295 294 286 293 294 294 294 296 292 296 302 302 301 301 301 302 304 304 305 307 306 302 300 299 298 298 298 298 297 295 293 292 289 290 289 287 288 287 288
284 282 286 291 293 295 284 286 292 292 292 292 291 294 296 301 302 302 301 301 300 302 303 304 305 303 301 300 298 299 298 298 297 296 294 293 290 289 289 287 286 287 286 286
285 282 279 293 294 288 290 292 291 291 291 290 292 294 295 296 301 302 300 299 299 300 300 301 301 300 299 298 299 298 297 296 295 294 293 291 289 287 287 286 286 286 286 286
288 287 293 293 293 293 292 291 291 291 291 291 291 292 293 294 297 302 300 299 298 299 298 298 299 299 298 298 297 296 295 294 294 293 292 290 288 287 286 286 286 287 285 284
289 291 292 291 294 293 293 291 292 292 291 291 291 292 292 293 295 300 301 299 298 297 297 297 298 298 299 298 297 295 294 293 292 290 289 289 288 287 286 285 286 287 284 283
287 290 290 292 294 293 292 292 292 293 292 292 292 292 292 293 294 298 301 299 297 297 297 297 297 297 297 296 295 294 293 292 290 290 289 287 287 286 286 288 289 286 285 284
284 289 288 289 291 292 290 290 291 290 290 291 291 291 293 293 295 298 301 298 296 295 296 296 296 295 294 295 293 292 291 291 289 288 289 287 286 286 290 291 290 289 289 286
287 290 289 290 291 291 289 289 290 290 290 289 290 291 292 293 295 298 300 299 295 295 295 297 297 295 295 294 293 291 289 288 288 288 288 287 286 286 286 288 289 288 288 288
291 290 287 289 287 290 289 290 291 290 291 291 292 293 293 294 295 296 298 300 300 299 298 299 299 298 297 294 292 291 290 291 288 288 288 288 287 287 287 284 283 284 289 289
290 290 289 289 289 288 289 289 287 287 288 289 291 292 293 293 293 294 295 295 294 294 295 298 298 298 300 296 292 291 290 289 289 289 288 288 287 287 288 285 284 283 284 286
288 287 287 286 286 287 286 286 284 285 287 287 288 289 289 290 290 290 290 291 291 292 295 294 294 297 298 298 294 292 291 290 290 288 288 288 287 286 285 285 284 284 282 282
284 283 284 284 284 284 285 286 285 285 285 285 285 285 286 287 287 287 288 288 288 289 290 289 290 290 292 294 295 293 292 291 291 289 287 287 286 285 285 284 283 282 282 282
288 288 288 287 285 284 285 286 286 286 284 284 285 285 285 286 286 286 286 286 285 287 286 287 287 287 289 291 292 293 292 291 290 289 287 286 286 285 284 284 283 283 283 282
287 286 287 286 287 286 285 285 285 285 283 284 284 284 285 285 285 285 286 285 285 285 286 287 287 286 287 288 289 291 290 289 288 288 287 288 286 285 284 284 283 283 283 282
285 285 285 285 286 286 286 287 286 286 286 284 284 283 283 284 284 284 284 284 284 284 286 286 286 286 285 286 287 290 289 287 287 286 286 286 285 285 284 284 284 284 284 284
283 283 283 283 283 286 287 288 287 285 285 284 283 282 282 283 283 282 283 284 283 284 285 285 285 286 287 287 287 286 287 287 286 286 285 286 285 286 285 285 285 284 284 284
283 283 282 282 283 284 287 287 287 286 284 282 282 282 282 282 283 282 284 282 283 284 284 284 284 286 287 288 287 286 287 286 286 286 285 285 285 285 285 285 284 284 284 284
283 283 283 282 282 283 285 285 286 286 284 282 282 282 281 283 283 280 281 283 283 284 283 284 285 286 286 286 284 285 286 285 286 286 285 285 285 284 284 285 284 284 284 284
283 282 281 282 282 282 281 284 285 286 284 284 283 282 281 281 282 283 283 283 282 283 282 283 284 285 285 284 284 284 284 284 285 284 284 284 284 284 284 283 283 283 283 283
281 280 280 280 281 282 283 284 284 285 284 283 282 283 282 282 281 282 281 281 282 282 282 282 283 283 283 283 283 283 283 283 283 283 283 284 283 283 283 282 282 282 282 282
281 281 281 281 281 282 283 283 282 284 284 282 282 282 282 282 281 281 281 281 281 281 281 281 281 282 282 282 282 282 282 282 282 282 282 283 282 282 282 282 282 282 282 282
282 283 282 283 283 282 281 282 282 283 284 283 281 282 281 281 280 280 280 280 279 280 280 280 280 280 281 281 281 281 280 280 281 280 281 281 281 281 281 281 281 281 281 280

GFSNGP_sfc_thetae_066.txt.gz
Theta_e
287 290 290 289 289 290 286 288 282 286 287 290 292 293 293 295 296 297 297 298 298 299 301 301 301 301 301 301 300 299 298 298 297 297 297 298 298 297 298 297 296 296 295 295
280 287 287 283 288 289 290 290 291 291 289 294 295 294 295 296 297 297 298 299 299 299 301 302 301 301 301 300 299 299 298 298 298 297 296 296 295 295 294 294 294 294 295 295
280 284 283 278 285 287 289 290 289 286 289 292 294 296 296 296 297 295 295 297 297 298 299 301 302 303 301 300 300 299 298 298 298 297 296 295 296 296 292 291 293 293 293 294
277 279 271 283 288 289 288 290 290 289 292 294 294 296 296 297 296 296 296 296 297 298 298 300 303 302 302 301 299 298 297 297 297 296 295 294 295 294 291 293 292 292 292 292
278 277 282 285 288 288 287 288 291 290 292 293 294 293 294 297 296 297 296 297 297 298 298 298 300 302 301 299 298 297 296 296 296 295 293 293 293 290 291 291 290 290 291 290
280 275 274 285 289 292 291 283 290 290 289 289 290 285 289 294 295 298 298 297 297 296 297 298 298 301 299 297 296 295 296 296 295 294 293 293 292 289 290 290 288 288 287 287
280 277 282 288 291 292 280 280 289 289 288 287 285 287 290 293 293 295 299 297 297 296 296 297 299 298 297 295 293 296 296 295 294 293 293 292 288 288 289 288 287 286 286 285
281 278 274 290 290 284 285 289 289 288 288 287 288 289 290 292 291 292 294 297 296 294 295 296 297 297 295 294 296 296 295 294 293 292 293 291 289 288 287 286 285 285 285 283
284 283 288 288 289 289 289 287 288 287 288 289 288 288 290 291 291 291 292 297 296 294 295 294 295 295 294 294 294 294 293 291 291 293 291 290 288 287 286 286 285 285 285 282
285 286 288 288 290 290 289 288 289 290 290 289 288 290 290 291 291 291 292 293 296 294 293 293 294 294 295 294 294 293 291 290 292 291 290 289 288 287 286 285 285 285 284 281
283 285 286 289 288 288 289 289 289 290 289 289 289 289 289 289 290 291 292 293 296 294 295 294 293 293 294 293 293 291 290 289 290 290 290 287 287 287 286 287 288 286 284 282
280 285 284 286 288 289 288 288 289 289 288 290 289 289 290 289 290 291 292 293 295 295 294 295 295 294 293 293 292 292 290 289 289 288 288 287 286 285 290 290 291 292 291 285
283 286 287 288 288 289 288 288 289 289 288 288 289 290 291 291 292 294 293 294 296 295 295 296 295 294 294 294 293 292 290 289 289 288 287 285 285 285 284 287 292 291 290 289
288 287 285 286 284 287 287 288 289 289 288 288 289 290 289 290 292 292 293 293 294 294 295 296 297 296 295 293 292 292 291 291 288 288 288 287 286 285 286 285 284 284 289 288
285 286 285 285 285 285 286 286 285 285 286 286 287 287 288 287 286 288 291 291 291 292 293 293 295 297 297 294 291 289 290 289 289 289 288 288 287 286 285 285 283 282 282 286
285 284 284 283 283 283 283 283 284 284 285 285 285 285 285 285 286 287 289 290 288 289 290 290 291 292 293 295 292 291 291 290 291 288 288 288 286 286 285 285 284 283 281 282
278 278 281 279 282 282 282 283 284 285 285 285 285 283 283 284 285 286 286 287 287 287 288 287 287 287 289 289 293 292 291 291 292 289 288 288 287 286 286 285 285 284 284 283
284 284 284 283 281 282 283 284 284 285 284 284 284 282 283 282 282 283 284 285 285 286 286 285 286 286 286 287 288 291 292 290 290 289 288 287 287 287 286 285 285 284 283 283
284 283 283 283 283 283 282 282 283 285 285 285 282 280 280 281 282 284 283 283 284 285 286 286 286 285 284 285 288 289 289 289 289 289 287 288 287 286 285 285 284 284 284 284
283 283 283 283 283 283 281 283 285 286 287 286 285 282 281 280 281 281 281 281 283 284 286 285 285 284 285 285 288 287 288 287 287 287 287 286 286 286 285 285 284 284 283 283
278 278 279 280 280 282 282 282 283 284 286 286 284 281 281 281 281 280 279 281 283 283 284 285 284 284 285 286 287 285 285 285 285 285 285 286 285 285 284 284 284 284 284 284
278 277 277 277 279 280 281 281 282 283 284 284 284 281 281 280 281 281 282 281 282 284 283 283 283 284 286 288 285 284 284 284 284 284 284 284 284 284 284 284 284 284 283 283
278 278 277 276 277 278 279 279 281 281 283 284 283 282 281 281 282 281 279 281 281 282 283 282 284 286 287 284 283 283 283 283 283 283 283 283 283 283 283 282 280 278 278 282
278 279 277 276 275 275 276 279 279 281 283 284 284 283 282 280 280 283 283 284 283 282 282 282 283 285 285 283 283 283 282 282 283 283 282 284 282 282 278 279 281 282 281 282
277 276 273 274 274 277 277 279 278 279 281 283 283 283 282 282 280 281 281 281 282 282 280 282 283 283 282 282 282 282 282 282 282 282 281 282 281 281 281 280 280 281 281 281
277 278 278 277 277 278 279 279 278 279 280 282 283 282 282 281 281 281 280 281 281 281 279 279 279 280 280 281 281 281 280 280 281 280 281 280 280 280 280 280 280 280 280 280
276 282 277 277 279 279 279 279 277 278 280 281 281 281 281 281 280 280 280 279 279 279 278 279 279 279 278 278 279 279 279 279 280 279 279 279 279 279 279 279 279 279 279 279

GFSNGP_sfc_thetae_069.txt.gz
Theta_e
286 288 288 287 288 289 285 286 281 285 285 288 289 290 291 293 296 296 295 296 296 295 296 298 298 299 300 299 298 298 298 297 297 297 297 296 296 296 296 296 295 295 294 294
279 287 286 283 287 287 289 289 289 288 287 291 292 294 294 294 295 294 294 295 295 296 296 297 298 299 300 299 298 298 297 297 297 296 295 295 294 294 293 293 292 293 293 294
276 282 281 277 283 286 287 288 288 285 288 291 292 294 293 293 295 294 295 295 295 295 295 295 297 301 300 300 299 297 297 297 296 295 295 294 294 293 291 290 290 290 292 294
274 278 270 281 286 288 288 289 289 289 290 291 291 291 294 293 292 293 295 295 295 295 295 296 296 299 301 300 299 297 296 296 296 295 294 293 293 292 293 289 289 289 291 293
276 274 280 283 286 286 285 284 288 288 288 289 289 290 290 292 293 292 293 295 296 295 295 295 296 297 299 299 298 297 296 296 295 295 293 292 291 290 291 288 288 290 291 291
278 274 274 283 288 291 290 282 288 288 286 286 287 283 287 289 291 292 292 293 295 295 295 294 295 297 298 298 297 296 296 295 295 294 293 290 290 291 289 289 289 289 287 288
278 275 280 287 289 290 278 278 287 287 286 286 283 284 287 289 290 291 291 291 293 295 293 294 295 296 295 294 294 295 296 295 294 293 291 290 290 290 288 288 288 287 286 286
279 276 274 287 288 283 284 286 288 288 287 286 287 287 287 290 290 291 290 291 292 294 293 295 295 295 294 294 294 295 294 293 292 291 292 290 290 288 288 287 287 286 286 285
281 281 286 288 286 286 287 285 286 285 287 287 287 287 288 289 289 290 291 291 292 292 293 293 293 293 293 293 294 293 292 291 291 290 291 291 289 288 287 287 286 285 285 284
285 285 285 285 286 287 287 286 287 287 287 287 287 289 289 289 289 290 290 290 291 291 292 292 293 293 293 293 293 292 290 289 289 289 290 289 288 288 287 286 285 285 285 284
282 282 284 285 286 286 287 288 288 288 288 289 289 288 289 289 290 290 291 291 291 292 293 295 295 294 293 293 292 290 289 288 288 289 290 288 288 287 287 288 288 286 286 285
279 283 282 283 285 287 285 286 287 287 288 288 288 288 288 288 290 292 292 293 293 292 294 296 296 295 295 294 293 292 290 290 290 289 290 288 286 286 291 291 291 292 291 287
282 285 285 285 286 285 285 286 287 287 286 286 288 287 288 288 289 291 289 292 291 292 293 294 296 295 295 294 293 292 291 290 290 289 288 286 285 285 284 288 291 292 292 291
286 284 283 284 282 284 284 285 286 285 285 287 287 287 287 286 287 286 286 288 289 290 291 292 293 295 297 295 293 292 292 292 289 289 288 287 286 285 286 285 285 287 291 290
283 283 283 283 282 282 283 283 282 282 283 284 286 286 286 284 284 284 286 287 288 289 290 291 292 293 294 295 293 292 291 289 290 289 288 288 286 286 286 285 285 283 283 287
283 282 282 282 282 282 282 281 280 281 282 283 284 285 285 284 283 284 285 286 285 285 287 288 288 291 290 290 292 292 291 291 291 289 288 287 286 286 285 285 285 284 283 283
275 278 279 278 280 280 281 282 281 282 282 283 284 285 284 283 283 283 283 285 285 284 285 286 287 287 287 287 288 290 291 291 292 289 288 287 287 286 286 286 285 285 285 284
282 281 281 281 278 279 280 281 282 281 281 283 285 285 284 281 280 281 282 284 283 283 285 285 285 286 286 287 287 288 289 291 290 290 288 287 287 287 287 286 286 286 285 284
282 281 281 281 281 280 279 278 279 280 281 283 283 284 285 283 281 281 280 280 281 281 284 285 286 285 285 285 287 287 286 287 289 289 288 289 288 287 286 286 286 285 285 284
282 282 281 281 281 280 279 280 281 280 282 283 284 284 283 282 281 281 281 278 279 281 285 284 284 283 283 284 287 286 285 285 286 287 287 287 287 286 286 286 285 285 284 284
278 277 277 278 279 280 280 280 279 279 280 282 282 282 283 284 282 281 280 279 281 282 283 284 282 282 283 285 287 285 284 284 284 285 285 287 286 285 285 285 285 284 284 284
276 275 276 276 276 278 279 278 278 278 279 280 280 282 283 282 281 281 282 282 282 284 282 281 280 283 285 287 284 283 283 284 284 284 284 284 284 284 284 284 284 284 283 283
277 277 277 275 276 277 277 277 277 278 278 279 279 282 283 283 282 280 279 282 282 282 281 281 283 285 286 282 281 283 283 283 283 284 284 283 284 283 283 283 283 283 282 282
276 276 276 277 273 272 272 277 276 278 278 280 280 282 283 282 280 282 283 284 283 283 282 282 283 284 285 282 282 282 282 282 282 282 282 284 282 282 281 281 282 282 281 282
275 273 272 273 274 276 276 276 276 277 277 278 281 282 282 283 281 279 279 281 282 282 281 282 283 283 281 281 281 281 281 281 282 281 281 281 281 281 280 280 280 280 280 280
276 277 278 278 278 278 278 277 276 277 277 277 279 280 283 281 280 280 279 281 280 281 279 279 279 279 279 279 280 280 280 280 280 280 280 280 280 280 280 279 279 279 279 280
274 281 277 277 278 277 278 278 276 277 278 277 278 280 280 281 280 281 281 279 278 279 279 279 278 279 278 277 278 278 278 278 280 279 278 278 278 279 279 279 279 279 279 279

GFSNGP_sfc_thetae_072.txt.gz
Theta_e
284 286 287 286 286 288 283 284 279 284 284 286 288 290 291 293 294 293 293 294 294 293 293 294 296 297 299 298 299 298 298 297 297 297 297 297 296 296 296 296 295 294 293 293
278 285 284 283 285 286 288 287 286 287 286 289 290 293 292 292 294 293 293 294 295 295 294 294 294 296 298 298 298 297 297 297 297 296 295 295 294 293 293 292 292 292 292 292
275 281 281 278 282 284 286 287 288 285 288 291 290 292 292 290 291 291 292 293 294 294 294 294 294 295 296 299 298 297 296 296 296 295 294 293 293 292 291 290 290 290 290 291
273 277 270 281 286 287 286 287 287 288 289 289 288 290 290 289 288 288 290 290 291 292 294 295 294 295 295 298 297 297 296 296 296 294 293 292 292 291 289 288 288 288 288 289
275 273 278 282 285 284 284 283 286 285 285 286 287 290 287 288 288 289 289 289 290 290 293 295 294 295 295 296 296 296 296 296 295 294 292 291 290 289 289 288 287 287 288 289
278 274 274 282 286 289 288 280 284 285 284 284 285 281 285 287 288 289 290 291 291 291 292 293 295 294 294 295 295 295 296 296 295 294 293 291 290 288 288 290 288 288 287 288
277 274 279 285 287 289 277 278 285 285 285 284 283 284 286 287 289 290 290 290 291 290 290 292 294 293 293 293 293 296 295 294 294 293 292 291 289 288 288 289 288 287 287 287
278 277 275 286 287 283 283 285 286 285 286 286 286 287 287 288 288 289 289 290 290 290 290 292 293 292 292 292 294 294 294 294 292 291 292 291 288 287 289 288 287 287 287 286
281 281 284 284 284 285 286 285 284 284 286 286 286 286 287 288 288 288 290 290 290 289 289 291 292 292 291 292 293 293 292 291 290 290 290 289 288 288 288 288 287 286 286 285
283 283 282 284 285 286 286 284 285 286 286 286 285 287 288 289 288 289 290 291 292 289 288 289 292 293 292 292 292 291 290 289 288 288 288 287 289 289 288 287 286 286 285 285
280 281 282 283 284 284 285 286 286 286 287 286 287 287 288 288 288 289 289 291 293 292 290 291 293 296 294 294 293 290 289 288 287 288 290 288 289 288 288 289 289 287 286 286
280 282 282 282 285 285 283 284 285 285 285 286 286 287 287 287 288 288 289 289 288 291 291 290 292 294 296 294 293 292 291 290 290 290 291 289 288 287 292 292 292 293 292 289
282 283 284 284 285 284 283 284 285 284 284 283 285 286 286 286 287 288 287 287 287 287 288 289 290 292 295 296 294 293 292 291 290 290 289 288 287 286 285 288 293 292 293 293
284 283 282 283 281 282 282 284 284 284 284 283 284 285 285 285 286 285 284 285 286 287 288 288 289 290 294 295 294 293 293 293 290 290 289 288 287 286 286 286 285 286 291 292
281 282 282 281 281 282 282 282 281 280 281 281 283 283 284 284 284 284 285 285 285 286 287 287 287 288 291 291 292 293 292 291 291 290 289 289 287 286 286 286 286 286 285 289
281 281 280 280 280 280 279 280 279 279 280 281 281 282 283 284 284 284 285 285 283 282 284 285 285 286 288 288 288 289 292 292 292 290 288 288 287 286 286 285 285 285 285 285
275 276 278 276 278 278 278 279 279 279 280 280 280 281 282 282 283 283 283 283 282 284 284 283 284 286 287 288 287 287 288 291 293 290 288 287 287 286 286 286 286 285 285 286
280 281 279 279 277 278 279 280 280 279 278 279 280 280 281 281 281 282 281 282 282 282 282 282 285 286 286 286 286 286 287 288 290 290 288 287 287 287 287 286 286 286 286 286
281 280 280 281 280 279 278 277 277 277 277 278 278 279 280 281 283 284 284 281 279 279 281 282 286 285 283 284 286 286 285 284 286 288 288 289 288 287 287 286 286 286 286 285
280 280 280 279 280 279 278 279 278 278 279 279 279 279 280 281 281 282 282 280 280 281 281 284 284 283 283 282 285 285 285 284 284 286 287 287 288 287 287 287 286 286 285 285
276 275 276 277 278 279 279 278 277 276 278 278 278 278 279 280 283 283 282 280 281 282 282 284 282 280 280 283 285 285 284 284 284 284 285 286 286 287 286 286 285 285 285 284
273 272 272 274 275 277 278 277 276 277 277 277 278 278 278 280 282 282 283 281 283 285 283 282 280 282 283 286 284 282 283 283 284 284 284 284 285 285 285 285 284 284 284 283
275 274 275 274 275 276 276 276 276 276 277 277 277 277 277 280 282 281 280 282 283 283 283 282 282 285 285 283 280 280 282 283 283 284 284 283 284 284 283 283 283 283 282 281
275 275 274 275 271 271 272 276 275 277 276 277 278 278 277 280 281 282 282 284 284 283 282 282 283 284 284 278 279 281 281 281 282 282 282 284 282 282 282 282 282 282 282 283
274 272 270 272 273 275 275 277 275 275 276 277 278 277 277 278 280 282 281 281 282 282 280 281 283 282 279 280 280 280 280 280 281 280 281 281 280 280 280 280 280 280 280 280
275 277 277 276 277 277 277 276 276 277 277 276 278 278 277 279 280 281 279 281 281 281 279 279 280 280 279 279 279 279 279 279 279 280 279 279 279 279 279 279 279 279 279 280
273 279 276 275 276 276 276 276 277 277 278 278 277 277 277 279 279 281 282 279 279 278 279 278 278 279 278 278 278 278 278 278 279 278 278 278 277 278 278 278 278 279 279 278

GFSNGP_sfc_thetae_075.txt.gz
Theta_e
283 285 285 284 285 286 281 282 279 282 282 285 287 288 290 291 292 293 293 293 293 292 292 293 293 294 295 297 298 298 298 297 298 297 297 297 296 296 295 295 295 294 293 292
277 283 283 283 284 286 286 285 285 285 284 288 290 291 291 291 292 290 290 291 291 291 292 293 293 293 294 295 297 298 297 297 297 296 296 295 294 293 293 293 292 292 291 291
275 280 280 277 280 283 285 287 287 283 287 289 290 291 289 287 287 287 288 289 289 289 290 291 293 294 294 295 296 297 296 296 296 295 294 293 293 292 291 290 290 289 289 290
272 277 270 280 284 285 285 285 286 287 287 288 288 289 286 286 284 286 288 288 289 289 289 290 293 294 295 295 295 296 295 296 295 294 293 292 291 290 289 288 288 288 288 289
273 272 278 280 284 284 283 282 284 285 284 284 286 287 285 286 287 287 288 289 289 290 290 290 291 293 294 294 294 294 295 295 295 294 292 291 290 289 288 287 287 287 287 287
278 273 273 280 285 288 287 279 284 285 284 283 285 282 284 286 287 288 289 290 290 290 290 289 290 291 291 293 292 293 294 295 295 294 293 291 290 288 288 287 287 286 287 286
278 274 278 283 286 287 277 278 284 284 284 283 282 283 285 287 288 289 289 289 290 289 289 290 290 290 290 291 291 293 294 294 293 293 292 291 289 287 287 287 287 288 288 287
279 278 274 285 286 281 282 283 285 284 284 284 285 286 286 287 287 287 287 288 289 288 289 290 290 290 290 290 292 293 293 292 292 291 292 290 288 287 286 286 288 288 288 287
280 280 283 283 283 284 285 284 283 283 284 284 284 284 286 286 287 287 287 289 290 291 289 289 289 289 289 292 291 291 291 290 290 289 289 288 287 286 286 286 288 287 286 286
282 281 281 282 284 284 285 284 284 285 285 285 284 285 285 286 287 287 288 289 290 291 289 291 290 291 293 294 292 290 290 289 288 287 287 286 286 287 288 288 287 287 286 286
280 279 280 283 283 283 284 285 284 285 285 285 285 284 284 285 286 287 287 288 289 287 287 289 289 289 291 294 294 292 289 288 287 287 288 287 287 288 289 290 290 287 287 287
279 282 281 281 284 285 282 282 283 283 283 284 283 283 284 284 285 286 286 287 285 286 286 287 288 289 290 292 294 293 291 291 290 290 290 289 288 288 293 292 293 293 292 290
281 282 283 283 284 283 281 282 283 283 283 282 283 283 283 283 284 286 286 286 285 284 284 286 288 289 290 291 292 293 292 292 291 290 290 288 287 287 286 288 293 293 293 293
281 282 281 281 280 281 280 282 283 281 282 282 282 282 283 283 284 284 284 285 286 285 284 284 286 287 289 289 290 289 291 294 291 290 290 290 288 287 287 286 286 287 292 292
280 281 280 280 280 280 280 280 279 279 279 280 281 281 281 281 282 283 284 285 285 284 284 283 284 285 287 288 287 287 288 290 292 292 290 290 288 287 287 286 286 286 285 289
281 280 279 278 278 279 278 278 277 278 278 279 279 279 280 281 282 282 283 284 282 282 284 284 284 284 284 287 287 287 287 289 291 290 289 288 287 287 286 286 286 286 285 286
275 275 277 275 277 277 278 278 278 278 278 278 278 279 279 279 280 280 281 282 282 284 283 283 283 284 284 286 287 286 286 287 289 290 288 288 287 286 286 286 286 286 286 287
279 279 278 278 276 277 278 279 279 278 277 277 278 277 276 276 277 279 280 282 283 283 281 282 283 283 284 286 285 285 285 285 286 287 288 287 287 287 287 286 286 286 286 286
279 279 279 280 278 278 277 276 276 277 276 276 275 275 276 277 278 279 280 280 282 281 282 281 283 283 285 284 284 283 284 284 284 285 285 288 288 288 287 286 286 286 286 286
279 279 279 278 279 278 277 278 277 277 277 277 276 276 276 277 278 278 280 281 282 282 283 282 281 283 283 283 284 283 283 283 284 284 284 285 286 287 287 287 286 286 286 286
276 275 276 277 277 278 278 277 276 276 278 277 276 276 277 278 278 278 280 280 282 283 283 284 284 282 281 282 283 283 283 283 282 282 283 283 285 286 287 286 286 286 285 285
272 271 271 272 274 275 277 276 276 276 276 277 277 277 277 277 277 278 281 281 283 285 284 283 282 283 283 285 284 283 281 281 281 282 283 284 284 285 285 285 285 285 284 284
274 273 274 273 274 274 273 274 275 275 275 275 276 277 277 277 277 277 278 281 283 283 283 283 283 284 285 284 281 280 279 280 281 282 282 282 281 284 284 285 284 284 283 282
274 275 274 273 268 270 271 275 274 276 275 276 276 277 277 275 276 278 279 283 284 283 283 282 282 284 284 280 279 279 278 280 280 280 281 283 281 282 282 282 282 282 282 282
273 272 268 271 272 275 274 275 273 274 275 276 277 277 276 276 275 278 278 282 283 282 280 281 282 283 280 279 279 279 279 279 280 278 279 279 280 281 281 281 281 281 281 281
273 274 275 275 275 276 276 275 274 276 276 276 278 278 278 277 276 278 278 280 280 281 279 279 279 280 279 279 279 278 278 279 278 278 278 279 279 279 279 279 279 280 280 280
271 278 274 274 275 275 275 277 278 276 277 277 277 278 278 277 276 278 279 278 278 279 279 279 279 279 279 278 277 277 278 277 279 278 277 277 277 277 277 277 277 278 278 278

GFSNGP_sfc_thetae_078.txt.gz
Theta_e
281 284 285 284 284 284 280 281 278 281 282 285 286 288 289 289 291 290 289 289 289 288 288 289 291 293 294 294 294 296 297 296 297 297 296 296 296 296 296 295 294 294 293 292
277 282 282 283 284 284 284 284 283 283 281 287 287 289 289 288 288 287 287 288 288 288 288 288 289 291 293 293 294 294 295 296 297 296 296 295 295 294 293 293 292 291 291 291
274 279 280 277 280 283 284 284 284 282 285 288 288 290 287 285 286 286 286 287 288 288 288 288 289 291 291 293 294 294 294 295 296 295 295 294 293 292 291 290 290 290 289 290
272 277 270 280 283 284 284 284 285 285 285 286 287 286 285 285 284 285 287 287 288 288 289 290 290 291 292 293 293 294 294 295 295 295 294 293 291 291 289 288 289 288 288 289
273 271 277 279 282 283 282 282 284 284 283 284 285 284 283 285 286 285 286 288 288 289 289 289 289 290 290 291 292 293 293 293 294 294 293 291 290 289 288 287 287 287 287 287
277 273 272 278 284 287 286 278 283 284 283 283 285 281 283 285 286 287 287 288 288 288 289 289 290 290 289 290 291 292 293 294 294 294 293 292 291 289 287 287 287 286 287 286
280 273 278 282 286 286 276 278 283 283 283 283 282 283 284 286 287 287 287 287 288 288 287 289 290 289 288 289 290 293 293 293 293 293 293 293 289 287 287 287 286 285 287 288
280 278 273 283 285 280 282 282 284 283 283 283 283 285 285 286 286 286 286 287 287 287 288 289 290 288 289 288 292 292 292 291 291 291 291 290 288 287 286 287 288 288 289 288
280 279 282 281 282 283 284 284 282 282 283 283 283 283 284 285 285 285 286 286 287 286 287 287 288 288 288 289 292 293 290 290 289 289 288 288 287 289 287 287 288 288 287 287
281 280 280 281 282 283 283 283 283 283 283 284 282 283 283 284 284 284 285 286 286 287 285 285 287 287 288 289 291 292 292 292 289 287 287 287 289 289 289 288 288 287 287 286
280 280 280 283 283 283 283 283 283 283 283 283 282 282 282 282 283 283 284 285 285 284 284 284 285 286 288 290 290 289 292 292 290 289 288 286 285 288 289 290 291 288 288 288
280 282 281 281 283 284 282 281 282 281 282 282 281 282 282 282 283 283 283 284 283 283 284 283 284 284 287 289 290 289 289 291 292 291 290 289 288 288 293 293 294 294 293 290
281 281 282 282 283 282 280 281 280 281 281 280 281 281 281 281 282 285 284 283 283 283 284 284 283 283 285 287 288 287 286 287 290 291 290 289 288 287 287 289 294 293 294 293
281 281 279 281 279 281 279 280 282 280 280 280 280 280 280 280 281 281 282 283 283 283 283 284 283 283 285 286 285 286 286 288 288 291 291 290 288 288 288 287 287 288 293 293
279 280 279 280 279 278 278 279 278 278 278 278 279 279 279 278 278 279 281 282 283 282 282 283 283 283 285 284 283 283 286 286 287 288 291 291 289 288 288 287 287 287 286 290
281 279 278 277 277 277 276 276 276 277 277 278 277 277 277 278 278 279 280 281 280 280 282 283 283 284 284 284 283 283 286 287 288 287 288 288 288 287 287 286 286 286 286 286
274 274 276 274 277 276 276 277 277 277 278 278 278 278 277 277 277 277 277 279 280 281 281 283 283 284 283 283 282 284 285 285 286 286 286 287 288 287 287 286 286 286 286 287
278 279 278 277 275 276 277 278 278 278 277 278 278 276 274 273 274 275 277 278 278 280 282 284 284 283 282 282 283 285 284 284 284 284 285 285 286 287 287 286 286 286 286 286
278 279 279 279 277 277 276 275 275 276 276 276 275 275 275 274 275 275 277 277 277 278 280 284 285 284 282 282 284 284 283 282 282 283 284 285 285 286 287 286 286 286 286 286
279 279 279 277 278 277 276 276 276 275 276 276 276 275 275 275 277 277 277 276 278 280 283 282 282 282 282 283 285 283 281 281 282 283 284 284 284 284 286 287 287 286 286 286
276 275 276 278 277 277 277 276 275 274 276 276 276 276 276 277 277 277 275 276 279 280 282 284 282 283 283 283 283 282 281 281 282 282 281 281 283 283 284 286 286 286 286 286
272 271 271 271 273 274 276 276 275 275 275 275 276 276 276 276 277 277 278 277 280 284 283 282 282 283 283 285 283 283 282 281 280 281 280 281 282 283 283 285 285 285 285 285
273 272 273 272 273 273 272 273 275 275 274 274 275 275 275 276 277 276 276 278 278 281 283 282 282 284 284 283 281 280 279 278 279 280 281 281 282 283 283 284 285 285 285 284
272 272 271 273 267 268 270 273 273 275 274 275 275 276 275 275 276 276 278 281 283 282 282 283 282 284 284 280 279 278 278 279 279 279 280 283 282 281 278 277 278 280 281 283
270 269 267 268 271 273 273 274 273 273 274 275 276 277 277 277 276 278 277 277 280 281 280 282 283 282 279 278 278 278 278 278 279 278 278 279 278 277 276 276 278 279 280 281
272 273 273 273 273 274 275 275 274 275 276 276 277 277 278 279 277 278 276 278 277 279 281 279 279 278 278 277 278 278 278 278 278 277 277 277 277 277 276 277 278 279 279 280
269 276 272 272 273 273 274 275 274 274 276 275 274 276 278 277 276 277 277 275 275 277 278 279 279 279 279 279 278 278 278 277 277 276 276 276 276 275 276 277 277 277 278 279

GFSNGP_sfc_thetae_081.txt.gz
Theta_e
281 283 286 285 286 286 282 282 280 282 283 285 287 289 290 291 291 289 288 289 289 289 290 290 291 292 293 295 296 296 297 298 299 300 301 301 301 300 300 299 299 298 297 297
278 282 282 284 285 285 286 285 284 283 284 288 289 290 290 288 288 287 287 288 289 290 290 290 290 291 292 293 294 296 296 296 298 299 300 299 299 298 298 297 297 296 296 296
275 279 280 278 280 283 285 286 285 283 286 289 289 290 288 285 286 286 287 288 289 289 289 290 291 291 291 292 294 294 295 296 297 297 298 298 298 297 296 296 295 295 295 295
274 278 271 280 283 285 284 285 286 286 285 286 289 286 285 286 286 286 287 288 288 289 290 290 291 291 292 292 293 294 294 295 296 297 297 297 296 296 295 294 294 294 294 294
274 273 278 280 283 284 283 283 286 284 284 285 286 286 285 287 287 287 288 288 289 289 290 290 290 291 291 291 292 293 294 294 295 296 296 295 295 294 294 293 292 292 292 292
278 274 273 280 284 287 286 279 285 285 284 285 287 284 285 287 287 288 288 289 288 289 289 289 291 290 290 291 291 291 293 294 294 295 295 295 295 293 292 292 291 291 289 290
279 274 278 283 285 287 278 279 284 285 285 284 283 285 285 287 287 288 288 288 289 288 288 289 290 289 289 290 290 291 293 293 293 294 294 294 293 292 291 291 290 289 289 288
278 275 273 283 285 281 283 284 285 285 285 285 285 285 286 286 286 286 286 287 287 287 287 289 288 288 288 287 290 291 292 293 292 293 293 293 292 291 290 290 290 289 289 290
280 280 283 283 283 284 284 284 284 284 285 285 284 285 284 284 284 285 285 286 287 286 286 286 287 287 285 287 289 290 290 291 293 292 291 291 291 291 290 290 290 289 289 289
282 281 282 283 283 284 284 284 285 285 285 285 283 284 283 283 284 284 285 285 286 285 284 284 285 285 286 287 289 289 289 290 291 292 292 290 290 291 290 289 289 289 288 288
280 282 281 283 284 284 284 284 284 284 284 284 283 282 282 282 282 283 284 284 285 284 284 284 284 284 285 286 287 287 287 287 289 291 291 291 288 290 290 292 292 290 289 290
280 282 282 282 283 285 283 282 282 282 282 282 282 282 282 281 282 283 283 284 283 283 283 284 284 284 285 286 286 286 285 286 286 288 290 291 290 289 293 293 294 295 294 292
281 281 282 282 283 283 281 281 282 282 281 280 281 281 281 280 281 284 282 282 282 282 283 283 283 284 285 285 286 285 284 284 285 286 286 289 289 288 287 290 294 294 294 294
282 282 280 282 280 282 280 280 281 280 280 279 279 280 280 279 280 279 279 281 282 282 282 283 283 283 285 285 285 284 284 285 285 286 287 287 289 288 288 288 287 289 294 294
280 280 279 281 279 279 279 278 277 277 277 278 279 278 278 277 277 278 279 280 280 281 281 282 282 283 285 285 284 283 283 283 285 286 286 288 288 289 288 288 288 288 286 291
280 279 279 278 277 277 276 276 276 276 277 277 277 278 278 277 277 278 278 278 278 279 280 281 281 283 285 285 284 283 283 284 286 284 284 285 286 287 287 287 287 286 286 288
275 275 276 274 276 275 277 277 277 277 277 277 277 278 278 277 277 276 277 277 278 279 280 281 281 284 284 284 283 283 283 284 286 284 283 283 285 285 287 287 286 286 286 288
278 278 277 277 275 276 277 278 278 277 276 277 277 276 275 274 274 275 276 277 277 278 279 281 282 284 284 284 283 283 283 284 284 283 283 283 284 285 285 286 286 286 286 287
277 278 278 279 277 277 276 275 275 275 275 275 274 274 275 275 275 275 276 275 276 276 278 280 283 284 282 283 284 283 283 283 282 281 281 283 284 284 285 284 286 286 286 286
278 278 278 277 278 277 276 276 275 275 275 275 275 275 274 275 276 276 277 276 277 278 279 280 281 283 283 283 284 283 283 282 281 281 282 283 284 283 284 285 285 286 286 286
274 273 275 276 276 277 277 276 275 274 276 276 276 275 276 276 276 276 275 276 279 280 281 282 282 282 282 283 283 282 282 281 281 281 281 282 281 281 282 283 284 285 286 286
270 269 268 270 272 273 275 275 275 275 275 275 275 275 275 275 276 276 278 277 279 282 282 282 282 283 283 285 283 283 283 282 281 280 280 280 281 281 282 283 283 285 286 286
271 270 270 270 271 271 271 272 273 274 274 274 274 275 275 276 276 275 275 278 280 281 281 282 283 284 285 284 281 280 280 279 279 279 279 280 281 281 282 283 284 285 285 285
269 270 269 270 266 266 269 272 272 274 274 274 274 275 276 276 276 277 278 280 281 280 280 281 282 284 285 280 279 278 278 279 279 279 280 281 281 282 281 281 282 283 283 285
268 266 265 266 269 272 272 273 273 273 274 275 275 276 276 278 277 278 278 278 279 279 278 281 283 284 280 278 277 278 278 278 279 279 278 278 279 279 279 280 281 281 281 282
270 271 272 271 271 271 272 272 272 272 272 273 273 274 275 277 277 277 277 277 276 278 276 278 279 280 279 279 279 278 278 278 278 277 278 277 278 278 278 278 279 280 280 280
267 273 270 270 271 271 271 273 271 270 272 271 271 274 275 275 275 275 276 274 274 275 277 279 279 279 279 279 278 278 277 277 277 277 277 276 276 276 276 276 276 278 278 279

GFSNGP_sfc_thetae_084.txt.gz
Theta_e
286 287 289 289 290 291 288 288 287 287 288 291 294 295 296 296 295 293 293 294 294 294 295 296 296 297 297 298 298 299 300 302 303 304 306 307 308 308 307 307 306 306 305 304
285 287 289 287 289 290 290 289 289 289 289 295 295 296 295 294 293 292 292 293 294 294 294 295 295 296 296 297 297 298 298 300 302 303 304 305 306 306 306 305 304 304 303 303
284 285 286 284 286 288 290 291 290 288 290 294 293 295 294 292 292 291 292 292 293 293 294 294 295 295 295 296 298 298 298 300 300 301 301 303 304 304 304 304 303 302 302 302
285 285 280 285 289 289 288 290 291 291 291 293 295 293 292 292 292 292 292 292 293 293 294 295 295 296 296 297 297 297 298 299 300 299 299 301 302 302 303 303 302 301 301 301
285 284 284 285 287 288 288 287 291 290 290 292 291 291 289 291 292 292 292 292 293 293 294 294 295 295 295 295 296 296 296 297 298 298 298 299 300 301 303 301 301 300 301 300
285 281 279 286 289 292 292 285 290 291 290 291 291 290 294 291 291 292 292 293 292 293 293 293 294 293 293 294 294 294 294 295 297 298 298 298 299 300 301 300 299 299 296 298
285 283 285 289 290 291 283 285 290 291 291 291 291 291 290 291 291 291 291 291 292 292 291 292 292 292 291 291 291 292 293 294 295 297 297 298 298 299 298 298 297 296 294 293
284 282 279 290 290 287 289 289 291 290 291 290 290 290 289 289 288 289 289 289 290 289 289 291 290 290 288 289 291 292 292 293 294 296 296 296 297 298 295 296 295 294 293 292
286 286 289 290 290 290 290 290 290 291 290 290 289 288 288 287 287 288 288 288 289 289 288 289 289 289 287 288 290 290 290 290 291 292 294 296 295 296 293 294 294 293 291 292
287 288 289 290 290 290 290 290 290 290 289 289 287 287 286 286 287 287 287 287 288 288 287 287 288 289 289 289 289 289 289 289 290 290 291 294 294 293 292 291 291 291 289 289
288 290 288 289 290 290 289 289 288 288 288 287 287 286 286 286 286 286 286 287 287 287 287 287 288 288 289 289 289 288 288 288 288 288 288 289 291 292 291 293 293 291 290 291
288 289 290 289 289 290 289 287 287 286 286 286 286 285 286 285 286 285 285 286 285 285 285 286 287 287 288 289 288 287 287 287 288 287 288 287 287 289 294 294 294 295 295 293
289 288 288 288 289 289 288 286 286 286 286 284 285 285 285 284 284 285 284 284 283 283 284 285 286 286 288 288 288 287 286 287 287 287 287 287 286 286 287 291 294 294 294 295
288 288 286 287 287 288 287 285 285 284 284 284 284 284 283 283 283 283 282 283 283 283 283 284 285 285 287 287 287 286 286 286 285 286 286 286 285 286 287 287 287 289 294 294
288 287 285 287 286 285 284 283 282 282 282 282 283 283 283 282 282 283 283 283 283 283 283 284 284 285 286 287 286 285 284 284 284 285 286 286 285 285 286 286 287 288 288 290
284 284 284 284 283 283 282 282 281 282 282 282 282 282 282 282 282 282 283 283 281 281 283 283 283 285 286 286 286 286 285 285 284 285 285 284 284 283 283 284 286 287 287 287
282 281 281 281 282 282 281 282 282 282 282 281 281 282 282 281 281 281 281 282 282 281 282 283 283 285 285 286 286 285 284 283 284 285 285 284 283 283 283 284 284 286 287 287
284 283 283 283 282 281 282 282 282 282 281 282 281 280 279 279 279 279 280 281 281 281 282 284 284 285 285 286 285 284 283 282 282 283 284 283 282 282 283 284 284 285 286 287
283 283 282 282 282 281 281 281 281 281 280 280 279 279 279 279 280 280 280 279 279 279 281 284 284 284 284 285 284 283 282 283 283 284 284 283 282 283 283 284 284 285 285 286
282 282 282 281 281 281 280 281 281 280 280 280 280 279 279 280 280 280 280 279 280 281 282 282 283 283 284 284 284 283 283 283 283 282 282 282 283 283 284 284 284 284 285 286
279 278 278 278 278 279 279 279 278 278 279 279 278 278 278 279 279 279 278 278 281 282 282 283 283 284 284 283 283 283 283 283 283 283 283 282 283 283 283 283 283 283 285 285
277 276 274 275 276 277 278 277 277 277 277 277 278 278 277 277 278 278 279 279 281 282 282 282 283 284 284 285 284 285 284 283 282 282 281 281 281 281 282 282 283 284 285 285
277 276 275 274 275 275 275 276 276 276 276 276 276 276 276 277 278 276 276 280 281 281 282 282 283 283 284 283 284 283 281 281 280 280 281 281 281 281 282 283 284 285 285 285
275 275 275 274 273 274 273 274 274 275 275 275 276 277 276 275 276 279 280 280 281 280 280 281 281 282 284 284 282 281 280 280 280 280 280 282 281 282 282 283 283 284 284 285
273 273 273 273 273 273 273 273 274 274 273 274 274 275 276 277 276 278 278 278 279 279 278 280 281 282 282 281 281 280 280 280 280 280 280 280 280 281 281 282 282 283 284 284
274 274 274 273 273 273 273 274 273 273 273 272 273 275 276 277 277 277 277 277 277 278 278 279 280 281 281 280 280 280 280 279 279 279 279 279 279 279 279 279 281 281 282 283
273 274 273 273 273 272 273 273 272 271 273 272 272 276 275 275 276 276 276 276 277 277 278 279 280 281 280 280 279 279 278 278 277 278 278 277 277 277 277 278 279 280 281 281

GFSNGP_sfc_thetae_087.txt.gz
Theta_e
289 290 291 291 291 291 289 290 287 289 290 293 295 296 297 297 297 296 295 295 295 296 296 297 297 298 298 299 299 300 300 300 302 303 305 305 308 309 309 308 308 309 309 307
288 290 291 288 291 292 292 292 291 291 290 297 299 299 297 297 295 295 295 295 296 296 296 296 296 296 297 298 298 299 299 300 301 302 303 304 305 307 308 307 306 306 305 305
285 288 288 285 287 289 291 293 292 289 292 296 295 296 296 296 295 294 294 295 295 295 295 296 296 296 296 297 298 298 298 300 300 301 301 302 303 304 305 306 306 305 305 304
286 287 281 287 291 291 289 292 294 294 294 295 297 298 295 296 295 294 294 294 294 294 295 295 296 296 296 297 297 297 297 298 298 299 299 300 301 302 303 305 305 305 304 303
286 285 286 287 289 290 289 289 293 293 293 294 294 294 293 294 294 294 294 294 294 295 295 295 295 295 294 295 296 295 296 295 296 297 297 299 299 300 302 303 303 303 303 302
287 282 280 288 291 294 293 286 293 293 293 293 293 291 292 293 293 293 294 294 293 294 294 294 294 293 292 293 292 292 292 293 295 296 296 296 297 298 298 300 301 302 300 300
286 284 287 291 292 294 284 286 293 294 294 293 293 292 292 293 293 293 292 292 292 292 291 291 293 291 290 290 290 292 292 293 293 294 295 296 296 297 297 297 298 298 298 297
286 283 280 293 292 288 291 292 294 293 294 293 293 292 291 291 290 290 289 290 290 290 290 291 292 289 288 288 290 290 291 291 291 292 293 294 295 296 296 295 295 296 296 295
287 288 292 294 293 294 293 293 293 293 293 292 291 291 291 289 288 289 289 289 290 289 289 290 290 289 288 289 289 289 289 289 290 290 291 292 292 293 293 294 293 294 294 294
289 292 292 293 294 293 293 293 293 293 292 291 290 290 288 288 288 288 288 288 289 288 287 287 289 289 289 289 289 289 288 288 289 289 289 289 290 292 291 292 291 291 290 290
290 293 292 293 294 294 292 292 291 291 290 289 289 288 288 287 287 287 287 287 287 286 286 286 287 288 289 289 289 287 287 287 288 289 288 288 289 288 289 290 292 291 291 291
288 293 293 292 293 294 292 290 290 289 288 288 288 287 287 286 287 287 286 286 285 286 285 285 286 287 288 289 288 287 286 287 288 288 288 288 288 288 290 290 291 294 294 294
293 292 291 291 292 292 291 290 289 288 288 287 287 286 286 285 286 286 286 285 284 284 285 284 285 285 287 288 288 287 286 287 287 287 287 286 286 285 284 287 290 290 293 294
292 291 289 290 290 291 290 289 288 287 287 286 285 285 285 284 285 284 284 284 285 284 284 284 284 284 287 288 287 286 287 287 285 284 284 285 285 285 284 284 283 285 290 292
290 291 288 290 289 289 288 286 284 284 284 284 285 284 284 283 282 283 284 284 284 284 284 284 284 284 287 287 286 286 286 286 285 284 284 284 285 285 284 283 283 284 285 288
289 287 286 286 286 285 284 284 282 283 284 284 283 283 283 283 283 283 284 284 282 282 283 283 283 285 287 286 286 286 286 287 286 284 284 284 285 284 283 282 282 283 284 285
283 282 284 284 284 284 283 284 283 283 283 283 283 283 283 283 282 282 283 284 283 283 283 283 283 285 286 286 285 286 286 284 285 283 283 283 284 284 283 282 282 282 283 285
287 285 285 285 284 283 283 284 284 284 283 283 283 282 281 280 280 281 282 282 282 282 282 283 284 285 285 285 286 286 284 283 282 282 283 283 283 284 282 281 282 282 284 284
285 284 284 283 283 283 282 281 281 282 282 281 280 280 280 280 280 281 282 281 280 280 282 284 284 284 284 284 285 285 283 283 282 283 283 284 283 283 282 282 282 283 284 284
283 283 283 282 282 281 280 281 281 280 281 280 280 279 279 280 280 280 280 279 280 281 283 283 283 283 283 284 286 284 283 282 282 282 283 282 282 282 283 283 283 284 283 283
280 279 279 279 279 280 280 280 279 278 279 279 278 277 277 277 278 279 278 277 280 282 282 282 282 283 284 285 284 283 283 283 283 283 283 282 282 282 282 282 282 282 282 282
280 278 275 277 278 278 278 278 278 277 276 276 277 276 276 276 277 277 278 278 280 282 281 281 282 282 283 284 284 284 283 283 283 282 281 281 281 281 281 281 282 282 282 283
278 278 277 276 276 276 276 277 276 276 275 275 275 275 275 276 276 275 275 279 280 280 280 280 281 282 283 282 282 282 283 282 281 280 280 281 281 281 281 281 282 283 283 284
277 277 276 276 275 275 274 275 275 275 275 275 276 275 275 274 276 278 279 279 279 279 279 279 280 282 283 282 283 282 281 280 280 280 280 281 281 280 281 281 282 283 284 284
276 275 274 274 275 275 274 275 275 275 275 275 276 276 277 278 276 277 277 277 278 278 278 280 281 282 281 282 281 280 280 280 280 280 279 279 279 279 280 281 281 282 283 283
276 276 275 274 274 274 274 275 274 274 274 274 275 276 277 277 277 277 277 277 277 278 278 279 280 281 281 281 280 280 279 279 278 278 279 278 278 278 278 279 279 280 281 282
275 275 275 274 275 274 274 274 273 273 274 273 273 276 276 276 276 276 277 276 277 277 278 279 280 281 280 280 279 279 278 277 277 277 277 277 277 277 277 277 278 279 280 280

GFSNGP_sfc_thetae_090.txt.gz
Theta_e
286 288 289 288 288 289 286 286 281 285 286 289 291 291 291 292 292 292 292 292 292 292 292 292 293 294 295 295 296 296 296 296 297 299 299 300 301 302 305 304 304 305 306 305
280 288 288 284 287 289 289 289 288 288 287 294 296 294 292 291 292 292 292 292 293 293 292 292 292 292 294 294 294 296 295 296 298 298 298 298 299 300 301 303 302 302 302 302
279 286 284 279 284 286 288 290 288 285 288 292 292 294 293 291 292 291 291 292 292 291 291 291 291 293 292 293 294 295 295 295 296 297 297 297 298 298 299 299 301 300 300 300
278 281 273 283 288 289 287 290 291 291 291 292 292 292 291 292 291 291 292 291 291 290 291 291 292 292 292 292 293 293 293 294 294 294 294 295 296 296 296 297 298 299 299 299
277 276 282 284 287 287 285 286 290 289 291 292 291 290 288 291 291 290 289 290 290 290 290 290 290 290 289 290 290 290 291 291 292 293 292 293 294 295 297 297 298 299 299 299
282 276 275 283 288 291 289 281 290 291 290 290 290 285 284 290 291 290 290 290 289 289 290 289 288 288 287 287 287 288 289 289 290 291 291 292 294 294 295 296 296 298 298 298
280 277 282 288 290 290 278 280 290 290 290 289 287 286 288 290 290 289 288 288 287 287 286 287 288 287 286 286 285 288 288 289 289 289 289 289 290 291 294 295 295 296 296 296
280 276 274 289 288 283 286 287 289 289 289 289 289 289 289 288 287 286 286 287 287 285 286 287 287 286 285 284 286 287 287 287 286 286 288 288 286 288 289 293 293 294 295 295
283 283 288 289 288 289 290 289 288 288 289 289 288 288 288 287 285 285 285 285 286 284 284 285 285 285 283 284 285 285 285 284 285 286 286 286 284 284 286 289 289 290 291 292
285 286 287 289 289 289 289 288 289 289 289 288 286 287 285 285 285 284 284 284 284 284 283 282 283 284 283 284 285 285 283 283 284 283 284 284 285 285 284 284 286 288 288 289
285 288 287 289 289 290 289 289 289 288 287 286 285 285 284 284 284 284 284 284 284 282 282 282 282 282 283 284 284 283 283 283 283 284 283 283 284 284 284 284 286 286 286 289
283 288 287 287 288 290 288 287 288 286 285 285 284 284 284 282 283 283 282 283 282 282 281 281 282 282 283 284 284 283 283 283 284 284 283 283 283 283 288 289 289 289 289 289
288 288 287 288 289 289 288 287 286 285 284 283 284 283 282 281 282 285 282 282 281 281 281 280 281 282 283 283 284 284 282 283 283 284 282 281 281 281 281 284 288 288 288 289
288 288 285 287 286 287 287 287 287 284 284 283 282 282 282 281 281 281 280 281 281 280 280 281 281 281 283 283 283 283 282 286 283 281 281 283 283 282 283 282 282 282 286 287
287 286 286 287 287 286 285 284 281 280 281 281 281 281 280 280 279 279 280 281 281 280 280 280 281 281 283 283 283 282 282 281 282 285 284 284 283 281 283 283 282 282 282 284
286 284 284 283 284 283 281 280 278 279 280 280 280 279 280 279 279 279 280 280 279 279 280 281 281 282 283 283 282 282 282 286 286 285 284 283 282 281 281 282 282 281 281 282
279 278 279 279 280 281 279 280 280 279 279 279 279 280 279 278 278 278 279 280 280 280 280 280 280 282 283 283 282 282 282 283 286 284 282 282 280 280 280 282 281 281 281 283
283 283 282 282 279 279 279 279 279 278 277 279 279 277 275 274 274 276 277 278 279 279 280 280 282 283 283 283 283 283 283 284 283 282 282 281 281 281 281 282 281 281 281 282
281 280 280 280 280 279 278 275 275 275 275 275 274 272 273 274 274 275 276 276 276 276 278 281 283 282 281 282 284 283 283 283 282 282 282 283 281 281 280 280 280 280 280 281
280 280 280 279 279 278 277 277 277 276 277 276 275 274 274 274 275 275 275 275 276 277 280 279 280 280 280 282 284 284 284 282 281 281 281 281 281 280 281 282 281 281 282 281
277 277 277 277 277 277 277 276 275 274 275 275 274 274 274 274 274 274 274 274 276 278 280 280 279 280 280 282 283 282 281 281 280 280 281 281 280 279 279 280 280 280 280 281
275 273 271 273 275 275 275 275 274 274 273 274 274 273 273 273 273 273 275 274 277 281 279 279 279 280 281 283 282 281 280 279 280 281 279 278 278 278 278 278 279 280 281 281
275 275 273 273 272 271 272 274 273 273 273 271 271 272 271 272 273 272 272 276 278 279 278 278 280 282 283 282 281 281 281 280 280 279 279 277 278 279 278 278 279 280 280 280
275 275 273 272 270 269 269 271 271 273 272 272 272 272 271 271 273 272 275 278 279 279 278 278 280 282 283 280 280 280 279 279 279 278 278 280 278 277 277 278 278 279 280 281
274 271 270 269 270 271 271 272 271 270 271 272 272 272 272 273 271 274 275 276 278 278 277 279 281 281 280 280 279 279 279 278 279 278 277 277 276 276 276 277 277 278 280 280
274 274 274 273 272 271 272 271 271 271 271 271 272 273 274 273 273 274 273 276 276 277 275 276 277 279 280 279 279 278 277 277 276 276 276 275 275 275 275 275 276 277 278 279
271 275 272 272 273 272 272 272 270 269 271 271 271 273 273 273 273 274 275 274 274 274 274 275 276 278 280 279 278 277 277 276 276 276 274 274 274 274 274 274 275 277 277 278

GFSNGP_sfc_thetae_093.txt.gz
Theta_e
285 287 287 285 285 287 284 284 279 283 283 286 288 288 288 289 290 290 290 291 291 290 290 290 291 292 293 293 294 294 294 295 296 297 297 298 298 299 300 301 302 303 303 304
279 286 286 282 284 286 287 287 286 286 285 290 290 289 288 289 290 289 290 290 290 290 290 290 290 291 292 292 292 294 293 294 295 295 296 296 296 297 297 298 299 300 300 301
277 284 283 278 281 284 286 287 287 283 286 290 290 292 289 289 290 289 290 290 289 288 289 289 289 291 290 290 292 292 292 293 293 293 293 294 295 295 295 295 296 296 297 298
274 279 272 282 286 287 286 288 289 289 289 290 290 289 288 289 288 289 289 289 289 288 289 289 290 290 289 290 290 289 290 290 291 291 291 292 292 293 293 295 296 296 296 299
275 273 280 282 285 285 284 284 288 288 289 289 289 287 286 289 289 287 288 288 289 288 289 288 287 288 287 287 288 287 288 288 289 289 289 290 290 290 292 294 295 296 297 298
279 275 274 282 286 289 288 279 288 289 289 288 288 283 284 288 289 288 288 288 288 287 287 286 285 286 285 285 286 286 287 288 288 288 288 288 287 288 289 291 293 295 296 297
279 275 280 286 288 289 277 279 288 288 288 289 286 286 288 289 288 288 288 287 288 286 285 285 286 286 285 284 283 286 287 287 287 287 286 286 286 286 287 287 289 290 292 293
278 275 273 288 287 283 285 286 289 288 287 287 287 288 288 288 287 286 286 286 286 284 284 285 286 285 285 283 285 286 285 285 284 284 285 286 284 284 284 285 286 286 289 290
281 280 286 288 288 288 288 288 288 288 287 288 288 287 287 286 285 284 284 284 284 283 283 283 283 283 282 282 283 283 283 283 283 283 283 284 282 282 282 284 284 284 285 287
283 283 286 288 288 289 288 288 288 288 288 288 286 285 284 284 284 283 283 283 283 282 281 281 281 282 281 281 283 282 281 281 282 281 282 282 283 283 282 282 282 283 283 283
283 285 286 288 287 288 288 288 287 287 287 286 285 283 282 282 282 282 282 282 282 281 280 280 281 280 281 281 281 281 281 281 282 282 281 281 282 282 282 283 283 284 285 285
282 287 286 286 288 289 287 287 287 286 284 284 283 283 282 281 281 281 281 281 281 281 280 280 280 280 281 281 281 280 281 281 282 282 282 282 281 281 286 287 288 289 289 287
287 287 286 287 288 288 287 287 286 285 284 282 282 281 280 280 280 283 281 280 280 279 279 279 279 280 281 282 282 281 280 281 282 284 282 281 280 278 279 282 286 287 288 287
286 287 284 286 285 287 286 286 287 283 282 281 280 281 280 279 280 279 279 279 279 279 279 279 280 279 281 282 281 280 280 284 282 281 280 280 280 280 281 280 279 281 285 286
285 285 286 286 285 285 284 283 281 279 279 279 279 278 278 277 277 277 278 279 279 279 279 279 279 280 282 282 281 280 280 281 281 280 281 285 284 282 282 280 280 281 282 283
283 283 284 284 284 282 281 280 278 278 279 279 278 278 278 277 277 277 278 278 277 277 279 279 279 280 281 282 282 281 281 283 284 283 283 283 282 281 281 279 279 280 281 281
278 278 279 278 280 280 279 279 278 278 278 277 278 278 277 276 276 276 276 277 277 277 278 279 279 281 282 282 280 280 280 281 284 284 284 282 282 281 280 280 279 280 281 282
282 281 281 281 279 278 279 279 278 278 277 277 277 276 273 272 271 273 274 275 275 276 277 278 279 281 281 280 280 281 281 281 281 282 283 282 281 281 281 281 281 280 280 281
281 280 280 280 279 278 277 276 275 275 275 274 274 273 271 270 271 272 274 273 273 273 275 278 281 280 278 280 281 281 281 281 281 282 282 282 281 281 281 280 279 279 279 280
279 280 279 278 278 277 276 276 276 275 275 275 274 274 272 272 273 273 273 272 273 274 277 278 279 278 278 279 281 281 280 279 279 280 280 280 280 280 281 281 281 280 281 281
276 277 278 278 277 277 277 276 275 274 275 275 274 273 273 273 272 272 271 272 275 276 279 279 278 278 278 281 282 281 280 279 279 279 279 280 281 280 279 278 278 279 279 280
274 274 273 274 275 275 275 275 274 274 274 274 274 273 273 271 272 272 274 273 275 280 279 278 278 280 281 284 281 279 279 280 279 280 279 279 278 278 277 277 278 278 279 279
275 275 274 274 274 273 273 274 273 273 273 272 272 272 271 271 271 270 271 274 277 278 278 277 280 281 283 280 279 279 279 278 278 278 278 278 278 278 277 276 277 277 277 278
276 275 273 274 272 272 271 271 271 273 272 273 273 272 270 268 271 270 272 276 278 279 278 278 279 281 282 279 278 278 278 277 277 277 278 278 276 277 275 276 276 277 277 278
275 272 272 272 273 273 272 272 271 271 271 272 272 272 271 271 269 272 271 273 276 277 275 277 279 279 277 278 278 277 277 277 277 276 275 275 274 274 274 275 275 275 277 276
274 274 275 274 274 273 273 273 272 272 272 271 272 272 272 272 272 272 271 274 273 276 273 273 274 276 276 277 278 277 277 276 276 275 275 274 273 273 273 273 273 274 275 277
273 276 273 273 273 273 273 273 272 271 272 271 271 272 272 272 271 273 274 272 273 272 272 272 273 274 276 278 277 277 276 276 276 276 274 273 273 272 272 272 273 275 276 276

GFSNGP_sfc_thetae_096.txt.gz
Theta_e
283 285 285 284 283 285 283 282 278 282 282 285 287 287 287 288 288 289 289 289 289 288 288 288 289 290 291 291 292 293 293 293 293 294 294 295 296 296 297 297 298 299 300 300
278 285 284 283 283 284 285 286 284 284 283 288 288 286 286 287 288 288 288 289 289 289 289 288 288 289 289 289 290 291 291 291 292 292 293 293 293 294 294 295 295 296 296 297
275 281 282 278 281 282 284 286 285 282 285 288 287 289 288 287 288 288 288 288 288 287 287 287 287 290 288 288 290 289 289 289 289 290 290 290 291 292 292 291 292 292 294 295
274 278 270 282 285 286 284 287 287 287 288 288 289 287 287 288 288 288 288 288 287 287 287 288 287 288 287 288 287 287 287 288 288 288 288 288 289 288 289 290 291 292 293 294
274 272 279 281 284 285 283 284 287 287 288 288 287 286 284 288 288 288 287 287 288 287 287 286 286 286 285 285 285 285 285 286 287 287 286 286 286 286 287 288 288 290 292 292
277 274 273 281 285 288 286 278 287 288 288 287 287 282 285 288 288 288 287 288 287 286 286 285 284 285 284 284 284 284 285 286 286 286 285 285 285 285 286 286 287 289 290 290
278 275 279 285 287 288 276 277 288 288 288 287 285 287 287 288 287 288 287 286 286 285 284 284 284 284 283 283 282 284 285 285 285 285 284 283 283 284 283 284 284 284 286 286
277 275 272 287 286 281 283 285 288 287 287 287 287 286 287 286 286 286 285 285 285 283 283 283 284 282 282 282 283 283 283 283 283 283 283 284 282 281 281 281 282 282 283 284
280 279 285 287 286 287 287 287 287 287 287 287 286 286 286 286 284 283 283 283 283 282 282 282 282 281 280 281 281 281 281 281 282 283 283 282 280 280 280 281 281 281 282 282
282 282 284 287 287 288 288 287 287 287 287 287 286 285 284 283 283 282 282 281 282 281 280 279 280 280 280 280 280 280 279 279 280 280 282 282 281 282 281 280 280 282 281 281
281 284 285 286 287 288 288 288 287 287 286 285 285 283 281 281 281 281 280 281 281 280 280 279 279 279 279 280 279 278 278 279 280 281 280 281 281 281 282 281 282 282 283 283
283 286 285 285 286 288 287 286 287 285 284 284 283 282 282 280 280 280 279 280 279 279 279 279 279 279 280 280 280 279 279 280 280 281 281 281 281 281 285 287 287 287 288 287
287 286 287 286 287 287 287 286 286 285 284 282 281 281 279 279 280 282 279 278 278 278 278 278 278 278 279 280 280 279 278 279 280 281 281 281 281 279 278 282 286 286 286 287
286 286 283 285 285 287 286 285 287 283 282 281 280 279 278 278 278 278 277 278 278 278 277 277 277 278 279 280 280 279 279 283 280 280 280 281 281 280 280 281 280 280 284 285
285 285 286 286 284 283 283 283 280 279 279 279 279 278 278 277 277 277 278 279 278 278 277 277 277 278 280 280 280 280 279 280 280 280 281 282 282 283 282 282 281 280 280 282
283 284 284 284 283 282 281 279 278 278 278 278 278 278 278 278 277 277 277 277 276 275 276 276 277 278 280 280 280 279 279 282 282 281 281 281 282 282 282 281 280 279 279 280
279 279 279 279 281 280 279 278 278 279 278 277 277 278 277 276 276 275 275 275 276 275 276 277 277 279 280 280 278 279 279 280 283 280 280 280 281 281 281 280 280 280 280 282
284 283 282 282 280 278 278 279 278 278 277 278 277 275 273 272 271 273 274 274 275 275 276 277 278 280 279 279 279 280 279 279 280 279 280 281 281 281 280 280 280 280 280 281
282 281 281 281 279 279 278 277 277 277 276 276 275 273 272 271 272 272 273 273 273 272 273 275 280 279 277 278 280 279 278 279 279 278 278 280 279 280 280 280 280 280 280 279
280 280 279 278 279 278 276 277 276 276 275 275 275 274 273 273 273 273 273 272 273 273 275 277 278 277 277 277 281 281 280 279 279 279 279 280 280 279 280 281 280 279 278 279
278 278 278 278 277 277 277 276 275 274 275 275 274 273 273 273 272 272 271 272 274 275 278 279 277 277 277 280 282 278 277 278 278 278 278 278 279 278 278 278 278 278 278 278
275 275 275 276 276 275 275 275 275 275 274 274 274 273 273 272 272 272 274 272 274 279 278 277 276 279 281 283 277 276 277 277 277 277 277 277 277 277 277 278 277 277 277 277
276 275 275 275 275 274 273 274 274 274 274 273 272 273 272 272 272 270 271 274 276 276 278 275 279 281 282 278 276 277 276 276 275 276 276 276 276 275 275 276 276 276 275 276
275 275 274 273 271 272 272 273 273 274 273 273 273 273 272 270 271 272 273 275 277 277 276 276 277 280 281 275 275 276 275 275 275 275 275 277 275 274 274 274 274 274 274 275
274 274 273 272 272 273 273 273 272 271 272 272 273 273 272 273 271 272 271 272 275 275 274 275 277 278 274 274 274 276 276 275 276 276 274 274 273 272 272 273 273 273 274 274
274 274 274 273 273 274 274 273 272 273 272 271 272 273 273 273 273 272 271 273 271 274 271 271 271 272 273 274 276 275 275 275 275 275 275 273 272 272 272 272 272 273 273 274
271 276 273 272 274 273 273 273 271 272 273 272 271 272 272 272 271 272 273 271 270 270 270 270 270 271 272 273 274 275 275 274 275 275 274 273 272 272 272 272 273 274 274 275

GFSNGP_sfc_thetae_099.txt.gz
Theta_e
282 283 283 283 283 283 281 281 277 281 281 284 286 287 287 288 288 288 288 288 288 287 287 287 288 289 289 290 291 291 292 291 290 291 292 292 292 293 294 295 295 295 296 296
277 284 283 282 283 283 284 284 282 282 282 288 287 286 286 286 287 287 288 288 288 287 287 287 287 288 287 287 289 288 289 288 289 289 289 289 290 290 291 291 292 293 293 294
275 280 281 278 281 282 284 285 284 281 285 287 287 288 287 286 287 287 288 288 287 286 286 286 286 287 286 286 286 286 286 287 287 287 287 287 288 288 287 288 289 289 291 292
274 277 269 280 284 285 284 286 287 286 287 288 288 287 287 287 287 287 287 287 287 286 286 286 286 286 286 286 285 285 284 285 286 286 285 285 285 285 285 286 286 287 288 290
273 271 278 280 283 283 283 283 287 287 286 286 286 285 285 287 288 287 286 286 287 286 286 284 284 285 284 284 284 284 284 284 285 285 284 284 284 283 284 285 284 285 287 288
277 273 272 279 284 288 285 278 286 288 287 286 286 281 284 287 288 287 287 287 286 285 284 283 283 283 283 283 283 282 283 284 284 284 284 283 283 282 283 283 284 285 285 285
278 275 279 283 286 287 276 277 286 288 288 286 285 286 287 287 287 287 286 283 284 283 282 282 282 282 281 281 281 282 283 282 283 283 282 282 281 281 281 281 281 281 282 283
276 274 273 286 285 281 284 284 287 287 287 287 287 287 287 287 286 284 282 283 282 282 282 282 282 280 279 279 281 281 280 280 280 280 281 281 279 279 279 279 279 280 280 282
280 279 284 286 285 286 286 287 287 286 287 287 286 286 286 286 283 282 281 282 281 280 280 280 280 279 278 279 280 279 279 278 279 280 280 281 279 279 279 279 279 280 281 281
282 283 283 286 287 288 287 287 287 287 287 287 286 286 284 283 282 281 280 280 280 280 279 278 279 279 278 278 279 278 277 277 277 277 280 280 280 281 280 280 278 281 281 280
281 283 284 286 286 287 287 287 286 286 286 286 285 283 282 281 280 280 280 280 280 278 278 278 278 278 278 278 278 277 277 278 278 279 278 279 280 280 281 281 280 280 282 282
283 286 285 285 286 287 286 286 286 285 284 284 284 282 281 280 279 279 278 278 277 278 278 277 277 277 278 279 278 277 278 278 279 280 279 280 280 280 285 287 288 288 287 286
289 286 285 286 286 285 287 286 286 284 284 282 281 281 280 279 279 280 277 277 277 277 277 277 277 277 278 279 279 278 278 279 279 280 279 279 279 279 278 282 286 286 286 286
286 285 284 284 286 286 285 286 287 282 282 281 280 279 278 278 278 277 277 277 278 277 277 277 277 277 278 279 279 278 278 281 279 279 279 279 279 280 280 279 279 280 285 285
285 285 286 285 285 284 283 281 279 278 278 278 278 278 278 277 277 277 277 278 277 276 276 276 276 276 278 278 279 279 278 278 279 280 280 282 281 280 281 281 281 281 281 283
283 283 282 283 282 281 281 279 278 277 277 277 277 277 277 277 277 277 276 276 275 274 276 276 277 277 278 279 279 277 278 280 281 280 280 279 279 279 280 280 281 281 279 279
277 278 279 279 281 280 280 279 278 278 278 277 277 277 277 276 276 275 275 275 275 275 276 277 277 278 279 279 277 277 277 278 281 279 278 278 278 278 280 280 280 280 280 281
283 283 284 283 281 280 279 279 279 278 276 277 277 275 273 273 274 274 274 274 274 274 276 276 277 278 279 278 278 278 278 278 279 279 279 278 278 279 279 280 280 280 280 281
281 281 281 282 281 280 279 278 277 277 276 275 274 272 274 274 274 272 273 273 273 272 273 275 278 279 277 278 280 278 278 278 279 278 279 279 278 278 279 279 280 280 280 280
279 279 280 279 279 278 277 277 276 275 275 275 275 274 273 273 273 273 273 272 273 273 275 276 278 277 277 277 280 280 276 277 277 277 278 278 276 277 278 279 278 278 278 278
274 275 277 278 277 278 277 277 276 274 275 275 275 274 274 274 273 273 271 272 274 275 277 278 277 277 277 279 281 277 274 277 276 276 276 275 276 276 277 277 278 278 277 277
273 272 272 275 275 275 275 275 275 275 275 275 275 274 273 272 273 273 274 273 274 278 277 277 276 277 280 282 277 275 276 277 276 275 275 275 275 274 275 275 275 276 276 275
274 273 273 274 274 273 273 274 274 275 274 274 273 273 272 272 273 271 271 274 275 276 277 275 277 280 281 279 275 274 275 274 274 275 274 275 275 274 274 273 273 274 273 273
274 274 271 270 269 269 269 271 273 274 274 274 273 274 273 271 272 273 274 276 276 277 276 275 277 279 280 274 274 274 273 272 273 274 274 276 274 273 272 272 272 272 272 273
273 271 270 269 270 271 271 272 271 271 272 273 273 273 273 273 272 271 271 273 275 275 273 275 277 276 272 271 272 273 272 271 274 275 273 274 273 272 272 272 272 272 273 273
273 274 274 273 273 272 273 272 272 273 272 271 273 273 273 273 273 273 272 273 273 274 271 271 270 271 271 270 272 272 273 273 273 272 274 273 273 273 273 273 273 273 273 273
270 276 271 271 272 272 273 273 271 272 274 273 272 272 273 273 272 273 273 271 271 270 270 270 269 269 271 271 271 270 271 272 273 273 272 271 272 272 273 273 273 273 273 274

GFSNGP_sfc_thetae_102.txt.gz
Theta_e
281 283 282 283 283 282 281 280 277 279 280 284 286 287 288 288 287 286 286 287 287 286 286 286 287 288 288 288 289 289 290 289 287 289 289 289 289 289 289 290 290 292 292 293
276 283 282 281 282 282 282 284 282 282 282 287 285 285 285 286 286 286 287 287 287 286 285 285 285 286 286 285 286 286 285 286 287 287 287 286 286 287 287 287 288 288 288 290
275 279 280 277 280 282 283 284 284 281 284 286 285 287 287 286 286 287 287 288 287 285 286 285 285 286 284 284 284 284 283 284 285 285 285 284 285 284 284 284 285 285 286 287
274 277 268 279 283 284 283 284 286 285 286 288 287 287 287 287 286 287 288 287 286 286 285 285 284 285 284 284 283 283 283 283 284 284 284 284 284 283 282 283 283 283 284 286
272 270 278 279 281 282 282 282 285 286 286 285 285 284 285 288 288 287 287 287 286 286 285 283 282 283 283 283 283 283 282 282 282 283 282 282 282 282 282 282 282 282 284 284
276 272 271 276 283 286 284 277 283 287 287 285 285 281 284 287 287 287 287 286 285 284 283 282 282 282 282 281 281 281 281 281 282 282 281 280 280 279 280 281 281 282 282 283
277 274 278 282 285 286 275 276 284 287 287 285 284 286 287 287 286 286 286 284 284 282 281 281 281 280 280 280 279 281 281 281 280 280 279 279 279 279 279 280 280 279 280 281
275 274 272 285 284 281 283 283 286 286 287 286 286 285 285 286 285 284 283 282 281 280 280 280 280 279 278 277 279 279 279 279 278 278 279 280 277 277 277 277 277 278 279 280
279 279 284 285 286 286 285 286 286 286 287 288 287 285 286 285 283 282 281 280 280 279 279 279 278 277 276 277 277 277 277 277 277 278 278 279 277 278 278 278 277 278 280 280
281 282 283 284 285 286 287 286 286 287 287 287 286 285 285 283 281 280 280 279 279 278 277 276 276 277 276 277 277 277 276 276 277 276 278 278 278 279 278 278 278 280 280 280
279 284 283 286 285 286 287 287 287 286 286 286 285 284 283 282 280 280 280 279 279 277 277 277 277 277 278 278 278 277 277 277 277 278 277 277 279 278 280 280 280 282 282 282
282 286 284 286 285 286 285 286 286 286 283 283 284 283 282 280 279 279 279 278 278 278 278 278 278 278 278 278 278 277 278 278 278 279 278 278 278 279 283 285 286 287 287 286
287 284 285 286 286 287 286 286 286 285 284 283 282 282 280 278 279 281 277 277 277 277 278 277 276 277 278 278 278 278 277 278 279 279 278 278 279 279 278 281 285 285 286 287
286 283 283 284 285 286 286 286 288 283 282 281 280 279 278 278 278 276 276 276 277 277 276 276 275 275 277 277 278 278 277 280 278 277 278 279 279 280 279 278 278 280 284 285
284 284 285 284 284 283 282 282 280 280 278 277 278 278 277 276 276 276 276 277 277 276 276 275 275 275 277 277 279 278 277 277 278 280 279 280 279 278 279 278 279 280 280 283
283 282 282 282 283 282 281 280 279 278 278 277 277 277 277 277 276 276 276 275 274 274 275 275 276 277 278 278 278 277 276 279 280 279 279 278 278 278 278 278 279 279 280 280
276 278 279 278 281 280 280 279 279 278 278 277 277 278 277 276 276 275 274 275 275 275 275 276 276 278 278 279 277 277 276 277 281 278 278 279 279 278 278 278 278 279 279 281
281 282 282 282 280 280 279 279 278 278 277 278 277 276 274 274 273 274 275 275 274 274 276 277 277 278 280 278 278 278 278 278 278 278 278 278 278 279 278 277 278 278 279 281
281 282 282 282 281 280 278 276 276 276 275 275 274 274 274 274 274 274 274 273 272 272 273 275 278 279 278 278 279 279 277 277 277 277 278 279 277 277 276 277 278 277 278 278
280 280 279 278 279 278 277 277 276 275 275 275 274 273 273 273 275 273 273 271 272 273 275 275 278 278 278 277 280 278 279 277 277 277 277 277 276 275 276 276 276 276 277 277
274 275 277 278 277 277 277 275 274 274 274 274 274 273 274 274 273 273 271 272 275 276 276 278 277 277 277 278 280 277 275 276 277 276 275 275 275 275 275 275 275 274 275 275
272 271 271 273 275 275 275 274 274 274 273 273 274 274 274 273 273 272 274 273 275 278 277 276 277 278 279 281 277 274 273 274 275 275 274 275 274 274 274 274 273 273 273 273
274 274 273 273 273 272 271 273 273 273 273 272 272 273 273 272 273 272 271 274 275 276 277 276 277 280 280 276 274 273 273 273 273 273 274 274 275 274 274 272 272 273 272 272
275 275 274 272 269 268 269 269 269 272 271 272 272 272 271 270 272 273 273 276 277 276 276 276 277 279 279 271 270 270 271 272 273 272 273 276 273 274 272 272 272 272 272 272
275 274 272 270 271 273 271 270 268 268 269 271 271 271 271 271 271 271 271 273 275 275 274 275 277 276 272 270 268 268 270 271 272 274 272 272 272 272 272 272 272 272 273 273
274 275 275 274 275 274 272 271 271 271 271 270 271 272 272 272 272 274 271 273 272 273 272 272 271 271 270 269 269 270 269 270 271 271 273 272 271 271 272 272 273 273 273 273
272 277 273 272 273 273 272 272 270 271 274 272 271 272 273 272 272 273 274 272 271 271 271 271 270 269 270 269 269 269 269 270 271 271 272 270 270 271 272 272 273 274 274 275

GFSNGP_sfc_thetae_105.txt.gz
Theta_e
282 283 283 283 283 282 280 281 279 280 281 285 287 289 291 292 291 289 289 289 289 289 289 288 289 289 289 289 289 289 289 289 288 289 289 288 288 288 288 289 290 290 290 290
276 283 283 281 282 282 283 283 282 282 283 288 289 289 288 289 288 287 288 289 289 289 288 288 287 288 287 287 287 287 286 286 287 287 287 287 287 287 287 287 288 288 288 288
275 279 279 276 280 281 283 283 284 282 286 288 287 287 288 288 288 288 288 289 289 288 288 288 287 288 287 286 286 286 285 285 285 285 285 285 286 285 285 285 286 286 286 287
275 277 269 279 284 284 283 285 286 286 287 288 289 289 289 289 288 288 289 289 288 288 288 287 287 286 286 286 285 285 284 284 284 284 284 284 284 284 284 285 285 285 286 286
273 272 278 278 282 283 282 283 285 286 287 288 288 287 288 289 289 289 289 289 288 288 287 285 284 285 285 284 284 284 283 283 283 283 283 283 283 283 283 283 284 284 285 285
276 272 272 277 283 287 285 278 283 286 287 287 287 284 287 288 289 288 288 288 287 286 285 284 283 283 283 282 282 282 283 283 283 283 282 282 282 282 283 283 282 284 283 284
277 274 278 283 285 285 277 278 285 287 288 286 286 288 288 288 288 288 287 286 285 284 283 283 282 282 281 281 280 282 282 282 282 282 281 281 281 281 281 281 281 281 282 283
276 274 272 285 285 281 284 283 286 287 288 287 287 287 287 287 286 286 285 284 283 282 282 282 282 280 280 279 280 280 280 280 280 280 280 281 280 280 280 280 280 280 280 281
279 279 284 285 286 286 286 287 287 287 288 288 288 287 287 286 285 284 283 282 281 281 280 280 280 279 278 279 279 279 279 279 279 280 280 280 280 280 280 280 280 280 281 281
281 282 283 284 285 286 286 287 287 288 289 288 287 287 286 285 283 282 281 281 281 280 279 278 278 278 278 279 279 279 278 278 279 279 281 280 281 281 280 280 279 280 281 282
279 283 284 285 284 286 286 286 286 287 288 287 287 285 285 284 282 281 281 280 280 279 278 278 278 279 279 279 279 278 278 279 279 279 279 279 280 280 280 282 282 282 282 283
282 285 284 284 286 286 286 287 287 286 285 286 286 286 284 282 281 280 279 279 279 279 279 278 278 278 279 279 279 278 278 279 279 279 279 279 279 279 283 284 285 285 285 285
287 285 285 285 285 286 286 288 287 286 286 284 283 283 282 279 279 281 278 278 278 278 278 277 277 277 278 279 279 279 278 278 279 279 278 278 279 279 278 281 283 284 284 285
285 282 283 284 284 285 285 285 288 284 284 283 281 280 279 278 280 277 277 277 278 277 276 276 276 276 278 279 279 278 278 279 278 278 278 279 279 280 278 278 278 279 282 283
285 284 285 284 282 283 283 283 282 281 279 279 279 278 278 277 277 277 277 278 277 276 276 276 276 276 278 278 278 278 278 277 278 279 280 280 279 279 279 278 278 278 279 282
283 282 281 281 282 282 282 281 281 280 278 277 277 278 277 277 277 277 277 276 275 275 276 276 276 277 278 278 278 278 277 279 280 280 279 278 279 279 278 278 278 278 278 279
278 279 279 278 281 281 281 281 281 279 278 277 277 277 277 276 276 275 275 275 276 276 276 276 276 278 278 279 278 277 277 278 280 278 278 278 278 278 278 278 277 277 278 280
281 282 281 282 280 281 281 281 280 279 277 278 277 276 274 272 272 274 274 275 275 275 276 277 277 278 279 279 278 278 278 278 278 278 278 278 278 278 277 277 276 276 277 278
281 281 281 282 282 281 280 278 278 276 276 275 274 272 271 270 271 273 274 273 273 273 274 275 278 279 278 279 279 279 278 278 278 277 278 278 277 277 276 276 276 276 276 276
281 280 281 280 281 280 278 278 277 275 275 275 274 272 272 272 274 274 273 272 273 274 275 276 278 278 278 277 279 279 279 277 276 277 277 277 275 275 276 276 276 276 275 275
278 277 278 279 279 279 279 277 276 275 275 274 273 273 273 273 273 273 271 272 274 276 276 278 277 277 277 278 280 278 276 274 274 275 275 274 274 274 275 275 275 275 274 274
274 273 274 275 276 277 276 276 275 274 274 273 273 273 273 272 272 271 273 272 274 278 277 277 277 278 279 281 276 274 273 273 273 273 273 273 273 273 274 274 274 274 274 274
276 275 274 274 275 274 274 274 274 274 273 271 272 272 272 272 272 271 271 273 275 276 277 277 278 279 280 275 273 272 271 271 272 272 273 273 273 273 273 273 274 274 273 273
276 276 273 273 271 271 271 272 272 273 272 272 271 272 270 269 269 270 273 276 278 277 276 276 277 279 279 273 271 270 270 270 271 271 272 275 272 272 273 273 273 274 274 273
276 275 272 272 272 274 274 273 271 270 270 271 271 271 271 271 271 269 269 272 276 275 274 276 277 276 273 271 269 269 269 270 270 272 271 270 271 271 272 272 273 274 275 275
277 277 277 275 276 275 274 273 273 272 272 271 271 272 271 272 271 272 271 273 272 273 272 272 271 272 271 270 270 271 270 269 270 269 271 271 271 271 271 272 272 273 274 275
277 280 274 274 274 274 274 274 273 272 274 272 271 271 272 272 271 271 274 271 270 269 270 271 271 270 270 270 270 269 269 269 270 271 271 269 270 270 271 272 272 273 274 276

GFSNGP_sfc_thetae_108.txt.gz
Theta_e
289 290 289 288 288 288 286 287 283 287 286 291 294 296 297 298 298 297 296 295 295 295 295 294 294 294 292 291 291 291 291 290 290 291 291 290 290 290 289 290 290 290 290 290
283 289 288 285 287 288 288 288 287 288 287 295 297 297 297 297 297 296 295 295 295 295 294 294 293 293 291 291 291 291 290 289 289 289 288 288 288 287 287 287 287 288 288 288
282 286 286 282 286 287 287 289 289 285 291 295 293 294 296 297 297 296 295 296 295 295 295 294 293 292 291 291 291 290 289 288 287 287 287 287 287 287 287 287 287 287 288 288
283 285 277 284 289 289 288 290 291 291 293 294 295 297 297 298 298 297 296 296 296 296 295 294 292 291 291 290 289 288 288 287 287 286 286 287 287 286 287 287 287 287 287 287
282 280 285 285 287 287 286 287 291 291 293 294 295 294 296 297 298 298 298 298 298 297 295 292 290 290 289 288 288 287 286 286 286 286 286 286 285 286 286 286 286 286 286 286
283 278 277 284 289 292 291 284 290 291 292 293 293 290 295 297 297 296 296 297 295 294 292 290 289 289 287 286 286 285 285 285 286 286 285 285 285 285 285 285 285 286 285 286
282 280 285 291 291 292 282 285 291 293 294 294 292 296 295 295 294 296 295 294 293 291 290 289 288 287 286 285 285 285 285 285 285 285 284 284 284 285 285 284 284 285 285 286
283 280 278 291 290 286 291 291 292 294 295 294 296 295 294 294 294 293 291 290 290 289 288 287 287 286 285 284 284 284 284 284 284 284 284 284 284 284 284 284 283 284 284 285
286 286 292 292 295 294 293 292 293 293 295 295 295 295 295 293 292 292 290 289 287 287 286 285 284 284 283 283 283 283 283 283 283 283 283 284 283 283 283 283 283 283 283 283
285 291 290 292 293 293 293 292 294 294 293 294 293 295 294 293 292 289 287 286 285 285 284 283 282 282 282 282 283 282 282 282 283 282 283 283 283 283 282 283 282 282 282 282
287 290 291 292 293 294 293 292 292 293 293 293 293 293 294 293 291 288 286 285 284 283 283 282 282 282 282 282 282 281 281 282 282 282 282 282 282 282 282 283 283 282 283 283
286 292 292 293 293 293 292 292 293 292 292 292 292 293 292 291 290 287 285 284 283 283 282 282 282 281 281 282 282 281 281 281 281 281 282 281 282 282 284 284 285 284 285 284
292 295 293 294 293 293 291 291 291 291 292 292 291 292 290 289 287 286 284 283 283 282 282 282 281 280 281 281 281 280 280 280 281 281 281 281 281 281 280 282 283 284 284 284
294 292 290 290 291 291 290 290 290 290 290 290 290 289 287 285 285 284 283 283 282 282 280 280 280 280 281 281 280 280 281 281 280 280 281 281 281 281 280 279 278 280 283 283
291 291 292 291 288 288 289 288 288 288 288 285 286 286 285 284 284 283 282 282 281 280 280 279 279 279 280 280 280 280 280 280 280 281 281 281 281 280 280 280 279 280 281 282
289 289 288 287 287 286 286 287 286 287 286 285 284 284 284 284 283 282 281 281 279 279 280 279 279 280 280 280 280 280 280 280 280 281 281 280 280 279 279 279 279 279 279 279
285 285 285 284 286 286 286 287 287 288 285 284 284 283 282 281 281 280 280 279 279 279 279 279 279 280 280 280 280 280 279 280 281 281 280 279 279 278 279 279 278 278 278 279
289 289 287 286 285 286 286 286 285 285 284 284 283 281 280 279 280 279 279 279 278 278 279 280 280 280 280 281 280 280 280 280 280 279 279 279 278 279 278 278 277 277 278 278
285 285 286 286 286 286 286 285 284 284 282 282 280 280 280 279 279 278 278 277 277 277 279 279 279 280 280 280 280 280 280 280 279 279 279 279 279 278 277 277 277 277 277 277
285 285 285 285 285 285 285 284 284 282 281 281 280 279 278 277 278 278 277 277 278 279 279 279 279 280 279 279 280 281 280 279 278 277 278 278 277 277 277 277 277 277 277 277
283 283 283 283 283 284 283 283 281 280 280 280 279 279 278 278 278 278 276 276 278 279 279 278 279 279 279 279 281 281 279 277 276 276 276 276 276 276 276 276 276 276 276 276
283 281 280 281 281 282 282 281 281 280 279 278 278 278 277 277 277 277 278 278 279 279 279 279 279 279 280 281 280 278 276 275 275 275 275 275 275 275 275 276 275 276 276 277
282 282 281 280 280 281 280 280 279 279 278 278 277 277 277 278 278 276 276 278 278 278 279 279 279 279 280 279 277 276 274 274 274 274 275 275 275 275 275 275 275 276 276 276
283 282 281 280 278 278 278 278 278 278 278 278 277 277 277 276 276 278 279 279 279 279 279 278 278 279 279 277 275 274 273 273 273 274 274 275 275 274 275 275 275 275 276 276
283 282 280 278 277 279 279 279 277 276 276 276 276 276 276 278 278 279 277 277 278 278 278 277 277 277 276 275 274 273 273 273 273 274 275 274 274 274 274 275 275 275 277 277
282 281 281 280 281 281 279 278 277 277 276 276 276 276 276 276 276 277 276 277 276 277 277 276 275 275 275 274 274 274 274 273 273 273 273 274 274 274 274 274 275 275 276 276
283 284 280 279 279 279 279 278 277 277 278 277 277 276 276 276 276 276 276 276 276 276 275 275 275 274 274 274 274 273 273 273 273 273 274 274 273 273 273 274 275 275 276 277

GFSNGP_sfc_thetae_111.txt.gz
Theta_e
290 291 290 289 289 289 287 288 284 287 287 291 294 296 298 300 299 298 298 299 299 298 298 297 296 295 294 293 292 292 291 291 290 290 290 289 289 288 288 288 288 289 289 289
285 289 290 287 289 289 289 289 289 289 289 295 297 298 298 299 299 298 299 299 298 298 298 297 296 295 293 292 292 292 291 290 290 289 288 288 288 288 288 288 288 288 288 288
283 289 288 284 288 289 289 290 290 286 291 295 295 296 297 299 300 299 300 300 298 298 298 298 296 295 293 292 292 291 290 289 288 288 287 288 288 287 287 287 287 287 287 287
283 286 279 287 292 290 289 291 292 292 293 295 296 298 300 301 300 300 301 300 299 299 299 298 296 293 293 292 290 289 289 288 288 287 287 287 287 287 287 287 286 286 287 287
282 283 286 288 288 288 287 288 293 292 294 295 296 297 296 300 301 301 302 301 301 301 299 298 294 293 292 290 289 289 288 287 287 287 286 286 285 285 286 286 286 286 286 286
286 279 278 286 292 294 293 284 294 293 293 294 295 289 294 299 301 301 300 300 299 299 297 295 293 291 289 289 288 287 286 286 286 286 285 285 285 285 286 286 285 286 286 287
283 281 285 293 293 294 282 286 293 295 294 294 293 295 298 298 297 299 299 298 298 296 293 293 291 289 288 287 286 286 286 286 285 285 284 285 285 285 285 285 285 285 285 286
284 282 279 294 292 287 292 295 294 295 295 294 296 297 298 298 297 296 295 295 295 293 291 290 289 287 286 285 285 285 285 284 284 284 284 284 284 285 285 284 284 284 284 284
288 288 295 295 295 297 296 294 295 295 295 296 295 295 297 297 297 296 295 293 292 291 289 288 287 286 284 284 284 284 283 283 283 284 284 284 283 283 283 283 283 283 282 283
288 292 293 295 296 296 296 295 296 296 296 295 294 295 295 296 297 295 294 291 290 289 287 286 285 284 284 284 284 283 282 282 283 283 283 283 283 283 283 282 282 281 281 282
289 292 294 295 296 297 297 296 295 296 295 295 295 295 295 295 296 295 292 290 288 287 286 285 284 284 284 283 283 282 282 282 282 283 282 282 283 283 282 283 283 282 282 282
287 294 294 295 296 295 294 294 296 295 293 295 295 294 295 295 296 293 290 288 286 286 285 284 283 283 283 283 283 282 281 282 282 282 282 282 282 282 285 285 285 285 285 284
293 297 295 296 295 296 294 295 295 293 292 292 294 294 295 294 293 292 289 287 286 285 284 284 283 282 283 283 282 281 281 281 281 282 281 281 281 281 280 283 284 284 284 284
297 296 294 295 293 295 295 294 293 292 292 292 293 293 293 291 290 288 286 286 285 284 283 283 282 281 283 283 282 281 281 282 281 281 281 281 281 281 281 280 279 280 283 283
295 295 294 295 292 292 292 291 289 288 290 290 291 290 289 287 287 286 286 284 283 282 282 281 281 281 282 282 281 280 281 281 281 281 281 282 282 281 280 280 280 279 280 281
293 293 293 291 291 291 290 288 287 288 290 289 287 287 287 288 287 284 283 283 281 280 281 281 280 281 282 281 280 281 281 281 281 280 281 281 280 280 279 279 279 279 279 279
287 286 288 288 288 288 288 289 289 289 289 287 287 286 285 284 283 282 282 282 281 281 281 281 281 282 281 281 281 281 280 280 281 281 280 280 280 279 279 279 279 278 278 279
293 292 291 290 288 288 288 288 288 288 287 287 286 284 283 282 281 281 281 281 280 280 280 281 281 281 281 281 281 281 280 280 280 280 280 280 279 280 279 279 278 277 278 279
292 290 289 288 288 287 287 287 287 286 285 284 283 282 282 282 282 281 281 279 278 278 280 281 281 280 281 281 281 280 280 280 280 280 279 279 279 279 278 278 277 277 277 277
288 288 288 288 288 287 286 287 287 286 285 284 283 282 281 281 280 279 279 278 279 280 281 280 280 280 280 281 280 280 280 279 279 278 278 278 278 277 277 277 277 277 277 277
285 286 286 286 286 286 286 287 285 284 283 283 282 281 280 280 280 279 278 277 279 280 280 280 279 280 280 280 280 280 280 279 278 277 276 277 277 276 276 276 277 276 276 276
286 284 283 284 285 285 285 285 284 283 282 281 281 281 280 279 278 278 279 279 281 281 280 280 280 280 280 281 281 280 279 277 276 276 275 276 276 275 275 276 276 276 276 276
286 285 285 284 283 284 284 283 282 282 281 280 280 279 279 279 279 277 276 279 280 280 280 280 281 280 280 280 280 279 277 276 275 275 275 275 275 275 275 275 275 276 276 276
286 285 284 284 283 282 281 282 281 280 281 281 280 280 280 278 279 280 281 281 281 280 279 280 280 280 280 280 278 276 275 275 275 275 275 276 275 275 275 275 275 275 275 276
285 285 283 282 281 282 282 282 280 279 279 279 279 279 280 281 280 280 279 279 281 280 279 280 280 280 278 278 276 275 275 275 275 275 275 275 274 274 274 275 275 275 276 277
285 285 285 284 284 283 282 281 280 280 279 278 278 278 278 279 279 279 278 279 278 279 278 278 277 277 276 276 275 275 275 275 274 274 274 274 274 274 274 274 274 275 275 276
285 287 284 283 282 282 281 281 280 281 281 279 279 279 278 278 278 278 278 277 277 277 277 277 276 276 276 275 275 275 274 274 274 274 274 274 274 274 274 274 274 275 275 276

GFSNGP_sfc_thetae_114.txt.gz
Theta_e
287 289 288 287 287 287 284 285 281 284 284 288 290 291 293 295 296 295 295 296 295 295 294 292 291 291 290 288 288 288 287 286 285 285 285 285 285 285 286 287 286 286 287 287
280 287 287 284 287 287 287 287 287 287 286 292 293 292 291 292 294 295 295 296 296 296 294 293 291 291 290 289 288 288 286 285 286 285 284 284 284 284 284 284 284 284 284 284
278 285 284 280 285 286 287 287 287 283 288 291 290 292 292 293 294 295 296 296 296 295 294 293 292 291 289 289 288 287 286 286 285 284 284 284 284 283 283 282 282 282 283 283
279 280 272 284 287 288 286 289 289 289 290 290 291 292 294 294 294 295 296 297 297 294 294 294 292 290 289 289 287 286 285 285 285 284 284 284 283 282 281 282 281 282 282 283
275 276 283 285 286 285 284 284 289 288 289 290 290 291 290 295 295 295 295 296 296 295 294 292 290 289 289 288 287 287 286 284 284 284 283 282 281 281 281 281 281 281 283 282
279 275 274 282 288 291 289 279 289 290 289 289 291 283 286 293 294 295 296 295 294 294 293 290 288 287 286 285 285 284 284 284 285 285 284 283 282 281 282 282 283 284 283 284
281 279 281 288 290 291 276 280 289 290 290 290 288 289 292 294 293 293 294 293 294 292 290 288 286 286 284 284 282 283 283 283 283 283 281 282 281 282 282 282 283 283 283 282
281 277 275 290 288 283 287 288 290 291 291 290 291 292 292 293 293 293 292 292 292 289 287 285 285 284 283 282 282 282 282 281 281 280 281 282 279 280 280 280 280 280 280 281
284 283 290 292 290 292 292 290 290 289 290 291 291 291 292 292 293 292 292 290 290 287 285 284 284 283 281 281 281 281 280 279 279 279 280 280 279 278 278 279 279 279 279 279
285 286 289 292 293 293 293 292 292 291 291 291 290 291 291 291 292 292 291 288 287 286 284 282 282 281 280 280 281 279 278 278 278 278 279 279 280 280 279 278 277 279 279 279
286 289 290 292 293 294 293 292 291 292 292 291 290 290 291 290 291 291 289 287 286 284 283 282 281 280 280 280 279 278 278 278 278 279 278 278 279 279 279 280 280 279 280 281
286 290 289 289 290 291 290 290 292 291 291 291 290 290 291 290 291 290 287 285 284 283 282 281 281 280 280 280 279 278 277 278 278 279 278 278 278 279 284 285 286 286 286 284
291 293 291 291 291 291 291 291 292 291 290 288 289 290 291 290 290 291 286 284 283 282 281 281 280 280 280 280 279 278 277 278 278 280 278 277 277 278 278 281 285 284 285 285
294 292 290 290 289 291 290 291 292 289 289 288 288 290 290 289 288 286 284 284 283 282 281 280 279 279 280 280 279 278 277 281 279 278 277 277 278 278 278 278 277 278 282 283
293 291 292 290 289 288 289 289 287 286 286 286 288 288 288 285 284 284 283 282 281 280 280 279 278 278 280 279 279 277 277 277 278 277 277 279 278 278 278 278 278 278 278 281
288 289 289 289 288 288 287 287 285 284 285 286 285 285 285 285 284 282 281 280 279 278 278 278 277 278 279 279 278 277 277 281 281 278 277 278 278 277 278 278 277 277 278 277
282 282 283 283 285 286 286 286 286 286 286 285 284 284 283 282 281 280 280 280 279 278 278 278 278 279 280 279 277 277 277 277 281 278 277 277 276 276 277 277 277 277 277 278
289 288 288 286 285 285 284 285 285 285 284 284 283 282 280 279 280 279 279 278 277 277 278 279 279 279 279 279 278 278 277 277 277 276 277 277 276 277 277 278 277 276 276 277
289 288 287 287 286 284 284 282 283 282 282 282 281 281 280 279 280 279 279 277 276 275 276 278 282 281 278 279 280 277 275 274 276 276 277 278 275 276 277 277 277 276 276 276
286 286 286 285 285 285 283 284 285 284 284 282 281 280 279 280 280 279 278 277 276 277 279 278 280 278 278 278 282 274 274 275 277 276 276 274 274 274 277 277 277 276 275 275
281 281 283 284 284 284 284 284 283 283 282 282 281 280 280 280 279 278 277 276 277 279 278 280 278 277 278 279 278 275 275 278 275 272 272 272 272 274 276 275 275 275 275 275
281 281 282 281 282 283 283 283 283 282 281 280 280 280 279 278 278 278 278 277 277 283 279 278 278 279 278 281 276 275 279 273 270 270 269 271 272 274 275 275 274 275 274 274
284 284 283 281 282 282 282 283 282 282 281 280 280 280 279 279 279 277 276 278 278 281 278 278 280 282 282 279 276 275 272 269 269 269 270 269 273 274 274 274 274 275 274 273
285 284 283 281 280 279 280 281 281 281 281 281 281 280 279 277 278 279 280 282 281 281 279 278 280 282 282 276 273 270 269 268 268 267 269 275 275 275 274 274 274 274 274 274
286 285 282 279 279 281 282 281 279 278 279 280 280 280 280 280 280 279 279 279 282 281 278 281 282 282 278 274 271 270 269 267 267 266 269 273 273 273 274 274 274 274 274 274
283 283 283 283 283 283 282 281 281 280 279 279 279 279 279 280 279 280 278 279 278 281 277 277 278 278 275 273 272 271 270 269 271 268 270 270 273 273 274 274 272 272 273 273
282 286 281 280 282 283 282 282 280 281 282 280 281 281 280 278 278 279 279 278 277 278 277 276 277 278 273 272 273 272 270 270 272 268 269 269 270 268 271 273 272 273 273 273

GFSNGP_sfc_thetae_117.txt.gz
Theta_e
285 286 286 286 286 286 284 285 280 283 282 287 287 288 290 292 294 293 293 294 295 295 294 293 292 289 288 287 287 287 286 285 284 283 283 283 282 283 283 283 283 283 283 284
277 285 285 282 285 285 286 286 286 286 285 292 293 289 288 290 291 293 294 295 296 296 294 291 290 289 288 287 287 287 286 285 285 284 283 283 282 282 282 282 281 282 282 282
276 282 281 277 283 283 284 285 286 282 287 290 288 290 290 291 292 292 294 295 295 295 294 292 290 290 288 287 287 286 285 285 284 284 284 284 283 283 282 281 281 280 281 282
276 278 271 281 286 287 286 287 288 288 288 288 289 290 290 290 291 293 293 295 295 295 293 292 291 289 288 287 286 285 284 284 284 283 282 283 282 281 281 282 282 282 282 282
274 273 280 283 284 283 282 282 287 288 289 288 289 288 286 293 292 292 293 294 295 294 292 290 288 288 288 287 285 285 284 283 283 283 282 281 280 279 280 280 280 281 282 283
277 273 274 281 285 289 287 278 286 287 287 288 289 282 284 291 293 293 293 293 293 292 290 288 286 287 286 285 284 283 283 283 283 282 281 280 279 279 279 280 281 282 282 282
281 279 280 287 288 288 277 281 287 289 288 289 287 288 289 292 293 293 293 292 291 290 289 287 286 286 284 283 282 283 283 282 282 281 280 279 279 279 279 279 279 278 279 279
280 278 274 288 287 283 287 286 289 288 288 289 290 290 290 291 291 292 292 292 290 288 286 285 285 284 283 282 282 282 281 281 280 279 280 280 277 278 278 277 277 277 277 278
283 282 288 290 289 291 289 288 289 288 290 291 290 289 291 290 290 291 291 290 289 286 284 283 283 283 282 281 280 280 279 278 278 278 279 279 277 277 277 277 277 277 278 277
284 287 289 292 292 291 291 290 291 291 291 290 289 289 289 289 289 290 290 289 288 285 283 282 282 281 280 279 280 279 277 276 277 277 278 277 278 279 277 277 276 278 278 278
285 289 290 291 291 292 292 291 291 291 290 290 290 289 289 289 289 289 289 288 286 284 283 282 280 280 279 279 279 277 277 277 277 278 276 277 278 277 279 278 279 279 280 281
285 291 290 291 289 290 289 290 290 289 289 290 290 289 289 288 289 289 288 285 284 283 282 282 280 279 279 279 278 277 277 277 277 278 277 277 277 277 282 284 285 285 286 284
290 293 291 290 290 290 290 290 291 290 290 289 289 288 288 288 289 291 287 284 283 283 282 280 279 279 279 279 278 278 277 277 278 279 277 277 277 277 276 279 284 284 284 284
290 290 289 290 290 290 290 290 292 290 289 288 288 288 288 288 289 288 285 285 283 282 280 280 279 279 279 279 279 277 277 281 278 277 276 276 277 277 277 277 277 277 281 282
290 290 291 290 289 288 289 288 287 286 286 286 286 286 287 287 286 286 285 283 282 281 280 279 278 278 279 279 279 277 277 277 277 276 277 278 278 277 277 277 277 277 277 280
289 288 288 287 287 287 287 286 285 285 285 284 284 285 286 286 285 284 282 281 280 280 279 278 278 278 279 279 278 277 276 281 281 277 277 277 277 277 276 276 275 276 277 277
284 285 283 283 285 286 286 286 285 285 284 284 285 285 284 284 283 281 280 280 280 280 279 279 278 279 279 279 277 277 277 278 281 278 276 276 275 275 276 276 276 277 277 278
286 287 287 287 285 285 285 284 284 284 284 285 285 283 282 281 282 280 280 279 279 278 279 279 279 279 279 279 278 277 277 277 277 276 276 276 276 276 275 276 276 276 276 277
286 285 286 286 286 285 284 282 282 282 282 282 280 281 282 282 281 280 280 278 278 277 278 278 282 281 279 280 280 278 277 276 277 276 277 278 276 275 275 275 275 275 275 276
285 286 287 287 287 285 284 284 285 285 284 283 282 282 280 281 280 280 279 278 279 279 279 278 280 280 279 278 283 277 276 276 276 276 276 275 273 273 274 276 276 275 275 275
282 282 284 285 285 285 285 285 285 284 284 284 282 282 282 281 280 280 278 278 280 280 280 281 280 279 279 279 280 277 276 275 275 276 273 272 271 272 273 274 274 274 274 274
284 283 284 283 283 283 284 283 284 283 283 282 281 282 281 280 280 279 280 280 279 283 281 279 279 280 279 282 278 277 276 275 276 274 270 271 270 271 272 273 273 274 275 273
284 285 284 283 283 282 282 283 283 282 281 280 281 281 281 282 281 279 278 280 280 281 281 279 280 282 283 280 278 277 276 274 273 271 271 269 270 270 270 270 274 274 274 274
283 284 283 281 278 277 280 284 282 281 281 280 281 281 282 280 280 281 282 282 283 282 281 279 281 283 283 279 277 276 274 273 271 269 270 274 270 268 272 272 271 272 273 273
285 284 277 278 279 282 283 284 279 278 279 280 281 281 282 283 282 281 280 280 283 282 281 282 283 283 281 278 277 275 274 272 270 267 268 267 267 271 268 271 273 273 271 272
285 285 286 282 283 284 283 279 280 282 280 280 281 281 282 282 281 282 280 281 280 282 280 279 281 281 279 277 276 275 273 271 273 271 270 269 267 267 270 272 272 269 270 270
283 286 284 279 281 282 282 282 281 281 282 281 281 283 281 281 281 281 281 279 279 280 280 278 279 281 277 276 276 274 273 272 273 270 268 267 266 266 269 269 270 270 270 271